<?xml version="1.0" encoding="UTF-8" standalone="no" ?>
<gpx xmlns="http://www.topografix.com/GPX/1/1" creator="MapSource 6.16.3" version="1.1" xmlns:xsi="http://www.w3.org/2001/XMLSchema-instance" xsi:schemaLocation="http://www.topografix.com/GPX/1/1 http://www.topografix.com/GPX/1/1/gpx.xsd">

  <metadata>
    <link href="http://www.garmin.com">
      <text>Garmin International</text>
    </link>
    <time>2016-09-06T14:55:43Z</time>
    <bounds maxlat="44.376332759857178" maxlon="11.25450611114502" minlat="44.291927330195904" minlon="11.156980991363525"/>
  </metadata>

  <trk>
    <name>ACTIVE LOG</name>
    <trkseg>
      <trkpt lat="44.341485500335693" lon="11.206784164533019">
        <ele>131</ele>
        <time>2002-06-08T11:59:16Z</time>
      </trkpt>
      <trkpt lat="44.34230038896203" lon="11.205357564613223">
        <ele>131</ele>
        <time>1989-12-31T00:00:00Z</time>
      </trkpt>
      <trkpt lat="44.342411030083895" lon="11.20546443387866">
        <ele>131</ele>
        <time>1989-12-31T00:00:00Z</time>
      </trkpt>
      <trkpt lat="44.343008995056152" lon="11.206269264221191">
        <ele>128</ele>
        <time>2002-06-08T07:47:58Z</time>
      </trkpt>
      <trkpt lat="44.343502521514893" lon="11.206719875335693">
        <ele>132</ele>
        <time>2002-06-08T07:48:12Z</time>
      </trkpt>
      <trkpt lat="44.344038963317871" lon="11.206762790679932">
        <ele>136</ele>
        <time>2002-06-08T07:48:25Z</time>
      </trkpt>
      <trkpt lat="44.34406042098999" lon="11.207385063171387">
        <ele>131</ele>
        <time>2002-06-08T07:59:04Z</time>
      </trkpt>
      <trkpt lat="44.34406042098999" lon="11.207535266876221">
        <ele>130</ele>
        <time>2002-06-08T07:59:06Z</time>
      </trkpt>
      <trkpt lat="44.344081878662109" lon="11.20781421661377">
        <ele>128</ele>
        <time>2002-06-08T07:59:10Z</time>
      </trkpt>
      <trkpt lat="44.344253540039063" lon="11.208436489105225">
        <ele>127</ele>
        <time>2002-06-08T07:59:28Z</time>
      </trkpt>
      <trkpt lat="44.344446659088135" lon="11.209037303924561">
        <ele>127</ele>
        <time>2002-06-08T07:59:43Z</time>
      </trkpt>
      <trkpt lat="44.344725608825684" lon="11.210002899169922">
        <ele>129</ele>
        <time>2002-06-08T08:00:03Z</time>
      </trkpt>
      <trkpt lat="44.344704234972596" lon="11.210131561383605">
        <ele>132</ele>
        <time>2002-06-08T08:00:11Z</time>
      </trkpt>
      <trkpt lat="44.344725608825684" lon="11.210131561383605">
        <ele>132</ele>
        <time>2002-06-08T08:00:15Z</time>
      </trkpt>
      <trkpt lat="44.344789981842041" lon="11.210217475891113">
        <ele>135</ele>
        <time>2002-06-08T08:00:26Z</time>
      </trkpt>
      <trkpt lat="44.34485443867743" lon="11.210389137268066">
        <ele>137</ele>
        <time>2002-06-08T08:00:38Z</time>
      </trkpt>
      <trkpt lat="44.344832897186279" lon="11.210432136431336">
        <ele>138</ele>
        <time>2002-06-08T08:00:45Z</time>
      </trkpt>
      <trkpt lat="44.344704234972596" lon="11.210668087005615">
        <ele>141</ele>
        <time>2002-06-08T08:01:02Z</time>
      </trkpt>
      <trkpt lat="44.34457540512085" lon="11.210839664563537">
        <ele>145</ele>
        <time>2002-06-08T08:01:16Z</time>
      </trkpt>
      <trkpt lat="44.344253540039063" lon="11.211097240447998">
        <ele>145</ele>
        <time>2002-06-08T08:01:41Z</time>
      </trkpt>
      <trkpt lat="44.344210624694824" lon="11.211333274841309">
        <ele>146</ele>
        <time>2002-06-08T08:01:53Z</time>
      </trkpt>
      <trkpt lat="44.344747066497803" lon="11.211655139923096">
        <ele>148</ele>
        <time>2002-06-08T08:02:21Z</time>
      </trkpt>
      <trkpt lat="44.345154762268066" lon="11.21204137802124">
        <ele>152</ele>
        <time>2002-06-08T08:02:40Z</time>
      </trkpt>
      <trkpt lat="44.3453049659729" lon="11.212127208709717">
        <ele>155</ele>
        <time>2002-06-08T08:02:49Z</time>
      </trkpt>
      <trkpt lat="44.345476627349854" lon="11.212256038561463">
        <ele>159</ele>
        <time>2002-06-08T08:02:59Z</time>
      </trkpt>
      <trkpt lat="44.345648288726807" lon="11.212899684906006">
        <ele>162</ele>
        <time>2002-06-08T08:03:22Z</time>
      </trkpt>
      <trkpt lat="44.345841407775879" lon="11.213457584381104">
        <ele>165</ele>
        <time>2002-06-08T08:03:43Z</time>
      </trkpt>
      <trkpt lat="44.346270561218262" lon="11.213822364807129">
        <ele>164</ele>
        <time>2002-06-08T08:04:01Z</time>
      </trkpt>
      <trkpt lat="44.346892833709717" lon="11.214380264282227">
        <ele>162</ele>
        <time>2002-06-08T08:04:15Z</time>
      </trkpt>
      <trkpt lat="44.347086036577821" lon="11.214637840166688">
        <ele>161</ele>
        <time>2002-06-08T08:04:19Z</time>
      </trkpt>
      <trkpt lat="44.347343361005187" lon="11.215689182281494">
        <ele>162</ele>
        <time>2002-06-08T08:04:31Z</time>
      </trkpt>
      <trkpt lat="44.347364902496338" lon="11.215839385986328">
        <ele>159</ele>
        <time>2002-06-08T08:04:33Z</time>
      </trkpt>
      <trkpt lat="44.347429275512695" lon="11.216483116149902">
        <ele>160</ele>
        <time>2002-06-08T08:04:46Z</time>
      </trkpt>
      <trkpt lat="44.347536563873291" lon="11.217083930969238">
        <ele>160</ele>
        <time>2002-06-08T08:06:00Z</time>
      </trkpt>
      <trkpt lat="44.347643936052918" lon="11.217620372772217">
        <ele>158</ele>
        <time>2002-06-08T08:06:09Z</time>
      </trkpt>
      <trkpt lat="44.347772598266602" lon="11.217813491821289">
        <ele>157</ele>
        <time>2002-06-08T08:06:13Z</time>
      </trkpt>
      <trkpt lat="44.348051464185119" lon="11.217877864837646">
        <ele>156</ele>
        <time>2002-06-08T08:06:17Z</time>
      </trkpt>
      <trkpt lat="44.348523616790771" lon="11.218199729919434">
        <ele>152</ele>
        <time>2002-06-08T08:06:23Z</time>
      </trkpt>
      <trkpt lat="44.348759735003114" lon="11.218392765149474">
        <ele>150</ele>
        <time>2002-06-08T08:06:26Z</time>
      </trkpt>
      <trkpt lat="44.348909938707948" lon="11.218521595001221">
        <ele>146</ele>
        <time>2002-06-08T08:06:28Z</time>
      </trkpt>
      <trkpt lat="44.349081516265869" lon="11.218650341033936">
        <ele>145</ele>
        <time>2002-06-08T08:06:30Z</time>
      </trkpt>
      <trkpt lat="44.349489212036133" lon="11.218714714050293">
        <ele>139</ele>
        <time>2002-06-08T08:06:34Z</time>
      </trkpt>
      <trkpt lat="44.349746704101563" lon="11.218607425689697">
        <ele>135</ele>
        <time>2002-06-08T08:06:37Z</time>
      </trkpt>
      <trkpt lat="44.349939823150635" lon="11.218371391296387">
        <ele>131</ele>
        <time>2002-06-08T08:06:40Z</time>
      </trkpt>
      <trkpt lat="44.350197315216064" lon="11.218156814575195">
        <ele>128</ele>
        <time>2002-06-08T08:06:43Z</time>
      </trkpt>
      <trkpt lat="44.350433265790343" lon="11.217985237017274">
        <ele>124</ele>
        <time>2002-06-08T08:06:46Z</time>
      </trkpt>
      <trkpt lat="44.351420402526855" lon="11.217405796051025">
        <ele>125</ele>
        <time>2002-06-08T08:07:05Z</time>
      </trkpt>
      <trkpt lat="44.351763725280762" lon="11.217126762494445">
        <ele>128</ele>
        <time>2002-06-08T08:07:16Z</time>
      </trkpt>
      <trkpt lat="44.35206413269043" lon="11.216740608215332">
        <ele>131</ele>
        <time>2002-06-08T08:07:28Z</time>
      </trkpt>
      <trkpt lat="44.35230016708374" lon="11.216633319854736">
        <ele>134</ele>
        <time>2002-06-08T08:07:36Z</time>
      </trkpt>
      <trkpt lat="44.3525146599859" lon="11.216676235198975">
        <ele>138</ele>
        <time>2002-06-08T08:07:45Z</time>
      </trkpt>
      <trkpt lat="44.352750778198242" lon="11.216676235198975">
        <ele>141</ele>
        <time>2002-06-08T08:07:59Z</time>
      </trkpt>
      <trkpt lat="44.352943897247314" lon="11.216654777526855">
        <ele>145</ele>
        <time>2002-06-08T08:08:10Z</time>
      </trkpt>
      <trkpt lat="44.353137016296387" lon="11.216633319854736">
        <ele>148</ele>
        <time>2002-06-08T08:08:22Z</time>
      </trkpt>
      <trkpt lat="44.353394508361816" lon="11.216611862182617">
        <ele>151</ele>
        <time>2002-06-08T08:08:36Z</time>
      </trkpt>
      <trkpt lat="44.353673458099365" lon="11.21654748916626">
        <ele>151</ele>
        <time>2002-06-08T08:08:51Z</time>
      </trkpt>
      <trkpt lat="44.353995323181152" lon="11.21628999710083">
        <ele>148</ele>
        <time>2002-06-08T08:09:00Z</time>
      </trkpt>
      <trkpt lat="44.35405969619751" lon="11.216247081756592">
        <ele>148</ele>
        <time>2002-06-08T08:09:01Z</time>
      </trkpt>
      <trkpt lat="44.354231441393495" lon="11.216139793395996">
        <ele>147</ele>
        <time>2002-06-08T08:09:04Z</time>
      </trkpt>
      <trkpt lat="44.354381561279297" lon="11.215946674346924">
        <ele>144</ele>
        <time>2002-06-08T08:09:07Z</time>
      </trkpt>
      <trkpt lat="44.354424476623535" lon="11.215839385986328">
        <ele>142</ele>
        <time>2002-06-08T08:09:08Z</time>
      </trkpt>
      <trkpt lat="44.354488765820861" lon="11.215646266937256">
        <ele>141</ele>
        <time>2002-06-08T08:09:10Z</time>
      </trkpt>
      <trkpt lat="44.354531764984131" lon="11.215431690216064">
        <ele>140</ele>
        <time>2002-06-08T08:09:12Z</time>
      </trkpt>
      <trkpt lat="44.354639137163758" lon="11.215109825134277">
        <ele>137</ele>
        <time>2002-06-08T08:09:15Z</time>
      </trkpt>
      <trkpt lat="44.355175495147705" lon="11.214509010314941">
        <ele>136</ele>
        <time>2002-06-08T08:09:23Z</time>
      </trkpt>
      <trkpt lat="44.355411529541016" lon="11.214337265118957">
        <ele>138</ele>
        <time>2002-06-08T08:09:27Z</time>
      </trkpt>
      <trkpt lat="44.35554027557373" lon="11.214337265118957">
        <ele>139</ele>
        <time>2002-06-08T08:09:31Z</time>
      </trkpt>
      <trkpt lat="44.355883598327637" lon="11.21455192565918">
        <ele>127</ele>
        <time>2002-10-27T08:01:41Z</time>
      </trkpt>
      <trkpt lat="44.35579776763916" lon="11.214659214019775">
        <ele>127</ele>
        <time>2002-10-27T08:01:48Z</time>
      </trkpt>
      <trkpt lat="44.35579776763916" lon="11.214723587036133">
        <ele>128</ele>
        <time>2002-10-27T08:01:52Z</time>
      </trkpt>
      <trkpt lat="44.355754936113954" lon="11.214959621429443">
        <ele>130</ele>
        <time>2002-10-27T08:02:09Z</time>
      </trkpt>
      <trkpt lat="44.355776309967041" lon="11.21528148651123">
        <ele>133</ele>
        <time>2002-10-27T08:02:25Z</time>
      </trkpt>
      <trkpt lat="44.355754936113954" lon="11.215710639953613">
        <ele>136</ele>
        <time>2002-10-27T08:02:41Z</time>
      </trkpt>
      <trkpt lat="44.355754936113954" lon="11.215775012969971">
        <ele>137</ele>
        <time>2002-10-27T08:02:43Z</time>
      </trkpt>
      <trkpt lat="44.355669021606445" lon="11.216096878051758">
        <ele>140</ele>
        <time>2002-10-27T08:02:57Z</time>
      </trkpt>
      <trkpt lat="44.355604564771056" lon="11.216397285461426">
        <ele>143</ele>
        <time>2002-10-27T08:03:10Z</time>
      </trkpt>
      <trkpt lat="44.355518817901611" lon="11.216633319854736">
        <ele>147</ele>
        <time>2002-10-27T08:03:21Z</time>
      </trkpt>
      <trkpt lat="44.355368614196777" lon="11.216912269592285">
        <ele>150</ele>
        <time>2002-10-27T08:03:35Z</time>
      </trkpt>
      <trkpt lat="44.355218410491943" lon="11.217212677001953">
        <ele>153</ele>
        <time>2002-10-27T08:03:49Z</time>
      </trkpt>
      <trkpt lat="44.355046665295959" lon="11.217491626739502">
        <ele>156</ele>
        <time>2002-10-27T08:04:03Z</time>
      </trkpt>
      <trkpt lat="44.354875087738037" lon="11.217706203460693">
        <ele>159</ele>
        <time>2002-10-27T08:04:15Z</time>
      </trkpt>
      <trkpt lat="44.354767799377441" lon="11.218006610870361">
        <ele>161</ele>
        <time>2002-10-27T08:04:29Z</time>
      </trkpt>
      <trkpt lat="44.354746341705322" lon="11.218349933624268">
        <ele>164</ele>
        <time>2002-10-27T08:04:41Z</time>
      </trkpt>
      <trkpt lat="44.354746341705322" lon="11.218521595001221">
        <ele>166</ele>
        <time>2002-10-27T08:04:47Z</time>
      </trkpt>
      <trkpt lat="44.354767799377441" lon="11.218757629394531">
        <ele>170</ele>
        <time>2002-10-27T08:04:57Z</time>
      </trkpt>
      <trkpt lat="44.35481071472168" lon="11.218929290771484">
        <ele>173</ele>
        <time>2002-10-27T08:05:06Z</time>
      </trkpt>
      <trkpt lat="44.354832172393799" lon="11.219186782836914">
        <ele>176</ele>
        <time>2002-10-27T08:05:19Z</time>
      </trkpt>
      <trkpt lat="44.354832172393799" lon="11.219379901885986">
        <ele>180</ele>
        <time>2002-10-27T08:05:29Z</time>
      </trkpt>
      <trkpt lat="44.354939460754395" lon="11.219594478607178">
        <ele>183</ele>
        <time>2002-10-27T08:05:41Z</time>
      </trkpt>
      <trkpt lat="44.355025291442871" lon="11.219744682312012">
        <ele>186</ele>
        <time>2002-10-27T08:05:52Z</time>
      </trkpt>
      <trkpt lat="44.355046665295959" lon="11.219809139147401">
        <ele>187</ele>
        <time>2002-10-27T08:05:55Z</time>
      </trkpt>
      <trkpt lat="44.355003833770752" lon="11.219916259869933">
        <ele>189</ele>
        <time>2002-10-27T08:06:01Z</time>
      </trkpt>
      <trkpt lat="44.354896461591125" lon="11.220238208770752">
        <ele>192</ele>
        <time>2002-10-27T08:06:19Z</time>
      </trkpt>
      <trkpt lat="44.354896461591125" lon="11.220452785491943">
        <ele>195</ele>
        <time>2002-10-27T08:06:28Z</time>
      </trkpt>
      <trkpt lat="44.354982376098633" lon="11.220731735229492">
        <ele>199</ele>
        <time>2002-10-27T08:06:42Z</time>
      </trkpt>
      <trkpt lat="44.355003833770752" lon="11.220903396606445">
        <ele>202</ele>
        <time>2002-10-27T08:06:51Z</time>
      </trkpt>
      <trkpt lat="44.354832172393799" lon="11.221096515655518">
        <ele>204</ele>
        <time>2002-10-27T08:07:08Z</time>
      </trkpt>
      <trkpt lat="44.354617595672607" lon="11.22107514180243">
        <ele>208</ele>
        <time>2002-10-27T08:07:20Z</time>
      </trkpt>
      <trkpt lat="44.354467391967773" lon="11.22107514180243">
        <ele>212</ele>
        <time>2002-10-27T08:07:30Z</time>
      </trkpt>
      <trkpt lat="44.354231441393495" lon="11.221182262524962">
        <ele>214</ele>
        <time>2002-10-27T08:07:47Z</time>
      </trkpt>
      <trkpt lat="44.354166984558105" lon="11.221396923065186">
        <ele>218</ele>
        <time>2002-10-27T08:07:57Z</time>
      </trkpt>
      <trkpt lat="44.354102611541748" lon="11.22178316116333">
        <ele>221</ele>
        <time>2002-10-27T08:08:15Z</time>
      </trkpt>
      <trkpt lat="44.354102611541748" lon="11.222255229949951">
        <ele>223</ele>
        <time>2002-10-27T08:08:28Z</time>
      </trkpt>
      <trkpt lat="44.354038238525391" lon="11.222512722015381">
        <ele>225</ele>
        <time>2002-10-27T08:08:34Z</time>
      </trkpt>
      <trkpt lat="44.354145526885986" lon="11.22302770614624">
        <ele>227</ele>
        <time>2002-10-27T08:08:46Z</time>
      </trkpt>
      <trkpt lat="44.354681968688965" lon="11.224057674407959">
        <ele>228</ele>
        <time>2002-10-27T08:09:06Z</time>
      </trkpt>
      <trkpt lat="44.354982376098633" lon="11.224572658538818">
        <ele>229</ele>
        <time>2002-10-27T08:09:19Z</time>
      </trkpt>
      <trkpt lat="44.355132579803467" lon="11.22523776255548">
        <ele>232</ele>
        <time>2002-10-27T08:09:38Z</time>
      </trkpt>
      <trkpt lat="44.355025291442871" lon="11.226096237078309">
        <ele>235</ele>
        <time>2002-10-27T08:09:59Z</time>
      </trkpt>
      <trkpt lat="44.354939460754395" lon="11.226310729980469">
        <ele>238</ele>
        <time>2002-10-27T08:10:04Z</time>
      </trkpt>
      <trkpt lat="44.355003833770752" lon="11.22652530670166">
        <ele>239</ele>
        <time>2002-10-27T08:10:08Z</time>
      </trkpt>
      <trkpt lat="44.355518817901611" lon="11.226696968078613">
        <ele>241</ele>
        <time>2002-10-27T08:10:22Z</time>
      </trkpt>
      <trkpt lat="44.355990886688232" lon="11.226997375488281">
        <ele>242</ele>
        <time>2002-10-27T08:10:34Z</time>
      </trkpt>
      <trkpt lat="44.35605525970459" lon="11.227469360455871">
        <ele>243</ele>
        <time>2002-10-27T08:10:41Z</time>
      </trkpt>
      <trkpt lat="44.356076717376709" lon="11.227705478668213">
        <ele>243</ele>
        <time>2002-10-27T08:10:44Z</time>
      </trkpt>
      <trkpt lat="44.356141090393066" lon="11.227962970733643">
        <ele>243</ele>
        <time>2002-10-27T08:10:48Z</time>
      </trkpt>
      <trkpt lat="44.356441497802734" lon="11.228349208831787">
        <ele>247</ele>
        <time>2002-10-27T08:10:59Z</time>
      </trkpt>
      <trkpt lat="44.356677532196045" lon="11.2287353631109">
        <ele>251</ele>
        <time>2002-10-27T08:11:12Z</time>
      </trkpt>
      <trkpt lat="44.356741905212402" lon="11.228992938995361">
        <ele>254</ele>
        <time>2002-10-27T08:11:19Z</time>
      </trkpt>
      <trkpt lat="44.356763362884521" lon="11.229035938158631">
        <ele>254</ele>
        <time>2002-10-27T08:11:20Z</time>
      </trkpt>
      <trkpt lat="44.35680627822876" lon="11.229443633928895">
        <ele>257</ele>
        <time>2002-10-27T08:11:30Z</time>
      </trkpt>
      <trkpt lat="44.35680627822876" lon="11.229486465454102">
        <ele>257</ele>
        <time>2002-10-27T08:11:31Z</time>
      </trkpt>
      <trkpt lat="44.356935024261475" lon="11.229872703552246">
        <ele>260</ele>
        <time>2002-10-27T08:11:42Z</time>
      </trkpt>
      <trkpt lat="44.357106685638428" lon="11.230301940813661">
        <ele>264</ele>
        <time>2002-10-27T08:11:55Z</time>
      </trkpt>
      <trkpt lat="44.357278263196349" lon="11.230580806732178">
        <ele>266</ele>
        <time>2002-10-27T08:12:05Z</time>
      </trkpt>
      <trkpt lat="44.357771873474121" lon="11.230816841125488">
        <ele>268</ele>
        <time>2002-10-27T08:12:21Z</time>
      </trkpt>
      <trkpt lat="44.358394062146544" lon="11.230966961011291">
        <ele>270</ele>
        <time>2002-10-27T08:12:37Z</time>
      </trkpt>
      <trkpt lat="44.358737468719482" lon="11.230902671813965">
        <ele>271</ele>
        <time>2002-10-27T08:12:46Z</time>
      </trkpt>
      <trkpt lat="44.35884484089911" lon="11.231117164716125">
        <ele>272</ele>
        <time>2002-10-27T08:12:51Z</time>
      </trkpt>
      <trkpt lat="44.358823299407959" lon="11.231181621551514">
        <ele>272</ele>
        <time>2002-10-27T08:12:52Z</time>
      </trkpt>
      <trkpt lat="44.358930587768555" lon="11.231846809387207">
        <ele>272</ele>
        <time>2002-10-27T08:13:02Z</time>
      </trkpt>
      <trkpt lat="44.358973503112793" lon="11.231911182403564">
        <ele>272</ele>
        <time>2002-10-27T08:13:03Z</time>
      </trkpt>
      <trkpt lat="44.359230995178223" lon="11.23227596282959">
        <ele>272</ele>
        <time>2002-10-27T08:13:09Z</time>
      </trkpt>
      <trkpt lat="44.359359741210937" lon="11.232748031616211">
        <ele>271</ele>
        <time>2002-10-27T08:13:14Z</time>
      </trkpt>
      <trkpt lat="44.35950986109674" lon="11.2335205078125">
        <ele>269</ele>
        <time>2002-10-27T08:13:21Z</time>
      </trkpt>
      <trkpt lat="44.35955286026001" lon="11.233606338500977">
        <ele>269</ele>
        <time>2002-10-27T08:13:22Z</time>
      </trkpt>
      <trkpt lat="44.359917640686035" lon="11.234164237976074">
        <ele>270</ele>
        <time>2002-10-27T08:13:29Z</time>
      </trkpt>
      <trkpt lat="44.360003471374512" lon="11.234571933746338">
        <ele>269</ele>
        <time>2002-10-27T08:13:33Z</time>
      </trkpt>
      <trkpt lat="44.360175132751465" lon="11.235108375549316">
        <ele>269</ele>
        <time>2002-10-27T08:13:39Z</time>
      </trkpt>
      <trkpt lat="44.360260963439941" lon="11.235387325286865">
        <ele>270</ele>
        <time>2002-10-27T08:13:42Z</time>
      </trkpt>
      <trkpt lat="44.360346794128418" lon="11.236073970794678">
        <ele>270</ele>
        <time>2002-10-27T08:13:50Z</time>
      </trkpt>
      <trkpt lat="44.360475540161133" lon="11.236438835039735">
        <ele>271</ele>
        <time>2002-10-27T08:13:55Z</time>
      </trkpt>
      <trkpt lat="44.360561370849609" lon="11.236589038744569">
        <ele>271</ele>
        <time>2002-10-27T08:13:58Z</time>
      </trkpt>
      <trkpt lat="44.360690116882324" lon="11.237339973449707">
        <ele>275</ele>
        <time>2002-10-27T08:14:12Z</time>
      </trkpt>
      <trkpt lat="44.360604286193848" lon="11.237833499908447">
        <ele>278</ele>
        <time>2002-10-27T08:14:24Z</time>
      </trkpt>
      <trkpt lat="44.360454082489014" lon="11.238348484039307">
        <ele>281</ele>
        <time>2002-10-27T08:14:39Z</time>
      </trkpt>
      <trkpt lat="44.360368335619569" lon="11.238627433776855">
        <ele>284</ele>
        <time>2002-10-27T08:14:47Z</time>
      </trkpt>
      <trkpt lat="44.360282421112061" lon="11.239099502563477">
        <ele>287</ele>
        <time>2002-10-27T08:15:00Z</time>
      </trkpt>
      <trkpt lat="44.360217964276671" lon="11.239571571350098">
        <ele>290</ele>
        <time>2002-10-27T08:15:11Z</time>
      </trkpt>
      <trkpt lat="44.360217964276671" lon="11.239614486694336">
        <ele>290</ele>
        <time>2002-10-27T08:15:12Z</time>
      </trkpt>
      <trkpt lat="44.360196590423584" lon="11.239786064252257">
        <ele>291</ele>
        <time>2002-10-27T08:15:16Z</time>
      </trkpt>
      <trkpt lat="44.360110759735107" lon="11.240236759185791">
        <ele>293</ele>
        <time>2002-10-27T08:15:33Z</time>
      </trkpt>
      <trkpt lat="44.360196590423584" lon="11.240236759185791">
        <ele>301</ele>
        <time>2002-06-08T08:29:45Z</time>
      </trkpt>
      <trkpt lat="44.360239505767822" lon="11.240108013153076">
        <ele>302</ele>
        <time>2002-06-08T08:29:55Z</time>
      </trkpt>
      <trkpt lat="44.360411167144775" lon="11.239786064252257">
        <ele>305</ele>
        <time>2002-06-08T08:30:15Z</time>
      </trkpt>
      <trkpt lat="44.360432624816895" lon="11.23976469039917">
        <ele>305</ele>
        <time>2002-06-08T08:30:16Z</time>
      </trkpt>
      <trkpt lat="44.360518539324403" lon="11.23950719833374">
        <ele>308</ele>
        <time>2002-06-08T08:30:26Z</time>
      </trkpt>
      <trkpt lat="44.360668659210205" lon="11.239206790924072">
        <ele>312</ele>
        <time>2002-06-08T08:30:38Z</time>
      </trkpt>
      <trkpt lat="44.360947608947754" lon="11.238949298858643">
        <ele>315</ele>
        <time>2002-06-08T08:30:54Z</time>
      </trkpt>
      <trkpt lat="44.361205101013184" lon="11.238820636644959">
        <ele>319</ele>
        <time>2002-06-08T08:31:11Z</time>
      </trkpt>
      <trkpt lat="44.361333763226867" lon="11.238713264465332">
        <ele>322</ele>
        <time>2002-06-08T08:31:22Z</time>
      </trkpt>
      <trkpt lat="44.361484134569764" lon="11.238670265302062">
        <ele>326</ele>
        <time>2002-06-08T08:31:34Z</time>
      </trkpt>
      <trkpt lat="44.3617844581604" lon="11.238520061597228">
        <ele>328</ele>
        <time>2002-06-08T08:31:55Z</time>
      </trkpt>
      <trkpt lat="44.362063407897949" lon="11.238112365826964">
        <ele>331</ele>
        <time>2002-06-08T08:32:13Z</time>
      </trkpt>
      <trkpt lat="44.362020492553711" lon="11.23751163482666">
        <ele>334</ele>
        <time>2002-06-08T08:32:28Z</time>
      </trkpt>
      <trkpt lat="44.361956119537354" lon="11.237125396728516">
        <ele>338</ele>
        <time>2002-06-08T08:32:40Z</time>
      </trkpt>
      <trkpt lat="44.362256526947021" lon="11.236932277679443">
        <ele>342</ele>
        <time>2002-06-08T08:34:28Z</time>
      </trkpt>
      <trkpt lat="44.362449562177062" lon="11.236824989318848">
        <ele>345</ele>
        <time>2002-06-08T08:34:39Z</time>
      </trkpt>
      <trkpt lat="44.362599765881896" lon="11.236696159467101">
        <ele>347</ele>
        <time>2002-06-08T08:34:51Z</time>
      </trkpt>
      <trkpt lat="44.362857341766357" lon="11.236674785614014">
        <ele>351</ele>
        <time>2002-06-08T08:35:08Z</time>
      </trkpt>
      <trkpt lat="44.363114833831787" lon="11.236653327941895">
        <ele>353</ele>
        <time>2002-06-08T08:35:24Z</time>
      </trkpt>
      <trkpt lat="44.363393783569336" lon="11.236932277679443">
        <ele>357</ele>
        <time>2002-06-08T08:35:45Z</time>
      </trkpt>
      <trkpt lat="44.363865936174989" lon="11.237447261810303">
        <ele>358</ele>
        <time>2002-06-08T08:36:06Z</time>
      </trkpt>
      <trkpt lat="44.363951683044434" lon="11.237468719482422">
        <ele>359</ele>
        <time>2002-06-08T08:36:09Z</time>
      </trkpt>
      <trkpt lat="44.364101886749268" lon="11.237361431121826">
        <ele>360</ele>
        <time>2002-06-08T08:36:14Z</time>
      </trkpt>
      <trkpt lat="44.364166259765625" lon="11.237339973449707">
        <ele>361</ele>
        <time>2002-06-08T08:36:16Z</time>
      </trkpt>
      <trkpt lat="44.364423835650086" lon="11.237232685089111">
        <ele>364</ele>
        <time>2002-06-08T08:36:26Z</time>
      </trkpt>
      <trkpt lat="44.364895820617676" lon="11.237232685089111">
        <ele>368</ele>
        <time>2002-06-08T08:36:44Z</time>
      </trkpt>
      <trkpt lat="44.365303516387939" lon="11.237382888793945">
        <ele>365</ele>
        <time>2002-06-08T08:36:58Z</time>
      </trkpt>
      <trkpt lat="44.365410804748535" lon="11.237425804138184">
        <ele>363</ele>
        <time>2002-06-08T08:37:02Z</time>
      </trkpt>
      <trkpt lat="44.365410804748535" lon="11.237533092498779">
        <ele>362</ele>
        <time>2002-06-08T08:37:06Z</time>
      </trkpt>
      <trkpt lat="44.365346431732178" lon="11.237597465515137">
        <ele>361</ele>
        <time>2002-06-08T08:37:13Z</time>
      </trkpt>
      <trkpt lat="44.365539634600282" lon="11.237683296203613">
        <ele>359</ele>
        <time>2002-06-08T08:37:19Z</time>
      </trkpt>
      <trkpt lat="44.365689838305116" lon="11.23776912689209">
        <ele>357</ele>
        <time>2002-06-08T08:37:22Z</time>
      </trkpt>
      <trkpt lat="44.365818500518799" lon="11.237811958417296">
        <ele>356</ele>
        <time>2002-06-08T08:37:24Z</time>
      </trkpt>
      <trkpt lat="44.365947162732482" lon="11.237855041399598">
        <ele>355</ele>
        <time>2002-06-08T08:37:26Z</time>
      </trkpt>
      <trkpt lat="44.366204738616943" lon="11.237855041399598">
        <ele>354</ele>
        <time>2002-06-08T08:37:34Z</time>
      </trkpt>
      <trkpt lat="44.366269111633301" lon="11.237790584564209">
        <ele>356</ele>
        <time>2002-06-08T08:37:46Z</time>
      </trkpt>
      <trkpt lat="44.36629056930542" lon="11.237661838531494">
        <ele>359</ele>
        <time>2002-06-08T08:37:58Z</time>
      </trkpt>
      <trkpt lat="44.36631009913981" lon="11.23755362816155">
        <ele>359</ele>
        <time>1989-12-31T00:00:00Z</time>
      </trkpt>
      <trkpt lat="44.366397941485047" lon="11.237576007843018">
        <ele>360</ele>
        <time>2002-06-08T08:38:47Z</time>
      </trkpt>
      <trkpt lat="44.366483688354492" lon="11.237597465515137">
        <ele>360</ele>
        <time>2002-06-08T08:39:00Z</time>
      </trkpt>
      <trkpt lat="44.36650506220758" lon="11.237661838531494">
        <ele>360</ele>
        <time>2002-06-08T08:39:04Z</time>
      </trkpt>
      <trkpt lat="44.36650506220758" lon="11.237704837694764">
        <ele>361</ele>
        <time>2002-06-08T08:39:07Z</time>
      </trkpt>
      <trkpt lat="44.366655265912414" lon="11.237640380859375">
        <ele>363</ele>
        <time>2002-06-08T08:39:21Z</time>
      </trkpt>
      <trkpt lat="44.366762638092041" lon="11.237618923187256">
        <ele>365</ele>
        <time>2002-06-08T08:39:34Z</time>
      </trkpt>
      <trkpt lat="44.366869926452637" lon="11.237618923187256">
        <ele>367</ele>
        <time>2002-06-08T08:39:50Z</time>
      </trkpt>
      <trkpt lat="44.366934299468994" lon="11.237618923187256">
        <ele>369</ele>
        <time>2002-06-08T08:39:58Z</time>
      </trkpt>
      <trkpt lat="44.367084503173828" lon="11.237618923187256">
        <ele>372</ele>
        <time>2002-06-08T08:40:13Z</time>
      </trkpt>
      <trkpt lat="44.367170333862305" lon="11.237576007843018">
        <ele>373</ele>
        <time>2002-06-08T08:40:28Z</time>
      </trkpt>
      <trkpt lat="44.36729907989502" lon="11.237404262647033">
        <ele>376</ele>
        <time>2002-06-08T08:40:41Z</time>
      </trkpt>
      <trkpt lat="44.367470741271973" lon="11.237168312072754">
        <ele>378</ele>
        <time>2002-06-08T08:40:59Z</time>
      </trkpt>
      <trkpt lat="44.367556571960449" lon="11.237125396728516">
        <ele>381</ele>
        <time>2002-06-08T08:41:05Z</time>
      </trkpt>
      <trkpt lat="44.367620861157775" lon="11.237146938219666">
        <ele>381</ele>
        <time>2002-06-08T08:41:20Z</time>
      </trkpt>
      <trkpt lat="44.367685317993164" lon="11.237168312072754">
        <ele>383</ele>
        <time>2002-06-08T08:41:32Z</time>
      </trkpt>
      <trkpt lat="44.367964267730713" lon="11.237254058942199">
        <ele>384</ele>
        <time>2002-06-08T08:41:56Z</time>
      </trkpt>
      <trkpt lat="44.368157386779785" lon="11.237211227416992">
        <ele>383</ele>
        <time>2002-06-08T08:42:26Z</time>
      </trkpt>
      <trkpt lat="44.368307590484619" lon="11.237232685089111">
        <ele>386</ele>
        <time>2002-06-08T08:42:46Z</time>
      </trkpt>
      <trkpt lat="44.368565082550049" lon="11.237404262647033">
        <ele>389</ele>
        <time>2002-06-08T08:43:08Z</time>
      </trkpt>
      <trkpt lat="44.369037235155702" lon="11.237683296203613">
        <ele>392</ele>
        <time>2002-06-08T08:43:48Z</time>
      </trkpt>
      <trkpt lat="44.369294559583068" lon="11.2380051612854">
        <ele>389</ele>
        <time>2002-06-08T08:44:06Z</time>
      </trkpt>
      <trkpt lat="44.369401931762695" lon="11.238198280334473">
        <ele>387</ele>
        <time>2002-06-08T08:44:13Z</time>
      </trkpt>
      <trkpt lat="44.369487762451172" lon="11.238327026367188">
        <ele>383</ele>
        <time>2002-06-08T08:44:17Z</time>
      </trkpt>
      <trkpt lat="44.369509220123291" lon="11.238348484039307">
        <ele>383</ele>
        <time>2002-06-08T08:44:18Z</time>
      </trkpt>
      <trkpt lat="44.369637966156006" lon="11.238584518432617">
        <ele>379</ele>
        <time>2002-06-08T08:44:26Z</time>
      </trkpt>
      <trkpt lat="44.369659423828125" lon="11.238627433776855">
        <ele>379</ele>
        <time>2002-06-08T08:44:27Z</time>
      </trkpt>
      <trkpt lat="44.369680881500244" lon="11.238713264465332">
        <ele>376</ele>
        <time>2002-06-08T08:44:30Z</time>
      </trkpt>
      <trkpt lat="44.369723796844482" lon="11.238777637481689">
        <ele>375</ele>
        <time>2002-06-08T08:44:32Z</time>
      </trkpt>
      <trkpt lat="44.369766712188721" lon="11.238906383514404">
        <ele>372</ele>
        <time>2002-06-08T08:44:36Z</time>
      </trkpt>
      <trkpt lat="44.369809627532959" lon="11.238992214202881">
        <ele>369</ele>
        <time>2002-06-08T08:44:39Z</time>
      </trkpt>
      <trkpt lat="44.369831085205078" lon="11.239099502563477">
        <ele>367</ele>
        <time>2002-06-08T08:44:42Z</time>
      </trkpt>
      <trkpt lat="44.369852459058166" lon="11.239185333251953">
        <ele>364</ele>
        <time>2002-06-08T08:44:45Z</time>
      </trkpt>
      <trkpt lat="44.369916915893555" lon="11.239356994628906">
        <ele>361</ele>
        <time>2002-06-08T08:44:50Z</time>
      </trkpt>
      <trkpt lat="44.369938373565674" lon="11.239442825317383">
        <ele>360</ele>
        <time>2002-06-08T08:44:53Z</time>
      </trkpt>
      <trkpt lat="44.37002420425415" lon="11.239700317382813">
        <ele>357</ele>
        <time>2002-06-08T08:45:01Z</time>
      </trkpt>
      <trkpt lat="44.37004566192627" lon="11.239914894104004">
        <ele>352</ele>
        <time>2002-06-08T08:45:07Z</time>
      </trkpt>
      <trkpt lat="44.370067119598389" lon="11.240129470825195">
        <ele>349</ele>
        <time>2002-06-08T08:45:13Z</time>
      </trkpt>
      <trkpt lat="44.370067119598389" lon="11.240193760022521">
        <ele>348</ele>
        <time>2002-06-08T08:45:15Z</time>
      </trkpt>
      <trkpt lat="44.370088577270508" lon="11.240301132202148">
        <ele>344</ele>
        <time>2002-06-08T08:45:19Z</time>
      </trkpt>
      <trkpt lat="44.370088577270508" lon="11.240322589874268">
        <ele>344</ele>
        <time>2002-06-08T08:45:20Z</time>
      </trkpt>
      <trkpt lat="44.370088577270508" lon="11.240429878234863">
        <ele>341</ele>
        <time>2002-06-08T08:45:23Z</time>
      </trkpt>
      <trkpt lat="44.370153034105897" lon="11.240580081939697">
        <ele>337</ele>
        <time>2002-06-08T08:45:30Z</time>
      </trkpt>
      <trkpt lat="44.370153034105897" lon="11.240601539611816">
        <ele>337</ele>
        <time>2002-06-08T08:45:31Z</time>
      </trkpt>
      <trkpt lat="44.370174407958984" lon="11.240687370300293">
        <ele>336</ele>
        <time>2002-06-08T08:45:34Z</time>
      </trkpt>
      <trkpt lat="44.370367527008057" lon="11.241030693054199">
        <ele>334</ele>
        <time>2002-06-08T08:45:46Z</time>
      </trkpt>
      <trkpt lat="44.370721494778991" lon="11.240985514596105">
        <ele>330</ele>
        <time>2002-06-08T08:46:03Z</time>
      </trkpt>
      <trkpt lat="44.370655529201031" lon="11.2406110111624">
        <ele>330</ele>
        <time>2002-06-08T08:46:18Z</time>
      </trkpt>
      <trkpt lat="44.370719902217388" lon="11.240377658978105">
        <ele>330</ele>
        <time>2002-06-08T08:46:41Z</time>
      </trkpt>
      <trkpt lat="44.371017627418041" lon="11.240243464708328">
        <ele>320</ele>
        <time>2002-06-08T08:47:07Z</time>
      </trkpt>
      <trkpt lat="44.37130730599165" lon="11.240699524059892">
        <ele>300</ele>
        <time>2002-06-08T08:47:38Z</time>
      </trkpt>
      <trkpt lat="44.371631937101483" lon="11.240898007526994">
        <ele>280</ele>
        <time>2002-06-08T08:47:56Z</time>
      </trkpt>
      <trkpt lat="44.371768562123179" lon="11.240898007526994">
        <ele>280</ele>
        <time>2002-06-08T08:48:04Z</time>
      </trkpt>
      <trkpt lat="44.371782140806317" lon="11.240788036957383">
        <ele>280</ele>
        <time>2002-06-08T08:48:08Z</time>
      </trkpt>
      <trkpt lat="44.372313134372234" lon="11.240707570686936">
        <ele>280</ele>
        <time>2002-06-08T08:48:23Z</time>
      </trkpt>
      <trkpt lat="44.372975639998913" lon="11.240546638146043">
        <ele>310</ele>
        <time>2002-06-08T08:48:47Z</time>
      </trkpt>
      <trkpt lat="44.373125676065683" lon="11.240844028070569">
        <ele>315</ele>
        <time>2002-06-08T08:48:54Z</time>
      </trkpt>
      <trkpt lat="44.373254422098398" lon="11.240809159353375">
        <ele>320</ele>
        <time>2002-06-08T08:48:56Z</time>
      </trkpt>
      <trkpt lat="44.373291973024607" lon="11.240961961448193">
        <ele>320</ele>
        <time>2002-06-08T08:48:58Z</time>
      </trkpt>
      <trkpt lat="44.373372439295053" lon="11.241023736074567">
        <ele>320</ele>
        <time>2002-06-08T08:49:00Z</time>
      </trkpt>
      <trkpt lat="44.373415438458323" lon="11.241039829328656">
        <ele>325</ele>
        <time>2002-06-08T08:49:01Z</time>
      </trkpt>
      <trkpt lat="44.373528007417917" lon="11.24103706330061">
        <ele>325</ele>
        <time>2002-06-08T08:49:03Z</time>
      </trkpt>
      <trkpt lat="44.373600427061319" lon="11.241093473508954">
        <ele>325</ele>
        <time>2002-06-08T08:49:05Z</time>
      </trkpt>
      <trkpt lat="44.373994711786509" lon="11.241989331319928">
        <ele>290</ele>
        <time>2002-06-08T08:49:25Z</time>
      </trkpt>
      <trkpt lat="44.373409990221262" lon="11.243032710626721">
        <ele>260</ele>
        <time>2002-06-08T08:49:30Z</time>
      </trkpt>
      <trkpt lat="44.37403678894043" lon="11.243734359741211">
        <ele>213</ele>
        <time>2002-06-08T08:50:09Z</time>
      </trkpt>
      <trkpt lat="44.374144077301025" lon="11.243777275085449">
        <ele>210</ele>
        <time>2002-06-08T08:50:14Z</time>
      </trkpt>
      <trkpt lat="44.374186992645264" lon="11.243798732757568">
        <ele>207</ele>
        <time>2002-06-08T08:50:16Z</time>
      </trkpt>
      <trkpt lat="44.374229907989502" lon="11.243820190429688">
        <ele>204</ele>
        <time>2002-06-08T08:50:18Z</time>
      </trkpt>
      <trkpt lat="44.37427282333374" lon="11.243841564282775">
        <ele>203</ele>
        <time>2002-06-08T08:50:20Z</time>
      </trkpt>
      <trkpt lat="44.374401569366455" lon="11.243906021118164">
        <ele>200</ele>
        <time>2002-06-08T08:50:26Z</time>
      </trkpt>
      <trkpt lat="44.374487400054932" lon="11.243927478790283">
        <ele>198</ele>
        <time>2002-06-08T08:50:29Z</time>
      </trkpt>
      <trkpt lat="44.37453031539917" lon="11.243906021118164">
        <ele>196</ele>
        <time>2002-06-08T08:50:31Z</time>
      </trkpt>
      <trkpt lat="44.374594688415527" lon="11.243906021118164">
        <ele>193</ele>
        <time>2002-06-08T08:50:34Z</time>
      </trkpt>
      <trkpt lat="44.374659061431885" lon="11.243906021118164">
        <ele>191</ele>
        <time>2002-06-08T08:50:36Z</time>
      </trkpt>
      <trkpt lat="44.374852180480957" lon="11.243884563446045">
        <ele>188</ele>
        <time>2002-06-08T08:50:47Z</time>
      </trkpt>
      <trkpt lat="44.374895095825195" lon="11.243948936462402">
        <ele>186</ele>
        <time>2002-06-08T08:50:51Z</time>
      </trkpt>
      <trkpt lat="44.374938011169434" lon="11.243970394134521">
        <ele>185</ele>
        <time>2002-06-08T08:50:53Z</time>
      </trkpt>
      <trkpt lat="44.37502384185791" lon="11.243906021118164">
        <ele>185</ele>
        <time>2002-06-08T08:50:58Z</time>
      </trkpt>
      <trkpt lat="44.375259876251221" lon="11.243605613708496">
        <ele>187</ele>
        <time>2002-06-08T08:51:13Z</time>
      </trkpt>
      <trkpt lat="44.375452995300293" lon="11.243283664807677">
        <ele>189</ele>
        <time>2002-06-08T08:51:29Z</time>
      </trkpt>
      <trkpt lat="44.375624740496278" lon="11.243069171905518">
        <ele>189</ele>
        <time>2002-06-08T08:51:44Z</time>
      </trkpt>
      <trkpt lat="44.375967979431152" lon="11.242854595184326">
        <ele>191</ele>
        <time>2002-06-08T08:52:08Z</time>
      </trkpt>
      <trkpt lat="44.376010894775391" lon="11.243798732757568">
        <ele>175</ele>
        <time>2002-06-08T08:54:01Z</time>
      </trkpt>
      <trkpt lat="44.376032436266541" lon="11.243991935625672">
        <ele>171</ele>
        <time>2002-06-08T08:54:04Z</time>
      </trkpt>
      <trkpt lat="44.376032436266541" lon="11.244099140167236">
        <ele>170</ele>
        <time>2002-06-08T08:54:06Z</time>
      </trkpt>
      <trkpt lat="44.376053810119629" lon="11.244270801544189">
        <ele>169</ele>
        <time>2002-06-08T08:54:09Z</time>
      </trkpt>
      <trkpt lat="44.376075267791748" lon="11.244378089904785">
        <ele>168</ele>
        <time>2002-06-08T08:54:11Z</time>
      </trkpt>
      <trkpt lat="44.376118183135986" lon="11.244635581970215">
        <ele>165</ele>
        <time>2002-06-08T08:54:16Z</time>
      </trkpt>
      <trkpt lat="44.376161098480225" lon="11.244828701019287">
        <ele>164</ele>
        <time>2002-06-08T08:54:23Z</time>
      </trkpt>
      <trkpt lat="44.376096725463867" lon="11.244828701019287">
        <ele>164</ele>
        <time>2002-06-08T08:54:28Z</time>
      </trkpt>
      <trkpt lat="44.376161098480225" lon="11.245064735412598">
        <ele>160</ele>
        <time>2002-06-08T08:54:35Z</time>
      </trkpt>
      <trkpt lat="44.376225471496582" lon="11.245450973510742">
        <ele>156</ele>
        <time>2002-06-08T08:54:41Z</time>
      </trkpt>
      <trkpt lat="44.376225471496582" lon="11.245515262708068">
        <ele>156</ele>
        <time>2002-06-08T08:54:42Z</time>
      </trkpt>
      <trkpt lat="44.376246929168701" lon="11.245644092559814">
        <ele>154</ele>
        <time>2002-06-08T08:54:44Z</time>
      </trkpt>
      <trkpt lat="44.376311302185059" lon="11.245794296264648">
        <ele>152</ele>
        <time>2002-06-08T08:54:47Z</time>
      </trkpt>
      <trkpt lat="44.376311302185059" lon="11.245901584625244">
        <ele>151</ele>
        <time>2002-06-08T08:54:50Z</time>
      </trkpt>
      <trkpt lat="44.376204013824463" lon="11.245922958478332">
        <ele>151</ele>
        <time>2002-06-08T08:54:56Z</time>
      </trkpt>
      <trkpt lat="44.376139640808105" lon="11.246201992034912">
        <ele>150</ele>
        <time>2002-06-08T08:55:02Z</time>
      </trkpt>
      <trkpt lat="44.376118183135986" lon="11.246373737230897">
        <ele>149</ele>
        <time>2002-06-08T08:55:04Z</time>
      </trkpt>
      <trkpt lat="44.376139640808105" lon="11.246523940935731">
        <ele>148</ele>
        <time>2002-06-08T08:55:06Z</time>
      </trkpt>
      <trkpt lat="44.376161098480225" lon="11.246802806854248">
        <ele>146</ele>
        <time>2002-06-08T08:55:09Z</time>
      </trkpt>
      <trkpt lat="44.376204013824463" lon="11.247210502624512">
        <ele>144</ele>
        <time>2002-06-08T08:55:13Z</time>
      </trkpt>
      <trkpt lat="44.376246929168701" lon="11.247425079345703">
        <ele>141</ele>
        <time>2002-06-08T08:55:15Z</time>
      </trkpt>
      <trkpt lat="44.376289760693908" lon="11.247639739885926">
        <ele>140</ele>
        <time>2002-06-08T08:55:17Z</time>
      </trkpt>
      <trkpt lat="44.376332759857178" lon="11.247811317443848">
        <ele>139</ele>
        <time>2002-06-08T08:55:22Z</time>
      </trkpt>
      <trkpt lat="44.376096725463867" lon="11.247940063476563">
        <ele>140</ele>
        <time>2002-06-08T08:55:35Z</time>
      </trkpt>
      <trkpt lat="44.375603199005127" lon="11.248090267181396">
        <ele>141</ele>
        <time>2002-06-08T08:55:55Z</time>
      </trkpt>
      <trkpt lat="44.375302791595459" lon="11.248068809509277">
        <ele>142</ele>
        <time>2002-06-08T08:56:06Z</time>
      </trkpt>
      <trkpt lat="44.375173961743712" lon="11.248154640197754">
        <ele>142</ele>
        <time>2002-06-08T08:56:14Z</time>
      </trkpt>
      <trkpt lat="44.375088214874268" lon="11.248197639361024">
        <ele>143</ele>
        <time>2002-06-08T08:56:18Z</time>
      </trkpt>
      <trkpt lat="44.3747878074646" lon="11.248304760083556">
        <ele>141</ele>
        <time>2002-06-08T08:56:31Z</time>
      </trkpt>
      <trkpt lat="44.374766265973449" lon="11.248412132263184">
        <ele>142</ele>
        <time>2002-06-08T08:56:39Z</time>
      </trkpt>
      <trkpt lat="44.374659061431885" lon="11.248562335968018">
        <ele>143</ele>
        <time>2002-06-08T08:56:44Z</time>
      </trkpt>
      <trkpt lat="44.373929500579834" lon="11.249055862426758">
        <ele>143</ele>
        <time>2002-06-08T08:57:05Z</time>
      </trkpt>
      <trkpt lat="44.372577667236328" lon="11.250021541491151">
        <ele>140</ele>
        <time>2002-06-08T08:57:40Z</time>
      </trkpt>
      <trkpt lat="44.372513294219971" lon="11.250107288360596">
        <ele>139</ele>
        <time>2002-06-08T08:57:42Z</time>
      </trkpt>
      <trkpt lat="44.372427463531494" lon="11.250193119049072">
        <ele>137</ele>
        <time>2002-06-08T08:57:44Z</time>
      </trkpt>
      <trkpt lat="44.372298717498779" lon="11.250364780426025">
        <ele>134</ele>
        <time>2002-06-08T08:57:47Z</time>
      </trkpt>
      <trkpt lat="44.372212886810303" lon="11.250514984130859">
        <ele>131</ele>
        <time>2002-06-08T08:57:49Z</time>
      </trkpt>
      <trkpt lat="44.372148513793945" lon="11.250579440966249">
        <ele>131</ele>
        <time>2002-06-08T08:57:50Z</time>
      </trkpt>
      <trkpt lat="44.37204122543335" lon="11.250729560852051">
        <ele>127</ele>
        <time>2002-06-08T08:57:52Z</time>
      </trkpt>
      <trkpt lat="44.371998310089111" lon="11.250793933868408">
        <ele>127</ele>
        <time>2002-06-08T08:57:53Z</time>
      </trkpt>
      <trkpt lat="44.371891021728516" lon="11.250944137573242">
        <ele>124</ele>
        <time>2002-06-08T08:57:55Z</time>
      </trkpt>
      <trkpt lat="44.371826564893126" lon="11.251029968261719">
        <ele>124</ele>
        <time>2002-06-08T08:57:56Z</time>
      </trkpt>
      <trkpt lat="44.371719360351563" lon="11.251158714294434">
        <ele>122</ele>
        <time>2002-06-08T08:57:58Z</time>
      </trkpt>
      <trkpt lat="44.371612071990967" lon="11.251308917999268">
        <ele>119</ele>
        <time>2002-06-08T08:58:00Z</time>
      </trkpt>
      <trkpt lat="44.37152624130249" lon="11.251416206359863">
        <ele>114</ele>
        <time>2002-10-27T11:10:04Z</time>
      </trkpt>
      <trkpt lat="44.371333122253418" lon="11.251373291015625">
        <ele>114</ele>
        <time>2002-10-27T11:09:58Z</time>
      </trkpt>
      <trkpt lat="44.370989799499512" lon="11.251630783081055">
        <ele>113</ele>
        <time>2002-10-27T11:09:54Z</time>
      </trkpt>
      <trkpt lat="44.370796680450439" lon="11.25175952911377">
        <ele>115</ele>
        <time>2002-10-27T11:09:52Z</time>
      </trkpt>
      <trkpt lat="44.370496273040771" lon="11.251931190490723">
        <ele>120</ele>
        <time>2002-10-27T11:09:49Z</time>
      </trkpt>
      <trkpt lat="44.370195865631104" lon="11.252059936523437">
        <ele>124</ele>
        <time>2002-10-27T11:09:45Z</time>
      </trkpt>
      <trkpt lat="44.369466304779053" lon="11.252617835998535">
        <ele>128</ele>
        <time>2002-10-27T11:09:33Z</time>
      </trkpt>
      <trkpt lat="44.369359016418457" lon="11.252617835998535">
        <ele>129</ele>
        <time>2002-10-27T11:09:31Z</time>
      </trkpt>
      <trkpt lat="44.369251728057861" lon="11.252553462982178">
        <ele>130</ele>
        <time>2002-10-27T11:09:29Z</time>
      </trkpt>
      <trkpt lat="44.369208812713623" lon="11.252403259277344">
        <ele>132</ele>
        <time>2002-10-27T11:09:27Z</time>
      </trkpt>
      <trkpt lat="44.369359016418457" lon="11.252038478851318">
        <ele>136</ele>
        <time>2002-10-27T11:09:22Z</time>
      </trkpt>
      <trkpt lat="44.369401931762695" lon="11.25199556350708">
        <ele>136</ele>
        <time>2002-10-27T11:09:21Z</time>
      </trkpt>
      <trkpt lat="44.36927318572998" lon="11.251974105834961">
        <ele>140</ele>
        <time>2002-10-27T11:09:16Z</time>
      </trkpt>
      <trkpt lat="44.368994235992432" lon="11.251974105834961">
        <ele>143</ele>
        <time>2002-10-27T11:09:11Z</time>
      </trkpt>
      <trkpt lat="44.368650913238525" lon="11.251866817474365">
        <ele>145</ele>
        <time>2002-10-27T11:09:06Z</time>
      </trkpt>
      <trkpt lat="44.368457794189453" lon="11.251394664868712">
        <ele>146</ele>
        <time>2002-10-27T11:09:00Z</time>
      </trkpt>
      <trkpt lat="44.368264675140381" lon="11.250944137573242">
        <ele>148</ele>
        <time>2002-10-27T11:08:53Z</time>
      </trkpt>
      <trkpt lat="44.367728233337402" lon="11.250321865081787">
        <ele>148</ele>
        <time>2002-10-27T11:08:40Z</time>
      </trkpt>
      <trkpt lat="44.36753511428833" lon="11.250343322753906">
        <ele>149</ele>
        <time>2002-10-27T11:08:36Z</time>
      </trkpt>
      <trkpt lat="44.367320537567139" lon="11.250815391540527">
        <ele>151</ele>
        <time>2002-10-27T11:08:29Z</time>
      </trkpt>
      <trkpt lat="44.367127418518066" lon="11.250987136736512">
        <ele>151</ele>
        <time>2002-10-27T11:08:24Z</time>
      </trkpt>
      <trkpt lat="44.36652660369873" lon="11.251523494720459">
        <ele>152</ele>
        <time>2002-10-27T11:08:06Z</time>
      </trkpt>
      <trkpt lat="44.366247737780213" lon="11.251780986785889">
        <ele>152</ele>
        <time>2002-10-27T11:07:53Z</time>
      </trkpt>
      <trkpt lat="44.366247737780213" lon="11.251695239916444">
        <ele>152</ele>
        <time>2002-10-27T11:05:37Z</time>
      </trkpt>
      <trkpt lat="44.366183280944824" lon="11.25173807144165">
        <ele>153</ele>
        <time>2002-10-27T11:05:13Z</time>
      </trkpt>
      <trkpt lat="44.365968704223633" lon="11.251909732818604">
        <ele>154</ele>
        <time>2002-10-27T11:04:56Z</time>
      </trkpt>
      <trkpt lat="44.365346431732178" lon="11.252424716949463">
        <ele>162</ele>
        <time>2002-06-08T09:07:18Z</time>
      </trkpt>
      <trkpt lat="44.364831363782287" lon="11.252832412719727">
        <ele>165</ele>
        <time>2002-06-08T09:07:33Z</time>
      </trkpt>
      <trkpt lat="44.36457403935492" lon="11.253046989440918">
        <ele>165</ele>
        <time>2002-06-08T09:07:41Z</time>
      </trkpt>
      <trkpt lat="44.36429500579834" lon="11.252875328063965">
        <ele>163</ele>
        <time>2002-06-08T09:07:48Z</time>
      </trkpt>
      <trkpt lat="44.364209175109863" lon="11.252768039703369">
        <ele>161</ele>
        <time>2002-06-08T09:07:50Z</time>
      </trkpt>
      <trkpt lat="44.363887310028076" lon="11.252338886260986">
        <ele>157</ele>
        <time>2002-06-08T09:07:55Z</time>
      </trkpt>
      <trkpt lat="44.36378002166748" lon="11.252167224884033">
        <ele>157</ele>
        <time>2002-06-08T09:07:57Z</time>
      </trkpt>
      <trkpt lat="44.363308036699891" lon="11.251888275146484">
        <ele>159</ele>
        <time>2002-06-08T09:08:10Z</time>
      </trkpt>
      <trkpt lat="44.362621307373047" lon="11.251802360638976">
        <ele>156</ele>
        <time>2002-06-08T09:08:29Z</time>
      </trkpt>
      <trkpt lat="44.362492561340332" lon="11.251780986785889">
        <ele>155</ele>
        <time>2002-06-08T09:08:33Z</time>
      </trkpt>
      <trkpt lat="44.362664222717285" lon="11.25373363494873">
        <ele>159</ele>
        <time>2002-06-08T09:08:56Z</time>
      </trkpt>
      <trkpt lat="44.362642765045166" lon="11.253883838653564">
        <ele>160</ele>
        <time>2002-06-08T09:09:00Z</time>
      </trkpt>
      <trkpt lat="44.362578392028809" lon="11.253926837816834">
        <ele>162</ele>
        <time>2002-06-08T09:09:04Z</time>
      </trkpt>
      <trkpt lat="44.362728595733643" lon="11.254355907440186">
        <ele>165</ele>
        <time>2002-06-08T09:09:15Z</time>
      </trkpt>
      <trkpt lat="44.362750137224793" lon="11.254398822784424">
        <ele>165</ele>
        <time>2002-06-08T09:09:16Z</time>
      </trkpt>
      <trkpt lat="44.362771511077881" lon="11.25450611114502">
        <ele>166</ele>
        <time>2002-06-08T09:09:19Z</time>
      </trkpt>
      <trkpt lat="44.36253547668457" lon="11.254441738128662">
        <ele>168</ele>
        <time>2002-06-08T09:09:27Z</time>
      </trkpt>
      <trkpt lat="44.36234244145453" lon="11.254355907440186">
        <ele>169</ele>
        <time>2002-06-08T09:09:31Z</time>
      </trkpt>
      <trkpt lat="44.362170696258545" lon="11.254055500030518">
        <ele>173</ele>
        <time>2002-06-08T09:09:46Z</time>
      </trkpt>
      <trkpt lat="44.362149238586426" lon="11.253969669342041">
        <ele>175</ele>
        <time>2002-06-08T09:09:50Z</time>
      </trkpt>
      <trkpt lat="44.362042034044862" lon="11.253669261932373">
        <ele>178</ele>
        <time>2002-06-08T09:10:02Z</time>
      </trkpt>
      <trkpt lat="44.361956119537354" lon="11.253304481506348">
        <ele>181</ele>
        <time>2002-06-08T09:10:16Z</time>
      </trkpt>
      <trkpt lat="44.361827373504639" lon="11.252832412719727">
        <ele>185</ele>
        <time>2002-06-08T09:10:37Z</time>
      </trkpt>
      <trkpt lat="44.361677169799805" lon="11.252381801605225">
        <ele>188</ele>
        <time>2002-06-08T09:10:56Z</time>
      </trkpt>
      <trkpt lat="44.361441135406494" lon="11.251974105834961">
        <ele>191</ele>
        <time>2002-06-08T09:11:18Z</time>
      </trkpt>
      <trkpt lat="44.361376762390137" lon="11.251931190490723">
        <ele>192</ele>
        <time>2002-06-08T09:11:22Z</time>
      </trkpt>
      <trkpt lat="44.361183559522033" lon="11.251780986785889">
        <ele>194</ele>
        <time>2002-06-08T09:11:34Z</time>
      </trkpt>
      <trkpt lat="44.361205101013184" lon="11.251223087310791">
        <ele>198</ele>
        <time>2002-06-08T09:11:56Z</time>
      </trkpt>
      <trkpt lat="44.361205101013184" lon="11.250836765393615">
        <ele>201</ele>
        <time>2002-06-08T09:12:08Z</time>
      </trkpt>
      <trkpt lat="44.361119270324707" lon="11.250193119049072">
        <ele>202</ele>
        <time>2002-06-08T09:12:31Z</time>
      </trkpt>
      <trkpt lat="44.360990524291992" lon="11.249849796295166">
        <ele>205</ele>
        <time>2002-06-08T09:12:46Z</time>
      </trkpt>
      <trkpt lat="44.360926235094666" lon="11.249699592590332">
        <ele>207</ele>
        <time>2002-06-08T09:12:58Z</time>
      </trkpt>
      <trkpt lat="44.360904693603516" lon="11.249656677246094">
        <ele>208</ele>
        <time>2002-06-08T09:13:12Z</time>
      </trkpt>
      <trkpt lat="44.36079740524292" lon="11.249399185180664">
        <ele>211</ele>
        <time>2002-06-08T09:13:25Z</time>
      </trkpt>
      <trkpt lat="44.360647201538086" lon="11.248776912689209">
        <ele>214</ele>
        <time>2002-06-08T09:13:51Z</time>
      </trkpt>
      <trkpt lat="44.360518539324403" lon="11.248390674591064">
        <ele>213</ele>
        <time>2002-06-08T09:14:20Z</time>
      </trkpt>
      <trkpt lat="44.360454082489014" lon="11.249291896820068">
        <ele>215</ele>
        <time>2002-06-08T09:15:11Z</time>
      </trkpt>
      <trkpt lat="44.360411167144775" lon="11.249463558197021">
        <ele>218</ele>
        <time>2002-06-08T09:15:25Z</time>
      </trkpt>
      <trkpt lat="44.360110759735107" lon="11.249721134081483">
        <ele>222</ele>
        <time>2002-06-08T09:15:45Z</time>
      </trkpt>
      <trkpt lat="44.360091900452971" lon="11.250505931675434">
        <ele>240</ele>
        <time>2002-06-08T09:17:01Z</time>
      </trkpt>
      <trkpt lat="44.359941696748137" lon="11.252284236252308">
        <ele>275</ele>
        <time>2002-06-08T09:20:04Z</time>
      </trkpt>
      <trkpt lat="44.359606420621276" lon="11.252756305038929">
        <ele>275</ele>
        <time>2002-06-08T09:20:38Z</time>
      </trkpt>
      <trkpt lat="44.359413301572204" lon="11.252893097698689">
        <ele>275</ele>
        <time>2002-06-08T09:20:56Z</time>
      </trkpt>
      <trkpt lat="44.359316658228636" lon="11.253091581165791">
        <ele>270</ele>
        <time>2002-06-08T09:21:05Z</time>
      </trkpt>
      <trkpt lat="44.358930587768555" lon="11.251201629638672">
        <ele>326</ele>
        <time>2002-06-08T09:44:13Z</time>
      </trkpt>
      <trkpt lat="44.358866214752197" lon="11.251051425933838">
        <ele>330</ele>
        <time>2002-06-08T09:44:26Z</time>
      </trkpt>
      <trkpt lat="44.358866214752197" lon="11.2510085105896">
        <ele>329</ele>
        <time>2002-06-08T09:44:28Z</time>
      </trkpt>
      <trkpt lat="44.358823299407959" lon="11.250858306884766">
        <ele>333</ele>
        <time>2002-06-08T09:44:39Z</time>
      </trkpt>
      <trkpt lat="44.35880184173584" lon="11.250815391540527">
        <ele>333</ele>
        <time>2002-06-08T09:44:43Z</time>
      </trkpt>
      <trkpt lat="44.358780384063721" lon="11.250729560852051">
        <ele>334</ele>
        <time>2002-06-08T09:44:50Z</time>
      </trkpt>
      <trkpt lat="44.358608722686768" lon="11.250772476196289">
        <ele>335</ele>
        <time>2002-06-08T09:45:05Z</time>
      </trkpt>
      <trkpt lat="44.358544265851378" lon="11.250815391540527">
        <ele>336</ele>
        <time>2002-06-08T09:45:10Z</time>
      </trkpt>
      <trkpt lat="44.358351230621338" lon="11.250965595245361">
        <ele>335</ele>
        <time>2002-06-08T09:45:27Z</time>
      </trkpt>
      <trkpt lat="44.358072280883789" lon="11.251051425933838">
        <ele>335</ele>
        <time>2002-06-08T09:45:43Z</time>
      </trkpt>
      <trkpt lat="44.357814788818359" lon="11.250579440966249">
        <ele>338</ele>
        <time>2002-06-08T09:46:06Z</time>
      </trkpt>
      <trkpt lat="44.357578838244081" lon="11.250278865918517">
        <ele>339</ele>
        <time>2002-06-08T09:46:22Z</time>
      </trkpt>
      <trkpt lat="44.357450008392334" lon="11.249828338623047">
        <ele>343</ele>
        <time>2002-06-08T09:46:41Z</time>
      </trkpt>
      <trkpt lat="44.357278263196349" lon="11.249141693115234">
        <ele>345</ele>
        <time>2002-06-08T09:47:04Z</time>
      </trkpt>
      <trkpt lat="44.357149600982666" lon="11.248733997344971">
        <ele>349</ele>
        <time>2002-06-08T09:47:20Z</time>
      </trkpt>
      <trkpt lat="44.35704231262207" lon="11.24804743565619">
        <ele>349</ele>
        <time>2002-06-08T09:47:42Z</time>
      </trkpt>
      <trkpt lat="44.356849193572998" lon="11.247425079345703">
        <ele>352</ele>
        <time>2002-06-08T09:47:59Z</time>
      </trkpt>
      <trkpt lat="44.356784820556641" lon="11.246674060821533">
        <ele>352</ele>
        <time>2002-06-08T09:48:18Z</time>
      </trkpt>
      <trkpt lat="44.356570160016418" lon="11.245944499969482">
        <ele>349</ele>
        <time>2002-06-08T09:48:30Z</time>
      </trkpt>
      <trkpt lat="44.356334209442139" lon="11.245622634887695">
        <ele>347</ele>
        <time>2002-06-08T09:48:35Z</time>
      </trkpt>
      <trkpt lat="44.356226921081543" lon="11.24549388885498">
        <ele>346</ele>
        <time>2002-06-08T09:48:37Z</time>
      </trkpt>
      <trkpt lat="44.356098175048828" lon="11.245236396789551">
        <ele>344</ele>
        <time>2002-06-08T09:48:40Z</time>
      </trkpt>
      <trkpt lat="44.356162464246154" lon="11.244657039642334">
        <ele>341</ele>
        <time>2002-06-08T09:48:45Z</time>
      </trkpt>
      <trkpt lat="44.356119632720947" lon="11.244184970855713">
        <ele>338</ele>
        <time>2002-06-08T09:48:50Z</time>
      </trkpt>
      <trkpt lat="44.356098175048828" lon="11.243970394134521">
        <ele>334</ele>
        <time>2002-06-08T09:48:53Z</time>
      </trkpt>
      <trkpt lat="44.356098175048828" lon="11.243884563446045">
        <ele>334</ele>
        <time>2002-06-08T09:48:55Z</time>
      </trkpt>
      <trkpt lat="44.356076717376709" lon="11.243712902069092">
        <ele>333</ele>
        <time>2002-06-08T09:49:01Z</time>
      </trkpt>
      <trkpt lat="44.355840682983398" lon="11.243476867675781">
        <ele>336</ele>
        <time>2002-06-08T09:49:17Z</time>
      </trkpt>
      <trkpt lat="44.355711936950684" lon="11.243283664807677">
        <ele>339</ele>
        <time>2002-06-08T09:49:30Z</time>
      </trkpt>
      <trkpt lat="44.355647563934326" lon="11.243240833282471">
        <ele>340</ele>
        <time>2002-06-08T09:49:35Z</time>
      </trkpt>
      <trkpt lat="44.35556173324585" lon="11.243176460266113">
        <ele>342</ele>
        <time>2002-06-08T09:49:42Z</time>
      </trkpt>
      <trkpt lat="44.355335840955377" lon="11.243168329820037">
        <ele>351</ele>
        <time>2002-10-27T10:53:59Z</time>
      </trkpt>
      <trkpt lat="44.355185637250543" lon="11.24333999119699">
        <ele>352</ele>
        <time>2002-10-27T10:53:57Z</time>
      </trkpt>
      <trkpt lat="44.355013892054558" lon="11.243490194901824">
        <ele>352</ele>
        <time>2002-10-27T10:53:55Z</time>
      </trkpt>
      <trkpt lat="44.354928061366081" lon="11.243576025590301">
        <ele>353</ele>
        <time>2002-10-27T10:53:54Z</time>
      </trkpt>
      <trkpt lat="44.354649111628532" lon="11.243769060820341">
        <ele>357</ele>
        <time>2002-10-27T10:53:51Z</time>
      </trkpt>
      <trkpt lat="44.354563280940056" lon="11.243790602311492">
        <ele>359</ele>
        <time>2002-10-27T10:53:50Z</time>
      </trkpt>
      <trkpt lat="44.354262873530388" lon="11.243897890672088">
        <ele>361</ele>
        <time>2002-10-27T10:53:47Z</time>
      </trkpt>
      <trkpt lat="44.354091212153435" lon="11.244026636704803">
        <ele>361</ele>
        <time>2002-10-27T10:53:45Z</time>
      </trkpt>
      <trkpt lat="44.353254362940788" lon="11.2445845361799">
        <ele>364</ele>
        <time>2002-10-27T10:53:36Z</time>
      </trkpt>
      <trkpt lat="44.352632090449333" lon="11.245013689622283">
        <ele>368</ele>
        <time>2002-10-27T10:53:29Z</time>
      </trkpt>
      <trkpt lat="44.352052733302116" lon="11.245378470048308">
        <ele>372</ele>
        <time>2002-10-27T10:53:23Z</time>
      </trkpt>
      <trkpt lat="44.351773783564568" lon="11.245464300736785">
        <ele>375</ele>
        <time>2002-10-27T10:53:20Z</time>
      </trkpt>
      <trkpt lat="44.351065680384636" lon="11.245657419785857">
        <ele>376</ele>
        <time>2002-10-27T10:53:09Z</time>
      </trkpt>
      <trkpt lat="44.35067935846746" lon="11.245979284867644">
        <ele>377</ele>
        <time>2002-10-27T10:52:57Z</time>
      </trkpt>
      <trkpt lat="44.350143000483513" lon="11.246172403916717">
        <ele>376</ele>
        <time>2002-10-27T10:52:41Z</time>
      </trkpt>
      <trkpt lat="44.349906966090202" lon="11.246258234605193">
        <ele>376</ele>
        <time>2002-10-27T10:52:33Z</time>
      </trkpt>
      <trkpt lat="44.349499270319939" lon="11.246279692277312">
        <ele>375</ele>
        <time>2002-10-27T10:52:18Z</time>
      </trkpt>
      <trkpt lat="44.348984286189079" lon="11.246172403916717">
        <ele>373</ele>
        <time>2002-10-27T10:51:57Z</time>
      </trkpt>
      <trkpt lat="44.348662421107292" lon="11.246322607621551">
        <ele>370</ele>
        <time>2002-10-27T10:51:42Z</time>
      </trkpt>
      <trkpt lat="44.348362013697624" lon="11.246408438310027">
        <ele>367</ele>
        <time>2002-10-27T10:51:29Z</time>
      </trkpt>
      <trkpt lat="44.348297640681267" lon="11.246408438310027">
        <ele>365</ele>
        <time>2002-10-27T10:51:27Z</time>
      </trkpt>
      <trkpt lat="44.348040064796805" lon="11.246537184342742">
        <ele>363</ele>
        <time>2002-10-27T10:51:21Z</time>
      </trkpt>
      <trkpt lat="44.347932860255241" lon="11.246708761900663">
        <ele>362</ele>
        <time>2002-10-27T10:51:17Z</time>
      </trkpt>
      <trkpt lat="44.347804114222527" lon="11.246923422440886">
        <ele>359</ele>
        <time>2002-10-27T10:51:13Z</time>
      </trkpt>
      <trkpt lat="44.347610995173454" lon="11.247137999162078">
        <ele>358</ele>
        <time>2002-10-27T10:51:09Z</time>
      </trkpt>
      <trkpt lat="44.347396418452263" lon="11.247223829850554">
        <ele>358</ele>
        <time>2002-10-27T10:51:06Z</time>
      </trkpt>
      <trkpt lat="44.346988722681999" lon="11.247524237260222">
        <ele>360</ele>
        <time>2002-10-27T10:51:01Z</time>
      </trkpt>
      <trkpt lat="44.346817061305046" lon="11.247717272490263">
        <ele>362</ele>
        <time>2002-10-27T10:50:59Z</time>
      </trkpt>
      <trkpt lat="44.346495196223259" lon="11.247824560850859">
        <ele>367</ele>
        <time>2002-10-27T10:50:56Z</time>
      </trkpt>
      <trkpt lat="44.346280619502068" lon="11.247824560850859">
        <ele>370</ele>
        <time>2002-10-27T10:50:54Z</time>
      </trkpt>
      <trkpt lat="44.345915839076042" lon="11.247953390702605">
        <ele>373</ele>
        <time>2002-10-27T10:50:50Z</time>
      </trkpt>
      <trkpt lat="44.345658263191581" lon="11.248017763718963">
        <ele>376</ele>
        <time>2002-10-27T10:50:47Z</time>
      </trkpt>
      <trkpt lat="44.345357939600945" lon="11.247974764555693">
        <ele>380</ele>
        <time>2002-10-27T10:50:44Z</time>
      </trkpt>
      <trkpt lat="44.345250735059381" lon="11.247974764555693">
        <ele>382</ele>
        <time>2002-10-27T10:50:43Z</time>
      </trkpt>
      <trkpt lat="44.345143362879753" lon="11.248017763718963">
        <ele>382</ele>
        <time>2002-10-27T10:50:42Z</time>
      </trkpt>
      <trkpt lat="44.344843039289117" lon="11.248124968260527">
        <ele>386</ele>
        <time>2002-10-27T10:50:39Z</time>
      </trkpt>
      <trkpt lat="44.344499632716179" lon="11.248361086472869">
        <ele>391</ele>
        <time>2002-10-27T10:50:35Z</time>
      </trkpt>
      <trkpt lat="44.344456717371941" lon="11.248446917161345">
        <ele>392</ele>
        <time>2002-10-27T10:50:34Z</time>
      </trkpt>
      <trkpt lat="44.344285139814019" lon="11.248747324571013">
        <ele>397</ele>
        <time>2002-10-27T10:50:31Z</time>
      </trkpt>
      <trkpt lat="44.344091936945915" lon="11.249047731980681">
        <ele>401</ele>
        <time>2002-10-27T10:50:28Z</time>
      </trkpt>
      <trkpt lat="44.343984564766288" lon="11.249240767210722">
        <ele>404</ele>
        <time>2002-10-27T10:50:26Z</time>
      </trkpt>
      <trkpt lat="44.343684241175652" lon="11.24982020817697">
        <ele>411</ele>
        <time>2002-10-27T10:50:21Z</time>
      </trkpt>
      <trkpt lat="44.343619868159294" lon="11.249927496537566">
        <ele>412</ele>
        <time>2002-10-27T10:50:20Z</time>
      </trkpt>
      <trkpt lat="44.34346966445446" lon="11.250163530930877">
        <ele>416</ele>
        <time>2002-10-27T10:50:18Z</time>
      </trkpt>
      <trkpt lat="44.343298003077507" lon="11.250378107652068">
        <ele>420</ele>
        <time>2002-10-27T10:50:16Z</time>
      </trkpt>
      <trkpt lat="44.343083426356316" lon="11.250614058226347">
        <ele>423</ele>
        <time>2002-10-27T10:50:13Z</time>
      </trkpt>
      <trkpt lat="44.342911764979362" lon="11.250742888078094">
        <ele>427</ele>
        <time>2002-10-27T10:50:10Z</time>
      </trkpt>
      <trkpt lat="44.342825934290886" lon="11.250807177275419">
        <ele>431</ele>
        <time>2002-10-27T10:50:08Z</time>
      </trkpt>
      <trkpt lat="44.342675730586052" lon="11.250914465636015">
        <ele>436</ele>
        <time>2002-10-27T10:50:06Z</time>
      </trkpt>
      <trkpt lat="44.342525526881218" lon="11.251021837815642">
        <ele>440</ele>
        <time>2002-10-27T10:50:04Z</time>
      </trkpt>
      <trkpt lat="44.342353865504265" lon="11.251129126176238">
        <ele>441</ele>
        <time>2002-10-27T10:50:02Z</time>
      </trkpt>
      <trkpt lat="44.342203661799431" lon="11.251193499192595">
        <ele>443</ele>
        <time>2002-10-27T10:50:00Z</time>
      </trkpt>
      <trkpt lat="44.341817423701286" lon="11.251236414536834">
        <ele>447</ele>
        <time>2002-10-27T10:49:54Z</time>
      </trkpt>
      <trkpt lat="44.341753134503961" lon="11.251257872208953">
        <ele>447</ele>
        <time>2002-10-27T10:49:53Z</time>
      </trkpt>
      <trkpt lat="44.341624304652214" lon="11.251257872208953">
        <ele>449</ele>
        <time>2002-10-27T10:49:50Z</time>
      </trkpt>
      <trkpt lat="44.341323897242546" lon="11.251214873045683">
        <ele>451</ele>
        <time>2002-10-27T10:49:46Z</time>
      </trkpt>
      <trkpt lat="44.341044863685966" lon="11.251214873045683">
        <ele>453</ele>
        <time>2002-10-27T10:49:42Z</time>
      </trkpt>
      <trkpt lat="44.340358301997185" lon="11.251536821946502">
        <ele>456</ele>
        <time>2002-10-27T10:49:31Z</time>
      </trkpt>
      <trkpt lat="44.339993521571159" lon="11.251794314011931">
        <ele>456</ele>
        <time>2002-10-27T10:49:26Z</time>
      </trkpt>
      <trkpt lat="44.339693114161491" lon="11.251965975388885">
        <ele>461</ele>
        <time>2002-10-27T10:49:22Z</time>
      </trkpt>
      <trkpt lat="44.339607283473015" lon="11.25207326374948">
        <ele>462</ele>
        <time>2002-10-27T10:49:20Z</time>
      </trkpt>
      <trkpt lat="44.339564368128777" lon="11.252116179093719">
        <ele>463</ele>
        <time>2002-10-27T10:49:19Z</time>
      </trkpt>
      <trkpt lat="44.339499995112419" lon="11.252159094437957">
        <ele>464</ele>
        <time>2002-10-27T10:49:17Z</time>
      </trkpt>
      <trkpt lat="44.339435622096062" lon="11.252223467454314">
        <ele>468</ele>
        <time>2002-10-27T10:49:15Z</time>
      </trkpt>
      <trkpt lat="44.339306876063347" lon="11.252309298142791">
        <ele>470</ele>
        <time>2002-10-27T10:49:11Z</time>
      </trkpt>
      <trkpt lat="44.339220961555839" lon="11.252373671159148">
        <ele>472</ele>
        <time>2002-10-27T10:49:08Z</time>
      </trkpt>
      <trkpt lat="44.338899180293083" lon="11.252652620896697">
        <ele>475</ele>
        <time>2002-10-27T10:48:56Z</time>
      </trkpt>
      <trkpt lat="44.338663062080741" lon="11.252759909257293">
        <ele>477</ele>
        <time>2002-10-27T10:48:53Z</time>
      </trkpt>
      <trkpt lat="44.33849148452282" lon="11.252802824601531">
        <ele>480</ele>
        <time>2002-10-27T10:48:51Z</time>
      </trkpt>
      <trkpt lat="44.338276907801628" lon="11.252781366929412">
        <ele>486</ele>
        <time>2002-10-27T10:48:48Z</time>
      </trkpt>
      <trkpt lat="44.338062331080437" lon="11.252631163224578">
        <ele>492</ele>
        <time>2002-10-27T10:48:44Z</time>
      </trkpt>
      <trkpt lat="44.33797650039196" lon="11.252502417191863">
        <ele>494</ele>
        <time>2002-10-27T10:48:42Z</time>
      </trkpt>
      <trkpt lat="44.337804839015007" lon="11.252266382798553">
        <ele>497</ele>
        <time>2002-10-27T10:48:39Z</time>
      </trkpt>
      <trkpt lat="44.337633177638054" lon="11.25203026458621">
        <ele>499</ele>
        <time>2002-10-27T10:48:36Z</time>
      </trkpt>
      <trkpt lat="44.33722548186779" lon="11.251622568815947">
        <ele>500</ele>
        <time>2002-10-27T10:48:24Z</time>
      </trkpt>
      <trkpt lat="44.336925074458122" lon="11.251450991258025">
        <ele>500</ele>
        <time>2002-10-27T10:48:15Z</time>
      </trkpt>
      <trkpt lat="44.336453005671501" lon="11.251021837815642">
        <ele>501</ele>
        <time>2002-10-27T10:48:02Z</time>
      </trkpt>
      <trkpt lat="44.336259886622429" lon="11.250635599717498">
        <ele>498</ele>
        <time>2002-10-27T10:47:47Z</time>
      </trkpt>
      <trkpt lat="44.336088225245476" lon="11.250421022996306">
        <ele>500</ele>
        <time>2002-10-27T10:47:42Z</time>
      </trkpt>
      <trkpt lat="44.335852190852165" lon="11.250184988602996">
        <ele>504</ele>
        <time>2002-10-27T10:47:39Z</time>
      </trkpt>
      <trkpt lat="44.335723361000419" lon="11.250034784898162">
        <ele>507</ele>
        <time>2002-10-27T10:47:37Z</time>
      </trkpt>
      <trkpt lat="44.335551783442497" lon="11.24979866668582">
        <ele>512</ele>
        <time>2002-10-27T10:47:33Z</time>
      </trkpt>
      <trkpt lat="44.335466036573052" lon="11.249627089127898">
        <ele>513</ele>
        <time>2002-10-27T10:47:31Z</time>
      </trkpt>
      <trkpt lat="44.335401579737663" lon="11.249369597062469">
        <ele>514</ele>
        <time>2002-10-27T10:47:28Z</time>
      </trkpt>
      <trkpt lat="44.335380122065544" lon="11.249219393357635">
        <ele>515</ele>
        <time>2002-10-27T10:47:25Z</time>
      </trkpt>
      <trkpt lat="44.335337206721306" lon="11.249026274308562">
        <ele>513</ele>
        <time>2002-10-27T10:47:21Z</time>
      </trkpt>
      <trkpt lat="44.335315665230155" lon="11.248897528275847">
        <ele>512</ele>
        <time>2002-10-27T10:47:19Z</time>
      </trkpt>
      <trkpt lat="44.335272833704948" lon="11.248661493882537">
        <ele>509</ele>
        <time>2002-10-27T10:47:15Z</time>
      </trkpt>
      <trkpt lat="44.335101172327995" lon="11.248296713456511">
        <ele>509</ele>
        <time>2002-10-27T10:47:10Z</time>
      </trkpt>
      <trkpt lat="44.334865137934685" lon="11.248039221391082">
        <ele>508</ele>
        <time>2002-10-27T10:47:06Z</time>
      </trkpt>
      <trkpt lat="44.334521815180779" lon="11.247910475358367">
        <ele>508</ele>
        <time>2002-10-27T10:47:02Z</time>
      </trkpt>
      <trkpt lat="44.334157034754753" lon="11.247781729325652">
        <ele>510</ele>
        <time>2002-10-27T10:46:58Z</time>
      </trkpt>
      <trkpt lat="44.333878085017204" lon="11.247717272490263">
        <ele>513</ele>
        <time>2002-10-27T10:46:55Z</time>
      </trkpt>
      <trkpt lat="44.333599135279655" lon="11.247545694932342">
        <ele>514</ele>
        <time>2002-10-27T10:46:51Z</time>
      </trkpt>
      <trkpt lat="44.333470389246941" lon="11.247481321915984">
        <ele>515</ele>
        <time>2002-10-27T10:46:49Z</time>
      </trkpt>
      <trkpt lat="44.333427473902702" lon="11.247481321915984">
        <ele>516</ele>
        <time>2002-10-27T10:46:48Z</time>
      </trkpt>
      <trkpt lat="44.332354590296745" lon="11.247717272490263">
        <ele>517</ele>
        <time>2002-10-27T10:46:25Z</time>
      </trkpt>
      <trkpt lat="44.332140013575554" lon="11.247867476195097">
        <ele>519</ele>
        <time>2002-10-27T10:46:19Z</time>
      </trkpt>
      <trkpt lat="44.331903979182243" lon="11.247889017686248">
        <ele>519</ele>
        <time>2002-10-27T10:46:07Z</time>
      </trkpt>
      <trkpt lat="44.331882521510124" lon="11.247889017686248">
        <ele>519</ele>
        <time>2002-10-27T10:46:06Z</time>
      </trkpt>
      <trkpt lat="44.331710860133171" lon="11.247502779588103">
        <ele>516</ele>
        <time>2002-10-27T10:45:51Z</time>
      </trkpt>
      <trkpt lat="44.331410536542535" lon="11.246987795457244">
        <ele>513</ele>
        <time>2002-10-27T10:45:31Z</time>
      </trkpt>
      <trkpt lat="44.331152960658073" lon="11.246408438310027">
        <ele>511</ele>
        <time>2002-10-27T10:45:12Z</time>
      </trkpt>
      <trkpt lat="44.331131502985954" lon="11.246236776933074">
        <ele>509</ele>
        <time>2002-10-27T10:45:06Z</time>
      </trkpt>
      <trkpt lat="44.331195876002312" lon="11.246150862425566">
        <ele>508</ele>
        <time>2002-10-27T10:45:03Z</time>
      </trkpt>
      <trkpt lat="44.331474825739861" lon="11.245914911851287">
        <ele>506</ele>
        <time>2002-10-27T10:44:54Z</time>
      </trkpt>
      <trkpt lat="44.331517741084099" lon="11.245786165818572">
        <ele>505</ele>
        <time>2002-10-27T10:44:52Z</time>
      </trkpt>
      <trkpt lat="44.331582114100456" lon="11.245464300736785">
        <ele>504</ele>
        <time>2002-10-27T10:44:48Z</time>
      </trkpt>
      <trkpt lat="44.331818064674735" lon="11.244713282212615">
        <ele>507</ele>
        <time>2002-10-27T10:44:41Z</time>
      </trkpt>
      <trkpt lat="44.331839606165886" lon="11.244133925065398">
        <ele>510</ele>
        <time>2002-10-27T10:44:36Z</time>
      </trkpt>
      <trkpt lat="44.331710860133171" lon="11.243790602311492">
        <ele>515</ele>
        <time>2002-10-27T10:44:33Z</time>
      </trkpt>
      <trkpt lat="44.331625029444695" lon="11.243490194901824">
        <ele>519</ele>
        <time>2002-10-27T10:44:30Z</time>
      </trkpt>
      <trkpt lat="44.331517741084099" lon="11.243168329820037">
        <ele>523</ele>
        <time>2002-10-27T10:44:27Z</time>
      </trkpt>
      <trkpt lat="44.331410536542535" lon="11.242932295426726">
        <ele>527</ele>
        <time>2002-10-27T10:44:24Z</time>
      </trkpt>
      <trkpt lat="44.331346079707146" lon="11.242760634049773">
        <ele>531</ele>
        <time>2002-10-27T10:44:22Z</time>
      </trkpt>
      <trkpt lat="44.33123879134655" lon="11.242481684312224">
        <ele>535</ele>
        <time>2002-10-27T10:44:18Z</time>
      </trkpt>
      <trkpt lat="44.33123879134655" lon="11.242417311295867">
        <ele>536</ele>
        <time>2002-10-27T10:44:17Z</time>
      </trkpt>
      <trkpt lat="44.331152960658073" lon="11.242267107591033">
        <ele>540</ele>
        <time>2002-10-27T10:44:14Z</time>
      </trkpt>
      <trkpt lat="44.331067129969597" lon="11.242116903886199">
        <ele>542</ele>
        <time>2002-10-27T10:44:11Z</time>
      </trkpt>
      <trkpt lat="44.330916926264763" lon="11.241945158690214">
        <ele>546</ele>
        <time>2002-10-27T10:44:07Z</time>
      </trkpt>
      <trkpt lat="44.330766722559929" lon="11.241687666624784">
        <ele>551</ele>
        <time>2002-10-27T10:44:03Z</time>
      </trkpt>
      <trkpt lat="44.330616518855095" lon="11.24153746291995">
        <ele>554</ele>
        <time>2002-10-27T10:44:00Z</time>
      </trkpt>
      <trkpt lat="44.330444941297174" lon="11.241279970854521">
        <ele>557</ele>
        <time>2002-10-27T10:43:56Z</time>
      </trkpt>
      <trkpt lat="44.33023028075695" lon="11.24108693562448">
        <ele>559</ele>
        <time>2002-10-27T10:43:51Z</time>
      </trkpt>
      <trkpt lat="44.329929873347282" lon="11.240807985886931">
        <ele>561</ele>
        <time>2002-10-27T10:40:12Z</time>
      </trkpt>
      <trkpt lat="44.329393431544304" lon="11.240443205460906">
        <ele>561</ele>
        <time>2002-10-27T10:39:56Z</time>
      </trkpt>
      <trkpt lat="44.329307600855827" lon="11.240421663969755">
        <ele>562</ele>
        <time>2002-10-27T10:39:54Z</time>
      </trkpt>
      <trkpt lat="44.328621039167047" lon="11.240636324509978">
        <ele>564</ele>
        <time>2002-10-27T10:39:36Z</time>
      </trkpt>
      <trkpt lat="44.32823471724987" lon="11.24085090123117">
        <ele>563</ele>
        <time>2002-10-27T10:39:23Z</time>
      </trkpt>
      <trkpt lat="44.327934309840202" lon="11.240936731919646">
        <ele>565</ele>
        <time>2002-10-27T10:39:10Z</time>
      </trkpt>
      <trkpt lat="44.3274836987257" lon="11.241044020280242">
        <ele>568</ele>
        <time>2002-10-27T10:38:58Z</time>
      </trkpt>
      <trkpt lat="44.327290579676628" lon="11.241022562608123">
        <ele>567</ele>
        <time>2002-10-27T10:38:54Z</time>
      </trkpt>
      <trkpt lat="44.32699017226696" lon="11.240893816575408">
        <ele>567</ele>
        <time>2002-10-27T10:38:45Z</time>
      </trkpt>
      <trkpt lat="44.326818510890007" lon="11.240807985886931">
        <ele>565</ele>
        <time>2002-10-27T10:38:40Z</time>
      </trkpt>
      <trkpt lat="44.326625391840935" lon="11.240421663969755">
        <ele>565</ele>
        <time>2002-10-27T10:38:33Z</time>
      </trkpt>
      <trkpt lat="44.326561018824577" lon="11.240207171067595">
        <ele>566</ele>
        <time>2002-10-27T10:38:29Z</time>
      </trkpt>
      <trkpt lat="44.326389441266656" lon="11.239649271592498">
        <ele>567</ele>
        <time>2002-10-27T10:38:17Z</time>
      </trkpt>
      <trkpt lat="44.326324984431267" lon="11.239327406510711">
        <ele>568</ele>
        <time>2002-10-27T10:38:11Z</time>
      </trkpt>
      <trkpt lat="44.326282069087029" lon="11.239220118150115">
        <ele>569</ele>
        <time>2002-10-27T10:38:09Z</time>
      </trkpt>
      <trkpt lat="44.32600311934948" lon="11.238683676347136">
        <ele>570</ele>
        <time>2002-10-27T10:37:57Z</time>
      </trkpt>
      <trkpt lat="44.325788458809257" lon="11.238469099625945">
        <ele>567</ele>
        <time>2002-10-27T10:37:50Z</time>
      </trkpt>
      <trkpt lat="44.325681338086724" lon="11.238361811265349">
        <ele>569</ele>
        <time>2002-10-27T10:37:47Z</time>
      </trkpt>
      <trkpt lat="44.325509592890739" lon="11.23810431919992">
        <ele>574</ele>
        <time>2002-10-27T10:37:43Z</time>
      </trkpt>
      <trkpt lat="44.325423762202263" lon="11.237889658659697">
        <ele>576</ele>
        <time>2002-10-27T10:37:39Z</time>
      </trkpt>
      <trkpt lat="44.325199127197266" lon="11.237468719482422">
        <ele>575</ele>
        <time>2002-10-27T09:17:35Z</time>
      </trkpt>
      <trkpt lat="44.325199127197266" lon="11.236932277679443">
        <ele>577</ele>
        <time>2002-10-27T09:17:54Z</time>
      </trkpt>
      <trkpt lat="44.325306415557861" lon="11.236374378204346">
        <ele>576</ele>
        <time>2002-10-27T09:18:09Z</time>
      </trkpt>
      <trkpt lat="44.325177669525146" lon="11.235966682434082">
        <ele>574</ele>
        <time>2002-10-27T09:18:15Z</time>
      </trkpt>
      <trkpt lat="44.325156211853027" lon="11.235558986663818">
        <ele>573</ele>
        <time>2002-10-27T09:18:19Z</time>
      </trkpt>
      <trkpt lat="44.325177669525146" lon="11.235387325286865">
        <ele>573</ele>
        <time>2002-10-27T09:18:21Z</time>
      </trkpt>
      <trkpt lat="44.325156211853027" lon="11.234829425811768">
        <ele>573</ele>
        <time>2002-10-27T09:18:28Z</time>
      </trkpt>
      <trkpt lat="44.324898719787598" lon="11.234099864959717">
        <ele>576</ele>
        <time>2002-10-27T09:18:43Z</time>
      </trkpt>
      <trkpt lat="44.324512481689453" lon="11.233413219451904">
        <ele>574</ele>
        <time>2002-10-27T09:19:00Z</time>
      </trkpt>
      <trkpt lat="44.324469566345215" lon="11.233348762616515">
        <ele>573</ele>
        <time>2002-10-27T09:19:01Z</time>
      </trkpt>
      <trkpt lat="44.324362277984619" lon="11.233177185058594">
        <ele>569</ele>
        <time>2002-10-27T09:19:03Z</time>
      </trkpt>
      <trkpt lat="44.324233531951904" lon="11.232962608337402">
        <ele>565</ele>
        <time>2002-10-27T09:19:06Z</time>
      </trkpt>
      <trkpt lat="44.32408332824707" lon="11.23276948928833">
        <ele>562</ele>
        <time>2002-10-27T09:19:09Z</time>
      </trkpt>
      <trkpt lat="44.323954582214355" lon="11.232554912567139">
        <ele>560</ele>
        <time>2002-10-27T09:19:12Z</time>
      </trkpt>
      <trkpt lat="44.323461139574647" lon="11.231567859649658">
        <ele>557</ele>
        <time>2002-10-27T09:19:27Z</time>
      </trkpt>
      <trkpt lat="44.323439598083496" lon="11.231503486633301">
        <ele>558</ele>
        <time>2002-10-27T09:19:29Z</time>
      </trkpt>
      <trkpt lat="44.323439598083496" lon="11.231482028961182">
        <ele>559</ele>
        <time>2002-10-27T09:19:31Z</time>
      </trkpt>
      <trkpt lat="44.323375225067139" lon="11.231288909912109">
        <ele>562</ele>
        <time>2002-10-27T09:19:44Z</time>
      </trkpt>
      <trkpt lat="44.323375225067139" lon="11.231224536895752">
        <ele>563</ele>
        <time>2002-10-27T09:20:01Z</time>
      </trkpt>
      <trkpt lat="44.323375225067139" lon="11.231203079223633">
        <ele>563</ele>
        <time>2002-10-27T09:20:02Z</time>
      </trkpt>
      <trkpt lat="44.323246479034424" lon="11.230709636583924">
        <ele>566</ele>
        <time>2002-10-27T09:20:27Z</time>
      </trkpt>
      <trkpt lat="44.322946071624756" lon="11.230108737945557">
        <ele>569</ele>
        <time>2002-10-27T09:20:47Z</time>
      </trkpt>
      <trkpt lat="44.322774410247803" lon="11.229593837633729">
        <ele>565</ele>
        <time>2002-10-27T09:20:58Z</time>
      </trkpt>
      <trkpt lat="44.322731494903564" lon="11.229465007781982">
        <ele>563</ele>
        <time>2002-10-27T09:21:00Z</time>
      </trkpt>
      <trkpt lat="44.322710037231445" lon="11.229336261749268">
        <ele>562</ele>
        <time>2002-10-27T09:21:02Z</time>
      </trkpt>
      <trkpt lat="44.32258129119873" lon="11.228928565979004">
        <ele>563</ele>
        <time>2002-10-27T09:21:08Z</time>
      </trkpt>
      <trkpt lat="44.322516918182373" lon="11.228799819946289">
        <ele>562</ele>
        <time>2002-10-27T09:21:10Z</time>
      </trkpt>
      <trkpt lat="44.322323799133301" lon="11.228478038683534">
        <ele>560</ele>
        <time>2002-10-27T09:21:15Z</time>
      </trkpt>
      <trkpt lat="44.322259426116943" lon="11.228413581848145">
        <ele>558</ele>
        <time>2002-10-27T09:21:17Z</time>
      </trkpt>
      <trkpt lat="44.322237968444824" lon="11.228392124176025">
        <ele>558</ele>
        <time>2002-10-27T09:21:18Z</time>
      </trkpt>
      <trkpt lat="44.322130680084229" lon="11.228177463635802">
        <ele>556</ele>
        <time>2002-10-27T09:21:22Z</time>
      </trkpt>
      <trkpt lat="44.322023391723633" lon="11.227898597717285">
        <ele>552</ele>
        <time>2002-10-27T09:21:26Z</time>
      </trkpt>
      <trkpt lat="44.321937561035156" lon="11.227769935503602">
        <ele>551</ele>
        <time>2002-10-27T09:21:28Z</time>
      </trkpt>
      <trkpt lat="44.321830272674561" lon="11.227576732635498">
        <ele>549</ele>
        <time>2002-10-27T09:21:32Z</time>
      </trkpt>
      <trkpt lat="44.321787441149354" lon="11.227512359619141">
        <ele>549</ele>
        <time>2002-10-27T09:21:33Z</time>
      </trkpt>
      <trkpt lat="44.321680068969727" lon="11.227083206176758">
        <ele>546</ele>
        <time>2002-10-27T09:21:39Z</time>
      </trkpt>
      <trkpt lat="44.321680068969727" lon="11.226933002471924">
        <ele>546</ele>
        <time>2002-10-27T09:21:41Z</time>
      </trkpt>
      <trkpt lat="44.32159423828125" lon="11.226804340258241">
        <ele>544</ele>
        <time>2002-10-27T09:21:44Z</time>
      </trkpt>
      <trkpt lat="44.321551322937012" lon="11.22678279876709">
        <ele>544</ele>
        <time>2002-10-27T09:21:45Z</time>
      </trkpt>
      <trkpt lat="44.321315288543701" lon="11.226589679718018">
        <ele>540</ele>
        <time>2002-10-27T09:21:50Z</time>
      </trkpt>
      <trkpt lat="44.321186458691955" lon="11.226482391357422">
        <ele>539</ele>
        <time>2002-10-27T09:21:52Z</time>
      </trkpt>
      <trkpt lat="44.321036338806152" lon="11.226396560668945">
        <ele>537</ele>
        <time>2002-10-27T09:21:55Z</time>
      </trkpt>
      <trkpt lat="44.320929134264588" lon="11.226396560668945">
        <ele>536</ele>
        <time>2002-10-27T09:21:57Z</time>
      </trkpt>
      <trkpt lat="44.32084321975708" lon="11.226246440783143">
        <ele>536</ele>
        <time>2002-10-27T09:22:01Z</time>
      </trkpt>
      <trkpt lat="44.320757389068604" lon="11.226139068603516">
        <ele>537</ele>
        <time>2002-10-27T09:22:03Z</time>
      </trkpt>
      <trkpt lat="44.320628559216857" lon="11.225881576538086">
        <ele>537</ele>
        <time>2002-10-27T09:22:07Z</time>
      </trkpt>
      <trkpt lat="44.320542812347412" lon="11.225688541308045">
        <ele>537</ele>
        <time>2002-10-27T09:22:15Z</time>
      </trkpt>
      <trkpt lat="44.320456981658936" lon="11.225430965423584">
        <ele>541</ele>
        <time>2002-10-27T09:22:31Z</time>
      </trkpt>
      <trkpt lat="44.320199489593506" lon="11.225130641832948">
        <ele>539</ele>
        <time>2002-10-27T09:22:43Z</time>
      </trkpt>
      <trkpt lat="44.320006370544434" lon="11.224894523620605">
        <ele>536</ele>
        <time>2002-10-27T09:22:50Z</time>
      </trkpt>
      <trkpt lat="44.319641590118408" lon="11.224143505096436">
        <ele>533</ele>
        <time>2002-10-27T09:23:04Z</time>
      </trkpt>
      <trkpt lat="44.319105064496398" lon="11.223092079162598">
        <ele>530</ele>
        <time>2002-10-27T09:23:23Z</time>
      </trkpt>
      <trkpt lat="44.319062232971191" lon="11.222984790802002">
        <ele>531</ele>
        <time>2002-10-27T09:23:25Z</time>
      </trkpt>
      <trkpt lat="44.318697536364198" lon="11.222813129425049">
        <ele>534</ele>
        <time>2002-10-27T09:23:35Z</time>
      </trkpt>
      <trkpt lat="44.318461418151855" lon="11.222426891326904">
        <ele>536</ele>
        <time>2002-10-27T09:23:47Z</time>
      </trkpt>
      <trkpt lat="44.3181396368891" lon="11.222105026245117">
        <ele>537</ele>
        <time>2002-10-27T09:23:59Z</time>
      </trkpt>
      <trkpt lat="44.318053722381592" lon="11.222083568572998">
        <ele>539</ele>
        <time>2002-10-27T09:24:07Z</time>
      </trkpt>
      <trkpt lat="44.317903518676758" lon="11.222040737047791">
        <ele>543</ele>
        <time>2002-10-27T09:24:20Z</time>
      </trkpt>
      <trkpt lat="44.317903518676758" lon="11.222040737047791">
        <ele>543</ele>
        <time>2002-10-27T09:24:21Z</time>
      </trkpt>
      <trkpt lat="44.317710399627686" lon="11.221911907196045">
        <ele>545</ele>
        <time>2002-10-27T09:24:37Z</time>
      </trkpt>
      <trkpt lat="44.317646026611328" lon="11.221589958295226">
        <ele>546</ele>
        <time>2002-10-27T09:24:53Z</time>
      </trkpt>
      <trkpt lat="44.317646026611328" lon="11.221439838409424">
        <ele>545</ele>
        <time>2002-10-27T09:24:57Z</time>
      </trkpt>
      <trkpt lat="44.317646026611328" lon="11.221354007720947">
        <ele>542</ele>
        <time>2002-10-27T09:25:00Z</time>
      </trkpt>
      <trkpt lat="44.317667484283447" lon="11.221117973327637">
        <ele>539</ele>
        <time>2002-10-27T09:25:06Z</time>
      </trkpt>
      <trkpt lat="44.317667484283447" lon="11.22107514180243">
        <ele>539</ele>
        <time>2002-10-27T09:25:07Z</time>
      </trkpt>
      <trkpt lat="44.31786060333252" lon="11.220152378082275">
        <ele>536</ele>
        <time>2002-10-27T09:25:29Z</time>
      </trkpt>
      <trkpt lat="44.31786060333252" lon="11.219851970672607">
        <ele>533</ele>
        <time>2002-10-27T09:25:38Z</time>
      </trkpt>
      <trkpt lat="44.317839061841369" lon="11.219723224639893">
        <ele>530</ele>
        <time>2002-10-27T09:25:42Z</time>
      </trkpt>
      <trkpt lat="44.31786060333252" lon="11.219401359558105">
        <ele>526</ele>
        <time>2002-10-27T09:25:52Z</time>
      </trkpt>
      <trkpt lat="44.31786060333252" lon="11.219336986541748">
        <ele>526</ele>
        <time>2002-10-27T09:25:53Z</time>
      </trkpt>
      <trkpt lat="44.317839061841369" lon="11.219079494476318">
        <ele>524</ele>
        <time>2002-10-27T09:25:59Z</time>
      </trkpt>
      <trkpt lat="44.317796230316162" lon="11.218607425689697">
        <ele>525</ele>
        <time>2002-10-27T09:26:08Z</time>
      </trkpt>
      <trkpt lat="44.317753314971924" lon="11.218457221984863">
        <ele>527</ele>
        <time>2002-10-27T09:26:11Z</time>
      </trkpt>
      <trkpt lat="44.317624568939209" lon="11.218135440722108">
        <ele>525</ele>
        <time>2002-10-27T09:26:21Z</time>
      </trkpt>
      <trkpt lat="44.317538738250732" lon="11.217255592346191">
        <ele>527</ele>
        <time>2002-10-27T09:26:50Z</time>
      </trkpt>
      <trkpt lat="44.318504333496094" lon="11.21654748916626">
        <ele>528</ele>
        <time>2002-10-27T09:27:07Z</time>
      </trkpt>
      <trkpt lat="44.318633079528809" lon="11.216418659314513">
        <ele>531</ele>
        <time>2002-10-27T09:27:18Z</time>
      </trkpt>
      <trkpt lat="44.318568706512451" lon="11.2160325050354">
        <ele>534</ele>
        <time>2002-10-27T09:27:41Z</time>
      </trkpt>
      <trkpt lat="44.318568706512451" lon="11.21601096354425">
        <ele>533</ele>
        <time>2002-10-27T09:27:42Z</time>
      </trkpt>
      <trkpt lat="44.318675994873047" lon="11.215732097625732">
        <ele>537</ele>
        <time>2002-10-27T09:28:00Z</time>
      </trkpt>
      <trkpt lat="44.318654537200928" lon="11.215474605560303">
        <ele>540</ele>
        <time>2002-10-27T09:28:10Z</time>
      </trkpt>
      <trkpt lat="44.318633079528809" lon="11.215345859527588">
        <ele>541</ele>
        <time>2002-10-27T09:28:25Z</time>
      </trkpt>
      <trkpt lat="44.31859016418457" lon="11.215045535936952">
        <ele>541</ele>
        <time>2002-10-27T09:28:36Z</time>
      </trkpt>
      <trkpt lat="44.318504333496094" lon="11.214895164594054">
        <ele>537</ele>
        <time>2002-10-27T09:28:41Z</time>
      </trkpt>
      <trkpt lat="44.318482875823975" lon="11.214873790740967">
        <ele>537</ele>
        <time>2002-10-27T09:28:42Z</time>
      </trkpt>
      <trkpt lat="44.318461418151855" lon="11.214830875396729">
        <ele>537</ele>
        <time>2002-10-27T09:28:43Z</time>
      </trkpt>
      <trkpt lat="44.318311214447021" lon="11.214573383331299">
        <ele>535</ele>
        <time>2002-10-27T09:28:47Z</time>
      </trkpt>
      <trkpt lat="44.318225383758545" lon="11.214251518249512">
        <ele>535</ele>
        <time>2002-10-27T09:28:51Z</time>
      </trkpt>
      <trkpt lat="44.318203926086426" lon="11.21403694152832">
        <ele>535</ele>
        <time>2002-10-27T09:28:54Z</time>
      </trkpt>
      <trkpt lat="44.318010807037354" lon="11.213865280151367">
        <ele>533</ele>
        <time>2002-10-27T09:28:59Z</time>
      </trkpt>
      <trkpt lat="44.317967891693115" lon="11.213843822479248">
        <ele>532</ele>
        <time>2002-10-27T09:29:00Z</time>
      </trkpt>
      <trkpt lat="44.31734561920166" lon="11.213693618774414">
        <ele>531</ele>
        <time>2002-10-27T09:29:14Z</time>
      </trkpt>
      <trkpt lat="44.317174041643739" lon="11.213522041216493">
        <ele>531</ele>
        <time>2002-10-27T09:29:18Z</time>
      </trkpt>
      <trkpt lat="44.316744804382324" lon="11.212749481201172">
        <ele>527</ele>
        <time>2002-10-27T09:29:29Z</time>
      </trkpt>
      <trkpt lat="44.31659460067749" lon="11.212491989135742">
        <ele>526</ele>
        <time>2002-10-27T09:29:33Z</time>
      </trkpt>
      <trkpt lat="44.316465938463807" lon="11.212427616119385">
        <ele>527</ele>
        <time>2002-10-27T09:29:36Z</time>
      </trkpt>
      <trkpt lat="44.316122531890869" lon="11.212277412414551">
        <ele>528</ele>
        <time>2002-10-27T09:29:49Z</time>
      </trkpt>
      <trkpt lat="44.315865039825439" lon="11.211891174316406">
        <ele>525</ele>
        <time>2002-10-27T09:30:01Z</time>
      </trkpt>
      <trkpt lat="44.315822124481201" lon="11.211848258972168">
        <ele>525</ele>
        <time>2002-10-27T09:30:03Z</time>
      </trkpt>
      <trkpt lat="44.315757835283875" lon="11.211698139086366">
        <ele>523</ele>
        <time>2002-10-27T09:30:11Z</time>
      </trkpt>
      <trkpt lat="44.315736293792725" lon="11.211483478546143">
        <ele>520</ele>
        <time>2002-10-27T09:48:14Z</time>
      </trkpt>
      <trkpt lat="44.315156936645508" lon="11.210947036743164">
        <ele>517</ele>
        <time>2002-10-27T09:48:24Z</time>
      </trkpt>
      <trkpt lat="44.31504956446588" lon="11.210517883300781">
        <ele>513</ele>
        <time>2002-10-27T09:49:11Z</time>
      </trkpt>
      <trkpt lat="44.315028190612793" lon="11.21030330657959">
        <ele>512</ele>
        <time>2002-10-27T09:49:15Z</time>
      </trkpt>
      <trkpt lat="44.314942359924316" lon="11.210002899169922">
        <ele>510</ele>
        <time>2002-10-27T09:49:22Z</time>
      </trkpt>
      <trkpt lat="44.314620494842529" lon="11.209874236956239">
        <ele>508</ele>
        <time>2002-10-27T09:49:36Z</time>
      </trkpt>
      <trkpt lat="44.314751839265227" lon="11.209799638018012">
        <ele>508</ele>
        <time>2002-06-08T11:02:16Z</time>
      </trkpt>
      <trkpt lat="44.314834903925657" lon="11.209534015506506">
        <ele>508</ele>
        <time>1989-12-31T00:00:00Z</time>
      </trkpt>
      <trkpt lat="44.314920902252197" lon="11.209423458203673">
        <ele>508</ele>
        <time>2002-06-08T11:02:30Z</time>
      </trkpt>
      <trkpt lat="44.314942359924316" lon="11.209251880645752">
        <ele>505</ele>
        <time>2002-06-08T11:02:33Z</time>
      </trkpt>
      <trkpt lat="44.314963817596436" lon="11.208930015563965">
        <ele>503</ele>
        <time>2002-06-08T11:02:37Z</time>
      </trkpt>
      <trkpt lat="44.315028190612793" lon="11.208736896514893">
        <ele>500</ele>
        <time>2002-06-08T11:02:40Z</time>
      </trkpt>
      <trkpt lat="44.315307140350342" lon="11.208114624023438">
        <ele>497</ele>
        <time>2002-06-08T11:03:30Z</time>
      </trkpt>
      <trkpt lat="44.315328598022461" lon="11.207706928253174">
        <ele>492</ele>
        <time>2002-06-08T11:03:34Z</time>
      </trkpt>
      <trkpt lat="44.315350139513612" lon="11.207599639892578">
        <ele>490</ele>
        <time>2002-06-08T11:03:35Z</time>
      </trkpt>
      <trkpt lat="44.315350139513612" lon="11.2070631980896">
        <ele>488</ele>
        <time>2002-06-08T11:03:39Z</time>
      </trkpt>
      <trkpt lat="44.315350139513612" lon="11.205883026123047">
        <ele>488</ele>
        <time>2002-06-08T11:03:49Z</time>
      </trkpt>
      <trkpt lat="44.315392971038818" lon="11.205496788024902">
        <ele>491</ele>
        <time>2002-06-08T11:03:55Z</time>
      </trkpt>
      <trkpt lat="44.315392971038818" lon="11.205153465270996">
        <ele>494</ele>
        <time>2002-06-08T11:04:05Z</time>
      </trkpt>
      <trkpt lat="44.315350139513612" lon="11.204509735107422">
        <ele>494</ele>
        <time>2002-06-08T11:04:24Z</time>
      </trkpt>
      <trkpt lat="44.315156936645508" lon="11.204187870025635">
        <ele>489</ele>
        <time>2002-06-08T11:04:30Z</time>
      </trkpt>
      <trkpt lat="44.314749240875244" lon="11.204037666320801">
        <ele>483</ele>
        <time>2002-06-08T11:04:34Z</time>
      </trkpt>
      <trkpt lat="44.31464203633368" lon="11.203994834795594">
        <ele>483</ele>
        <time>2002-06-08T11:04:35Z</time>
      </trkpt>
      <trkpt lat="44.314405918121338" lon="11.203908920288086">
        <ele>483</ele>
        <time>2002-06-08T11:04:37Z</time>
      </trkpt>
      <trkpt lat="44.313998222351074" lon="11.203393936157227">
        <ele>479</ele>
        <time>2002-06-08T11:04:42Z</time>
      </trkpt>
      <trkpt lat="44.313869476318359" lon="11.203243732452393">
        <ele>477</ele>
        <time>2002-06-08T11:04:44Z</time>
      </trkpt>
      <trkpt lat="44.313826560974121" lon="11.203200817108154">
        <ele>475</ele>
        <time>2002-06-08T11:04:45Z</time>
      </trkpt>
      <trkpt lat="44.313805103302002" lon="11.203179359436035">
        <ele>475</ele>
        <time>2002-06-08T11:04:46Z</time>
      </trkpt>
      <trkpt lat="44.313762187957764" lon="11.203136360272765">
        <ele>472</ele>
        <time>2002-06-08T11:04:50Z</time>
      </trkpt>
      <trkpt lat="44.313762187957764" lon="11.203114986419678">
        <ele>471</ele>
        <time>2002-06-08T11:04:52Z</time>
      </trkpt>
      <trkpt lat="44.313719272613525" lon="11.202943325042725">
        <ele>473</ele>
        <time>2002-06-08T11:04:59Z</time>
      </trkpt>
      <trkpt lat="44.313697814941406" lon="11.202879035845399">
        <ele>472</ele>
        <time>2002-06-08T11:05:00Z</time>
      </trkpt>
      <trkpt lat="44.313440322875977" lon="11.202278137207031">
        <ele>471</ele>
        <time>2002-06-08T11:05:12Z</time>
      </trkpt>
      <trkpt lat="44.313397407531738" lon="11.20206356048584">
        <ele>471</ele>
        <time>2002-06-08T11:05:21Z</time>
      </trkpt>
      <trkpt lat="44.313461780548096" lon="11.201956272125244">
        <ele>470</ele>
        <time>2002-06-08T11:05:26Z</time>
      </trkpt>
      <trkpt lat="44.313526237383485" lon="11.201784610748291">
        <ele>466</ele>
        <time>2002-06-08T11:05:31Z</time>
      </trkpt>
      <trkpt lat="44.313526237383485" lon="11.201741695404053">
        <ele>466</ele>
        <time>2002-06-08T11:05:32Z</time>
      </trkpt>
      <trkpt lat="44.313547611236572" lon="11.201677322387695">
        <ele>464</ele>
        <time>2002-06-08T11:05:33Z</time>
      </trkpt>
      <trkpt lat="44.313526237383485" lon="11.201484203338623">
        <ele>462</ele>
        <time>2002-06-08T11:05:36Z</time>
      </trkpt>
      <trkpt lat="44.313547611236572" lon="11.201205337420106">
        <ele>456</ele>
        <time>2002-06-08T11:05:40Z</time>
      </trkpt>
      <trkpt lat="44.31361198425293" lon="11.200990676879883">
        <ele>454</ele>
        <time>2002-06-08T11:05:42Z</time>
      </trkpt>
      <trkpt lat="44.313547611236572" lon="11.200711727142334">
        <ele>451</ele>
        <time>2002-06-08T11:05:45Z</time>
      </trkpt>
      <trkpt lat="44.313483238220215" lon="11.200625896453857">
        <ele>449</ele>
        <time>2002-06-08T11:05:46Z</time>
      </trkpt>
      <trkpt lat="44.313333034515381" lon="11.200261116027832">
        <ele>443</ele>
        <time>2002-06-08T11:05:51Z</time>
      </trkpt>
      <trkpt lat="44.313268661499023" lon="11.199638759717345">
        <ele>437</ele>
        <time>2002-06-08T11:06:00Z</time>
      </trkpt>
      <trkpt lat="44.313268661499023" lon="11.19957447052002">
        <ele>437</ele>
        <time>2002-06-08T11:06:01Z</time>
      </trkpt>
      <trkpt lat="44.313268661499023" lon="11.199381435289979">
        <ele>436</ele>
        <time>2002-06-08T11:06:04Z</time>
      </trkpt>
      <trkpt lat="44.313268661499023" lon="11.19931697845459">
        <ele>434</ele>
        <time>2002-06-08T11:06:05Z</time>
      </trkpt>
      <trkpt lat="44.313333034515381" lon="11.199038028717041">
        <ele>433</ele>
        <time>2002-06-08T11:06:10Z</time>
      </trkpt>
      <trkpt lat="44.313311576843262" lon="11.198716163635254">
        <ele>431</ele>
        <time>2002-06-08T11:06:15Z</time>
      </trkpt>
      <trkpt lat="44.313268661499023" lon="11.198501586914063">
        <ele>429</ele>
        <time>2002-06-08T11:06:18Z</time>
      </trkpt>
      <trkpt lat="44.313268661499023" lon="11.198287010192871">
        <ele>428</ele>
        <time>2002-06-08T11:06:21Z</time>
      </trkpt>
      <trkpt lat="44.313311576843262" lon="11.198158264160156">
        <ele>425</ele>
        <time>2002-06-08T11:06:23Z</time>
      </trkpt>
      <trkpt lat="44.3133544921875" lon="11.198050975799561">
        <ele>423</ele>
        <time>2002-06-08T11:06:25Z</time>
      </trkpt>
      <trkpt lat="44.313483238220215" lon="11.197836399078369">
        <ele>422</ele>
        <time>2002-06-08T11:06:34Z</time>
      </trkpt>
      <trkpt lat="44.313483238220215" lon="11.197514533996582">
        <ele>422</ele>
        <time>2002-06-08T11:06:51Z</time>
      </trkpt>
      <trkpt lat="44.313461780548096" lon="11.197471618652344">
        <ele>422</ele>
        <time>2002-06-08T11:06:53Z</time>
      </trkpt>
      <trkpt lat="44.313290119171143" lon="11.197235584259033">
        <ele>422</ele>
        <time>2002-06-08T11:07:10Z</time>
      </trkpt>
      <trkpt lat="44.313225662335753" lon="11.197278499603271">
        <ele>421</ele>
        <time>2002-06-08T11:07:17Z</time>
      </trkpt>
      <trkpt lat="44.313161373138428" lon="11.197192668914795">
        <ele>420</ele>
        <time>2002-06-08T11:07:23Z</time>
      </trkpt>
      <trkpt lat="44.312989711761475" lon="11.196999466046691">
        <ele>416</ele>
        <time>2002-06-08T11:07:31Z</time>
      </trkpt>
      <trkpt lat="44.312775135040283" lon="11.196892261505127">
        <ele>414</ele>
        <time>2002-06-08T11:07:36Z</time>
      </trkpt>
      <trkpt lat="44.31241043843329" lon="11.196763515472412">
        <ele>410</ele>
        <time>2002-06-08T11:07:48Z</time>
      </trkpt>
      <trkpt lat="44.312195777893066" lon="11.19680643081665">
        <ele>410</ele>
        <time>2002-06-08T11:08:01Z</time>
      </trkpt>
      <trkpt lat="44.312045574188232" lon="11.196849262341857">
        <ele>410</ele>
        <time>2002-06-08T11:08:12Z</time>
      </trkpt>
      <trkpt lat="44.312002658843994" lon="11.196913719177246">
        <ele>410</ele>
        <time>2002-06-08T11:08:18Z</time>
      </trkpt>
      <trkpt lat="44.311981201171875" lon="11.196935176849365">
        <ele>410</ele>
        <time>2002-06-08T11:08:23Z</time>
      </trkpt>
      <trkpt lat="44.311938285827637" lon="11.196870803833008">
        <ele>409</ele>
        <time>2002-06-08T11:08:26Z</time>
      </trkpt>
      <trkpt lat="44.311702335253358" lon="11.196763515472412">
        <ele>406</ele>
        <time>2002-06-08T11:08:33Z</time>
      </trkpt>
      <trkpt lat="44.31155196391046" lon="11.196742141619325">
        <ele>402</ele>
        <time>2002-06-08T11:08:37Z</time>
      </trkpt>
      <trkpt lat="44.311487674713135" lon="11.196742141619325">
        <ele>401</ele>
        <time>2002-06-08T11:08:39Z</time>
      </trkpt>
      <trkpt lat="44.311444759368896" lon="11.19682788848877">
        <ele>399</ele>
        <time>2002-06-08T11:08:41Z</time>
      </trkpt>
      <trkpt lat="44.310758113861084" lon="11.197214126586914">
        <ele>392</ele>
        <time>2002-06-08T11:11:39Z</time>
      </trkpt>
      <trkpt lat="44.310629367828369" lon="11.197106838226318">
        <ele>391</ele>
        <time>2002-06-08T11:11:46Z</time>
      </trkpt>
      <trkpt lat="44.310586536303163" lon="11.19706392288208">
        <ele>391</ele>
        <time>2002-06-08T11:11:49Z</time>
      </trkpt>
      <trkpt lat="44.31035041809082" lon="11.197214126586914">
        <ele>395</ele>
        <time>2002-06-08T11:12:06Z</time>
      </trkpt>
      <trkpt lat="44.310307502746582" lon="11.197235584259033">
        <ele>396</ele>
        <time>2002-06-08T11:12:09Z</time>
      </trkpt>
      <trkpt lat="44.310285961255431" lon="11.197235584259033">
        <ele>397</ele>
        <time>2002-06-08T11:12:11Z</time>
      </trkpt>
      <trkpt lat="44.310285961255431" lon="11.197278499603271">
        <ele>397</ele>
        <time>2002-06-08T11:12:13Z</time>
      </trkpt>
      <trkpt lat="44.310328960418701" lon="11.197428703308105">
        <ele>401</ele>
        <time>2002-06-08T11:12:22Z</time>
      </trkpt>
      <trkpt lat="44.31035041809082" lon="11.197428703308105">
        <ele>401</ele>
        <time>2002-06-08T11:12:23Z</time>
      </trkpt>
      <trkpt lat="44.310414791107178" lon="11.197514533996582">
        <ele>402</ele>
        <time>2002-06-08T11:12:28Z</time>
      </trkpt>
      <trkpt lat="44.310564994812012" lon="11.197729110717773">
        <ele>406</ele>
        <time>2002-06-08T11:12:41Z</time>
      </trkpt>
      <trkpt lat="44.310736740007997" lon="11.197943687438965">
        <ele>409</ele>
        <time>2002-06-08T11:12:55Z</time>
      </trkpt>
      <trkpt lat="44.310908317565918" lon="11.198244094848633">
        <ele>412</ele>
        <time>2002-06-08T11:13:15Z</time>
      </trkpt>
      <trkpt lat="44.311079978942871" lon="11.198587417602539">
        <ele>418</ele>
        <time>2002-06-08T11:19:49Z</time>
      </trkpt>
      <trkpt lat="44.311165809631348" lon="11.198952198028564">
        <ele>421</ele>
        <time>2002-06-08T11:20:05Z</time>
      </trkpt>
      <trkpt lat="44.310886859893799" lon="11.199166774749756">
        <ele>424</ele>
        <time>2002-06-08T11:20:23Z</time>
      </trkpt>
      <trkpt lat="44.31086540222168" lon="11.199166774749756">
        <ele>424</ele>
        <time>2002-06-08T11:20:25Z</time>
      </trkpt>
      <trkpt lat="44.310629367828369" lon="11.199016571044922">
        <ele>424</ele>
        <time>2002-06-08T11:20:35Z</time>
      </trkpt>
      <trkpt lat="44.309899806976318" lon="11.198158264160156">
        <ele>425</ele>
        <time>2002-06-08T11:21:03Z</time>
      </trkpt>
      <trkpt lat="44.309749603271484" lon="11.197986602783203">
        <ele>427</ele>
        <time>2002-06-08T11:21:08Z</time>
      </trkpt>
      <trkpt lat="44.30932036601007" lon="11.197471618652344">
        <ele>430</ele>
        <time>2002-06-08T11:21:25Z</time>
      </trkpt>
      <trkpt lat="44.308977127075195" lon="11.197214126586914">
        <ele>430</ele>
        <time>2002-06-08T11:21:38Z</time>
      </trkpt>
      <trkpt lat="44.30884838104248" lon="11.197149837389588">
        <ele>428</ele>
        <time>2002-06-08T11:21:43Z</time>
      </trkpt>
      <trkpt lat="44.308719635009766" lon="11.197085380554199">
        <ele>427</ele>
        <time>2002-06-08T11:21:47Z</time>
      </trkpt>
      <trkpt lat="44.308526515960693" lon="11.19682788848877">
        <ele>426</ele>
        <time>2002-06-08T11:21:52Z</time>
      </trkpt>
      <trkpt lat="44.308354938402772" lon="11.196184158325195">
        <ele>428</ele>
        <time>2002-06-08T11:22:02Z</time>
      </trkpt>
      <trkpt lat="44.308311939239502" lon="11.195454597473145">
        <ele>431</ele>
        <time>2002-06-08T11:22:16Z</time>
      </trkpt>
      <trkpt lat="44.307797038927674" lon="11.194403171539307">
        <ele>431</ele>
        <time>2002-06-08T11:22:42Z</time>
      </trkpt>
      <trkpt lat="44.307346260175109" lon="11.193416118621826">
        <ele>435</ele>
        <time>2002-06-08T11:23:02Z</time>
      </trkpt>
      <trkpt lat="44.30711030960083" lon="11.192858219146729">
        <ele>438</ele>
        <time>2002-06-08T11:23:13Z</time>
      </trkpt>
      <trkpt lat="44.306938564404845" lon="11.192557811737061">
        <ele>439</ele>
        <time>2002-06-08T11:23:21Z</time>
      </trkpt>
      <trkpt lat="44.306917190551758" lon="11.19257926940918">
        <ele>440</ele>
        <time>2002-06-08T11:23:23Z</time>
      </trkpt>
      <trkpt lat="44.306702613830566" lon="11.192600727081299">
        <ele>443</ele>
        <time>2002-06-08T11:23:37Z</time>
      </trkpt>
      <trkpt lat="44.306187629699707" lon="11.192471981048584">
        <ele>447</ele>
        <time>2002-06-08T11:23:59Z</time>
      </trkpt>
      <trkpt lat="44.30581790395081" lon="11.192407021299005">
        <ele>450</ele>
        <time>2002-06-08T11:24:54Z</time>
      </trkpt>
      <trkpt lat="44.304868401959538" lon="11.192380199208856">
        <ele>450</ele>
        <time>2002-06-08T11:25:06Z</time>
      </trkpt>
      <trkpt lat="44.304600181058049" lon="11.192069062963128">
        <ele>450</ele>
        <time>2002-06-08T11:25:11Z</time>
      </trkpt>
      <trkpt lat="44.304026188328862" lon="11.190985534340143">
        <ele>460</ele>
        <time>2002-06-08T11:25:24Z</time>
      </trkpt>
      <trkpt lat="44.303740113973618" lon="11.190795935690403">
        <ele>465</ele>
        <time>2002-06-08T11:25:45Z</time>
      </trkpt>
      <trkpt lat="44.303278774023056" lon="11.19086030870676">
        <ele>465</ele>
        <time>2002-06-08T11:26:16Z</time>
      </trkpt>
      <trkpt lat="44.303091019392014" lon="11.190782524645329">
        <ele>465</ele>
        <time>2002-06-08T11:26:30Z</time>
      </trkpt>
      <trkpt lat="44.301896095275879" lon="11.187450885772705">
        <ele>479</ele>
        <time>2002-06-08T11:28:49Z</time>
      </trkpt>
      <trkpt lat="44.301488399505615" lon="11.185605525970459">
        <ele>475</ele>
        <time>2002-06-08T11:29:25Z</time>
      </trkpt>
      <trkpt lat="44.301273822784424" lon="11.184832965955138">
        <ele>472</ele>
        <time>2002-06-08T11:29:33Z</time>
      </trkpt>
      <trkpt lat="44.301166534423828" lon="11.184425437822938">
        <ele>469</ele>
        <time>2002-06-08T11:29:37Z</time>
      </trkpt>
      <trkpt lat="44.301037788391113" lon="11.183953285217285">
        <ele>465</ele>
        <time>2002-06-08T11:29:42Z</time>
      </trkpt>
      <trkpt lat="44.300887584686279" lon="11.183459758758545">
        <ele>462</ele>
        <time>2002-06-08T11:29:47Z</time>
      </trkpt>
      <trkpt lat="44.300715923309326" lon="11.182923316955566">
        <ele>457</ele>
        <time>2002-06-08T11:29:52Z</time>
      </trkpt>
      <trkpt lat="44.30063009262085" lon="11.182172298431396">
        <ele>461</ele>
        <time>2002-06-08T11:30:02Z</time>
      </trkpt>
      <trkpt lat="44.300587177276611" lon="11.182043636217713">
        <ele>463</ele>
        <time>2002-06-08T11:30:06Z</time>
      </trkpt>
      <trkpt lat="44.300479888916016" lon="11.181914806365967">
        <ele>464</ele>
        <time>2002-06-08T11:30:11Z</time>
      </trkpt>
      <trkpt lat="44.300222396850586" lon="11.181657314300537">
        <ele>467</ele>
        <time>2002-06-08T11:30:24Z</time>
      </trkpt>
      <trkpt lat="44.299664497375488" lon="11.181035041809082">
        <ele>468</ele>
        <time>2002-06-08T11:30:51Z</time>
      </trkpt>
      <trkpt lat="44.299149513244629" lon="11.181078040972352">
        <ele>471</ele>
        <time>2002-06-08T11:31:04Z</time>
      </trkpt>
      <trkpt lat="44.298505783081055" lon="11.181271076202393">
        <ele>473</ele>
        <time>2002-06-08T11:31:25Z</time>
      </trkpt>
      <trkpt lat="44.298312664031982" lon="11.181313991546631">
        <ele>471</ele>
        <time>2002-06-08T11:31:29Z</time>
      </trkpt>
      <trkpt lat="44.297926425933838" lon="11.181399822235107">
        <ele>466</ele>
        <time>2002-06-08T11:31:34Z</time>
      </trkpt>
      <trkpt lat="44.297497272491455" lon="11.181421279907227">
        <ele>464</ele>
        <time>2002-06-08T11:31:39Z</time>
      </trkpt>
      <trkpt lat="44.297153865918517" lon="11.181399822235107">
        <ele>463</ele>
        <time>2002-06-08T11:31:43Z</time>
      </trkpt>
      <trkpt lat="44.296939373016357" lon="11.181399822235107">
        <ele>462</ele>
        <time>2002-06-08T11:31:46Z</time>
      </trkpt>
      <trkpt lat="44.296531677246094" lon="11.181013584136963">
        <ele>460</ele>
        <time>2002-06-08T11:31:54Z</time>
      </trkpt>
      <trkpt lat="44.296445762738585" lon="11.180756092071533">
        <ele>460</ele>
        <time>2002-06-08T11:31:59Z</time>
      </trkpt>
      <trkpt lat="44.296166896820068" lon="11.179897785186768">
        <ele>464</ele>
        <time>2002-06-08T11:32:15Z</time>
      </trkpt>
      <trkpt lat="44.295978471636772" lon="11.179328905418515">
        <ele>464</ele>
        <time>1989-12-31T00:00:00Z</time>
      </trkpt>
      <trkpt lat="44.295322420075536" lon="11.179266041144729">
        <ele>475</ele>
        <time>1989-12-31T00:00:00Z</time>
      </trkpt>
      <trkpt lat="44.294982869178057" lon="11.179376598447561">
        <ele>475</ele>
        <time>1989-12-31T00:00:00Z</time>
      </trkpt>
      <trkpt lat="44.294551787897944" lon="11.178966471925378">
        <ele>475</ele>
        <time>1989-12-31T00:00:00Z</time>
      </trkpt>
      <trkpt lat="44.294418264180422" lon="11.17872909642756">
        <ele>475</ele>
        <time>1989-12-31T00:00:00Z</time>
      </trkpt>
      <trkpt lat="44.294151300564408" lon="11.178594566881657">
        <ele>475</ele>
        <time>1989-12-31T00:00:00Z</time>
      </trkpt>
      <trkpt lat="44.293693481013179" lon="11.178701436147094">
        <ele>475</ele>
        <time>1989-12-31T00:00:00Z</time>
      </trkpt>
      <trkpt lat="44.293487537652254" lon="11.178856836631894">
        <ele>475</ele>
        <time>1989-12-31T00:00:00Z</time>
      </trkpt>
      <trkpt lat="44.293109932914376" lon="11.178648881614208">
        <ele>475</ele>
        <time>1989-12-31T00:00:00Z</time>
      </trkpt>
      <trkpt lat="44.292705506086349" lon="11.178246466442943">
        <ele>475</ele>
        <time>1989-12-31T00:00:00Z</time>
      </trkpt>
      <trkpt lat="44.292594864964485" lon="11.177769703790545">
        <ele>485</ele>
        <time>1989-12-31T00:00:00Z</time>
      </trkpt>
      <trkpt lat="44.29244608618319" lon="11.177532160654664">
        <ele>485</ele>
        <time>1989-12-31T00:00:00Z</time>
      </trkpt>
      <trkpt lat="44.292076108977199" lon="11.177309034392238">
        <ele>485</ele>
        <time>1989-12-31T00:00:00Z</time>
      </trkpt>
      <trkpt lat="44.291927330195904" lon="11.176752978935838">
        <ele>481</ele>
        <time>1989-12-31T00:00:00Z</time>
      </trkpt>
      <trkpt lat="44.292083736509085" lon="11.176270516589284">
        <ele>481</ele>
        <time>1989-12-31T00:00:00Z</time>
      </trkpt>
      <trkpt lat="44.292194377630949" lon="11.175732566043735">
        <ele>481</ele>
        <time>1989-12-31T00:00:00Z</time>
      </trkpt>
      <trkpt lat="44.292549099773169" lon="11.175280613824725">
        <ele>481</ele>
        <time>1989-12-31T00:00:00Z</time>
      </trkpt>
      <trkpt lat="44.292778009548783" lon="11.175265274941921">
        <ele>481</ele>
        <time>1989-12-31T00:00:00Z</time>
      </trkpt>
      <trkpt lat="44.293323503807187" lon="11.175759304314852">
        <ele>486</ele>
        <time>1989-12-31T00:00:00Z</time>
      </trkpt>
      <trkpt lat="44.293746873736382" lon="11.176092065870762">
        <ele>460</ele>
        <time>1989-12-31T00:00:00Z</time>
      </trkpt>
      <trkpt lat="44.29404828697443" lon="11.176149398088455">
        <ele>460</ele>
        <time>1989-12-31T00:00:00Z</time>
      </trkpt>
      <trkpt lat="44.294414492323995" lon="11.176069267094135">
        <ele>460</ele>
        <time>1989-12-31T00:00:00Z</time>
      </trkpt>
      <trkpt lat="44.29468153975904" lon="11.17586231790483">
        <ele>450</ele>
        <time>1989-12-31T00:00:00Z</time>
      </trkpt>
      <trkpt lat="44.295063000172377" lon="11.175125129520893">
        <ele>450</ele>
        <time>1989-12-31T00:00:00Z</time>
      </trkpt>
      <trkpt lat="44.295406322926283" lon="11.174936285242438">
        <ele>450</ele>
        <time>1989-12-31T00:00:00Z</time>
      </trkpt>
      <trkpt lat="44.295810665935278" lon="11.174812316894531">
        <ele>450</ele>
        <time>1989-12-31T00:00:00Z</time>
      </trkpt>
      <trkpt lat="44.296234119683504" lon="11.174859004095197">
        <ele>450</ele>
        <time>1989-12-31T00:00:00Z</time>
      </trkpt>
      <trkpt lat="44.29634090512991" lon="11.174723636358976">
        <ele>450</ele>
        <time>1989-12-31T00:00:00Z</time>
      </trkpt>
      <trkpt lat="44.29681783542037" lon="11.17349342443049">
        <ele>430</ele>
        <time>1989-12-31T00:00:00Z</time>
      </trkpt>
      <trkpt lat="44.297209018841386" lon="11.173290330916643">
        <ele>430</ele>
        <time>2002-06-08T11:36:39Z</time>
      </trkpt>
      <trkpt lat="44.297862136736512" lon="11.172494888305664">
        <ele>420</ele>
        <time>2002-06-08T11:36:57Z</time>
      </trkpt>
      <trkpt lat="44.297904968261719" lon="11.172430515289307">
        <ele>420</ele>
        <time>2002-06-08T11:36:58Z</time>
      </trkpt>
      <trkpt lat="44.298205375671387" lon="11.172022819519043">
        <ele>421</ele>
        <time>2002-06-08T11:37:04Z</time>
      </trkpt>
      <trkpt lat="44.298334121704102" lon="11.171979904174805">
        <ele>422</ele>
        <time>2002-06-08T11:37:07Z</time>
      </trkpt>
      <trkpt lat="44.298677360638976" lon="11.171636581420898">
        <ele>422</ele>
        <time>2002-06-08T11:37:17Z</time>
      </trkpt>
      <trkpt lat="44.298956394195557" lon="11.171400463208556">
        <ele>419</ele>
        <time>2002-06-08T11:37:22Z</time>
      </trkpt>
      <trkpt lat="44.299085140228271" lon="11.171207427978516">
        <ele>416</ele>
        <time>2002-06-08T11:37:24Z</time>
      </trkpt>
      <trkpt lat="44.299192428588867" lon="11.170907020568848">
        <ele>411</ele>
        <time>2002-06-08T11:37:27Z</time>
      </trkpt>
      <trkpt lat="44.299192428588867" lon="11.170670986175537">
        <ele>409</ele>
        <time>2002-06-08T11:37:30Z</time>
      </trkpt>
      <trkpt lat="44.299213886260986" lon="11.170585239306092">
        <ele>405</ele>
        <time>2002-06-08T11:37:31Z</time>
      </trkpt>
      <trkpt lat="44.299213886260986" lon="11.17034912109375">
        <ele>398</ele>
        <time>2002-06-08T11:37:34Z</time>
      </trkpt>
      <trkpt lat="44.299213886260986" lon="11.170263290405273">
        <ele>398</ele>
        <time>2002-06-08T11:37:35Z</time>
      </trkpt>
      <trkpt lat="44.299213886260986" lon="11.17009162902832">
        <ele>395</ele>
        <time>2002-06-08T11:37:37Z</time>
      </trkpt>
      <trkpt lat="44.299213886260986" lon="11.169941425323486">
        <ele>393</ele>
        <time>2002-06-08T11:37:39Z</time>
      </trkpt>
      <trkpt lat="44.299171390011907" lon="11.169217061251402">
        <ele>373</ele>
        <time>1989-12-31T00:00:00Z</time>
      </trkpt>
      <trkpt lat="44.299575816839933" lon="11.168930064886808">
        <ele>370</ele>
        <time>1989-12-31T00:00:00Z</time>
      </trkpt>
      <trkpt lat="44.299587216228247" lon="11.168713560327888">
        <ele>365</ele>
        <time>1989-12-31T00:00:00Z</time>
      </trkpt>
      <trkpt lat="44.299400299787521" lon="11.168435113504529">
        <ele>360</ele>
        <time>1989-12-31T00:00:00Z</time>
      </trkpt>
      <trkpt lat="44.29942318238318" lon="11.167985927313566">
        <ele>350</ele>
        <time>1989-12-31T00:00:00Z</time>
      </trkpt>
      <trkpt lat="44.299648320302367" lon="11.167389890179038">
        <ele>350</ele>
        <time>1989-12-31T00:00:00Z</time>
      </trkpt>
      <trkpt lat="44.300014525651932" lon="11.167101887986064">
        <ele>350</ele>
        <time>1989-12-31T00:00:00Z</time>
      </trkpt>
      <trkpt lat="44.300445606932044" lon="11.166908266022801">
        <ele>350</ele>
        <time>1989-12-31T00:00:00Z</time>
      </trkpt>
      <trkpt lat="44.300522804260254" lon="11.166315078735352">
        <ele>348</ele>
        <time>2002-06-08T11:38:10Z</time>
      </trkpt>
      <trkpt lat="44.300758838653564" lon="11.165821636095643">
        <ele>344</ele>
        <time>2002-06-08T11:38:14Z</time>
      </trkpt>
      <trkpt lat="44.30086612701416" lon="11.165628433227539">
        <ele>341</ele>
        <time>2002-06-08T11:38:16Z</time>
      </trkpt>
      <trkpt lat="44.300973415374756" lon="11.165177822113037">
        <ele>339</ele>
        <time>2002-06-08T11:38:19Z</time>
      </trkpt>
      <trkpt lat="44.301080703735352" lon="11.164813041687012">
        <ele>337</ele>
        <time>2002-06-08T11:38:22Z</time>
      </trkpt>
      <trkpt lat="44.301166534423828" lon="11.164534091949463">
        <ele>332</ele>
        <time>2002-06-08T11:38:24Z</time>
      </trkpt>
      <trkpt lat="44.30138111114502" lon="11.163997733965516">
        <ele>327</ele>
        <time>2002-06-08T11:38:28Z</time>
      </trkpt>
      <trkpt lat="44.301488399505615" lon="11.163568496704102">
        <ele>321</ele>
        <time>2002-06-08T11:38:32Z</time>
      </trkpt>
      <trkpt lat="44.301509940996766" lon="11.163225173950195">
        <ele>314</ele>
        <time>2002-06-08T11:38:35Z</time>
      </trkpt>
      <trkpt lat="44.301531314849854" lon="11.163010597229004">
        <ele>309</ele>
        <time>2002-06-08T11:38:37Z</time>
      </trkpt>
      <trkpt lat="44.301574230194092" lon="11.162688732147217">
        <ele>302</ele>
        <time>2002-06-08T11:38:40Z</time>
      </trkpt>
      <trkpt lat="44.301595687866211" lon="11.162345409393311">
        <ele>301</ele>
        <time>2002-06-08T11:38:43Z</time>
      </trkpt>
      <trkpt lat="44.301595687866211" lon="11.162238121032715">
        <ele>297</ele>
        <time>2002-06-08T11:38:44Z</time>
      </trkpt>
      <trkpt lat="44.301617061719298" lon="11.162023460492492">
        <ele>292</ele>
        <time>2002-06-08T11:38:46Z</time>
      </trkpt>
      <trkpt lat="44.301638603210449" lon="11.161916339769959">
        <ele>291</ele>
        <time>2002-06-08T11:38:47Z</time>
      </trkpt>
      <trkpt lat="44.30112361907959" lon="11.16112232208252">
        <ele>287</ele>
        <time>2002-06-08T11:38:53Z</time>
      </trkpt>
      <trkpt lat="44.300136566162109" lon="11.160414218902588">
        <ele>280</ele>
        <time>2002-06-08T11:38:57Z</time>
      </trkpt>
      <trkpt lat="44.299857616424561" lon="11.159770488739014">
        <ele>273</ele>
        <time>2002-06-08T11:39:01Z</time>
      </trkpt>
      <trkpt lat="44.299664497375488" lon="11.158697605133057">
        <ele>272</ele>
        <time>2002-06-08T11:39:08Z</time>
      </trkpt>
      <trkpt lat="44.29987907409668" lon="11.158204078674316">
        <ele>273</ele>
        <time>2002-06-08T11:39:12Z</time>
      </trkpt>
      <trkpt lat="44.300050735473633" lon="11.157946586608887">
        <ele>269</ele>
        <time>2002-06-08T11:39:15Z</time>
      </trkpt>
      <trkpt lat="44.30011510848999" lon="11.157860839739442">
        <ele>267</ele>
        <time>2002-06-08T11:39:16Z</time>
      </trkpt>
      <trkpt lat="44.300265312194824" lon="11.157774925231934">
        <ele>266</ele>
        <time>2002-06-08T11:39:18Z</time>
      </trkpt>
      <trkpt lat="44.300394058227539" lon="11.157689094543457">
        <ele>264</ele>
        <time>2002-06-08T11:39:20Z</time>
      </trkpt>
      <trkpt lat="44.300673007965088" lon="11.157131195068359">
        <ele>257</ele>
        <time>2002-06-08T11:39:28Z</time>
      </trkpt>
      <trkpt lat="44.300737380981445" lon="11.156980991363525">
        <ele>256</ele>
        <time>2002-06-08T11:39:30Z</time>
      </trkpt>
      <trkpt lat="44.300952041521668" lon="11.157045364379883">
        <ele>251</ele>
        <time>2002-06-08T11:39:34Z</time>
      </trkpt>
      <trkpt lat="44.301166534423828" lon="11.157131195068359">
        <ele>245</ele>
        <time>2002-06-08T11:39:37Z</time>
      </trkpt>
      <trkpt lat="44.301295280456543" lon="11.157174110412598">
        <ele>241</ele>
        <time>2002-06-08T11:39:39Z</time>
      </trkpt>
      <trkpt lat="44.301424026489258" lon="11.15756026469171">
        <ele>238</ele>
        <time>2002-06-08T11:39:41Z</time>
      </trkpt>
      <trkpt lat="44.301488399505615" lon="11.157753467559814">
        <ele>238</ele>
        <time>2002-06-08T11:39:42Z</time>
      </trkpt>
      <trkpt lat="44.301681518554688" lon="11.158525859937072">
        <ele>235</ele>
        <time>2002-06-08T11:39:46Z</time>
      </trkpt>
      <trkpt lat="44.30187463760376" lon="11.159212589263916">
        <ele>230</ele>
        <time>2002-06-08T11:39:50Z</time>
      </trkpt>
      <trkpt lat="44.30191763676703" lon="11.159405708312988">
        <ele>230</ele>
        <time>2002-06-08T11:39:51Z</time>
      </trkpt>
      <trkpt lat="44.301981925964355" lon="11.159770488739014">
        <ele>227</ele>
        <time>2002-06-08T11:39:53Z</time>
      </trkpt>
      <trkpt lat="44.30211067199707" lon="11.160070896148682">
        <ele>227</ele>
        <time>2002-06-08T11:39:55Z</time>
      </trkpt>
      <trkpt lat="44.302260875701904" lon="11.160285472869873">
        <ele>227</ele>
        <time>2002-06-08T11:39:57Z</time>
      </trkpt>
      <trkpt lat="44.302818775177002" lon="11.160736083984375">
        <ele>228</ele>
        <time>2002-06-08T11:40:04Z</time>
      </trkpt>
      <trkpt lat="44.303398132324219" lon="11.161143779754639">
        <ele>230</ele>
        <time>2002-06-08T11:40:15Z</time>
      </trkpt>
      <trkpt lat="44.304084777832031" lon="11.161508560180664">
        <ele>230</ele>
        <time>2002-06-08T11:40:32Z</time>
      </trkpt>
      <trkpt lat="44.305136203765869" lon="11.161637306213379">
        <ele>230</ele>
        <time>2002-06-08T11:40:53Z</time>
      </trkpt>
      <trkpt lat="44.305436611175537" lon="11.161744594573975">
        <ele>227</ele>
        <time>2002-06-08T11:40:59Z</time>
      </trkpt>
      <trkpt lat="44.305500984191895" lon="11.161766136065125">
        <ele>227</ele>
        <time>2002-06-08T11:41:00Z</time>
      </trkpt>
      <trkpt lat="44.306209087371826" lon="11.161572933197021">
        <ele>222</ele>
        <time>2002-06-08T11:41:08Z</time>
      </trkpt>
      <trkpt lat="44.30661678314209" lon="11.161487102508545">
        <ele>217</ele>
        <time>2002-06-08T11:41:12Z</time>
      </trkpt>
      <trkpt lat="44.307024478912354" lon="11.161422729492188">
        <ele>215</ele>
        <time>2002-06-08T11:41:16Z</time>
      </trkpt>
      <trkpt lat="44.307217597961426" lon="11.161530017852783">
        <ele>212</ele>
        <time>2002-06-08T11:41:18Z</time>
      </trkpt>
      <trkpt lat="44.307303428649902" lon="11.161637306213379">
        <ele>212</ele>
        <time>2002-06-08T11:41:19Z</time>
      </trkpt>
      <trkpt lat="44.307475090026855" lon="11.161830425262451">
        <ele>211</ele>
        <time>2002-06-08T11:41:21Z</time>
      </trkpt>
      <trkpt lat="44.307882785797119" lon="11.162152290344238">
        <ele>210</ele>
        <time>2002-06-08T11:41:25Z</time>
      </trkpt>
      <trkpt lat="44.308290481567383" lon="11.16260290145874">
        <ele>208</ele>
        <time>2002-06-08T11:41:30Z</time>
      </trkpt>
      <trkpt lat="44.3088698387146" lon="11.162989139556885">
        <ele>207</ele>
        <time>2002-06-08T11:41:37Z</time>
      </trkpt>
      <trkpt lat="44.308998584747314" lon="11.163139259442687">
        <ele>205</ele>
        <time>2002-06-08T11:41:39Z</time>
      </trkpt>
      <trkpt lat="44.309041500091553" lon="11.163225173950195">
        <ele>205</ele>
        <time>2002-06-08T11:41:40Z</time>
      </trkpt>
      <trkpt lat="44.309191703796387" lon="11.163375377655029">
        <ele>204</ele>
        <time>2002-06-08T11:41:43Z</time>
      </trkpt>
      <trkpt lat="44.309234619140625" lon="11.163418292999268">
        <ele>203</ele>
        <time>2002-06-08T11:41:44Z</time>
      </trkpt>
      <trkpt lat="44.309513568878174" lon="11.163461208343506">
        <ele>201</ele>
        <time>2002-06-08T11:41:47Z</time>
      </trkpt>
      <trkpt lat="44.309642314910889" lon="11.163418292999268">
        <ele>198</ele>
        <time>2002-06-08T11:41:48Z</time>
      </trkpt>
      <trkpt lat="44.309749603271484" lon="11.163396835327148">
        <ele>198</ele>
        <time>2002-06-08T11:41:49Z</time>
      </trkpt>
      <trkpt lat="44.309985637664795" lon="11.16335391998291">
        <ele>195</ele>
        <time>2002-06-08T11:41:51Z</time>
      </trkpt>
      <trkpt lat="44.310092926025391" lon="11.163332462310791">
        <ele>191</ele>
        <time>2002-06-08T11:41:52Z</time>
      </trkpt>
      <trkpt lat="44.310200214385986" lon="11.163332462310791">
        <ele>191</ele>
        <time>2002-06-08T11:41:53Z</time>
      </trkpt>
      <trkpt lat="44.310328960418701" lon="11.163311004638672">
        <ele>188</ele>
        <time>2002-06-08T11:41:54Z</time>
      </trkpt>
      <trkpt lat="44.310414791107178" lon="11.163289463147521">
        <ele>188</ele>
        <time>2002-06-08T11:41:55Z</time>
      </trkpt>
      <trkpt lat="44.31060791015625" lon="11.163203716278076">
        <ele>185</ele>
        <time>2002-06-08T11:41:57Z</time>
      </trkpt>
      <trkpt lat="44.310715198516846" lon="11.162989139556885">
        <ele>182</ele>
        <time>2002-06-08T11:41:59Z</time>
      </trkpt>
      <trkpt lat="44.31060791015625" lon="11.162452697753906">
        <ele>176</ele>
        <time>2002-06-08T11:42:04Z</time>
      </trkpt>
      <trkpt lat="44.310715198516846" lon="11.162195205688477">
        <ele>172</ele>
        <time>2002-06-08T11:42:07Z</time>
      </trkpt>
      <trkpt lat="44.310843860730529" lon="11.162002086639404">
        <ele>171</ele>
        <time>2002-06-08T11:42:10Z</time>
      </trkpt>
      <trkpt lat="44.310951232910156" lon="11.162002086639404">
        <ele>169</ele>
        <time>2002-06-08T11:42:12Z</time>
      </trkpt>
      <trkpt lat="44.311037063598633" lon="11.162045001983643">
        <ele>168</ele>
        <time>2002-06-08T11:42:13Z</time>
      </trkpt>
      <trkpt lat="44.311294639483094" lon="11.162431240081787">
        <ele>167</ele>
        <time>2002-06-08T11:42:18Z</time>
      </trkpt>
      <trkpt lat="44.311573505401611" lon="11.162903308868408">
        <ele>164</ele>
        <time>2002-06-08T11:42:24Z</time>
      </trkpt>
      <trkpt lat="44.311916828155518" lon="11.163332462310791">
        <ele>165</ele>
        <time>2002-06-08T11:42:30Z</time>
      </trkpt>
      <trkpt lat="44.312474727630615" lon="11.164126396179199">
        <ele>166</ele>
        <time>2002-06-08T11:42:45Z</time>
      </trkpt>
      <trkpt lat="44.313161373138428" lon="11.16560697555542">
        <ele>166</ele>
        <time>2002-06-08T11:43:06Z</time>
      </trkpt>
      <trkpt lat="44.313397407531738" lon="11.166164875030518">
        <ele>169</ele>
        <time>2002-06-08T11:43:16Z</time>
      </trkpt>
      <trkpt lat="44.313418865203857" lon="11.166229164227843">
        <ele>169</ele>
        <time>2002-06-08T11:43:17Z</time>
      </trkpt>
      <trkpt lat="44.313440322875977" lon="11.166486740112305">
        <ele>171</ele>
        <time>2002-06-08T11:43:22Z</time>
      </trkpt>
      <trkpt lat="44.313397407531738" lon="11.166787063702941">
        <ele>174</ele>
        <time>2002-06-08T11:43:30Z</time>
      </trkpt>
      <trkpt lat="44.313440322875977" lon="11.166894435882568">
        <ele>174</ele>
        <time>2002-06-08T11:43:34Z</time>
      </trkpt>
      <trkpt lat="44.313590526580811" lon="11.166937435045838">
        <ele>176</ele>
        <time>2002-06-08T11:43:40Z</time>
      </trkpt>
      <trkpt lat="44.313933765515685" lon="11.167323589324951">
        <ele>178</ele>
        <time>2002-06-08T11:43:56Z</time>
      </trkpt>
      <trkpt lat="44.314427375793457" lon="11.167902862653136">
        <ele>181</ele>
        <time>2002-06-08T11:44:18Z</time>
      </trkpt>
      <trkpt lat="44.314405918121338" lon="11.16764553822577">
        <ele>182</ele>
        <time>2002-06-08T11:44:27Z</time>
      </trkpt>
      <trkpt lat="44.31410551071167" lon="11.167237758636475">
        <ele>185</ele>
        <time>2002-06-08T11:44:40Z</time>
      </trkpt>
      <trkpt lat="44.313762187957764" lon="11.166701316833496">
        <ele>189</ele>
        <time>2002-06-08T11:44:57Z</time>
      </trkpt>
      <trkpt lat="44.313740730285645" lon="11.166679859161377">
        <ele>189</ele>
        <time>2002-06-08T11:44:58Z</time>
      </trkpt>
      <trkpt lat="44.313719272613525" lon="11.166636859998107">
        <ele>189</ele>
        <time>2002-06-08T11:45:00Z</time>
      </trkpt>
      <trkpt lat="44.313805103302002" lon="11.166636859998107">
        <ele>187</ele>
        <time>2002-06-08T11:45:05Z</time>
      </trkpt>
      <trkpt lat="44.313912391662598" lon="11.166787063702941">
        <ele>189</ele>
        <time>2002-06-08T11:45:10Z</time>
      </trkpt>
      <trkpt lat="44.314405918121338" lon="11.167387962341309">
        <ele>190</ele>
        <time>2002-06-08T11:45:30Z</time>
      </trkpt>
      <trkpt lat="44.314963817596436" lon="11.167581081390381">
        <ele>193</ele>
        <time>2002-06-08T11:45:46Z</time>
      </trkpt>
      <trkpt lat="44.315156936645508" lon="11.168031692504883">
        <ele>196</ele>
        <time>2002-06-08T11:45:58Z</time>
      </trkpt>
      <trkpt lat="44.315028190612793" lon="11.168653964996338">
        <ele>199</ele>
        <time>2002-06-08T11:46:13Z</time>
      </trkpt>
      <trkpt lat="44.314749240875244" lon="11.16934061050415">
        <ele>202</ele>
        <time>2002-06-08T11:46:31Z</time>
      </trkpt>
      <trkpt lat="44.314062595367432" lon="11.170027339830995">
        <ele>205</ele>
        <time>2002-06-08T11:46:56Z</time>
      </trkpt>
      <trkpt lat="44.31384801864624" lon="11.17034912109375">
        <ele>206</ele>
        <time>2002-06-08T11:47:05Z</time>
      </trkpt>
      <trkpt lat="44.313826560974121" lon="11.170520782470703">
        <ele>206</ele>
        <time>2002-06-08T11:47:08Z</time>
      </trkpt>
      <trkpt lat="44.313783561810851" lon="11.170756816864014">
        <ele>207</ele>
        <time>2002-06-08T11:47:12Z</time>
      </trkpt>
      <trkpt lat="44.313740730285645" lon="11.172215938568115">
        <ele>208</ele>
        <time>2002-06-08T11:47:35Z</time>
      </trkpt>
      <trkpt lat="44.313976764678955" lon="11.173481941223145">
        <ele>208</ele>
        <time>2002-06-08T11:47:54Z</time>
      </trkpt>
      <trkpt lat="44.314169883728027" lon="11.173889636993408">
        <ele>208</ele>
        <time>2002-06-08T11:48:00Z</time>
      </trkpt>
      <trkpt lat="44.314813613891602" lon="11.174962520599365">
        <ele>206</ele>
        <time>2002-06-08T11:48:14Z</time>
      </trkpt>
      <trkpt lat="44.314835071563721" lon="11.175541877746582">
        <ele>206</ele>
        <time>2002-06-08T11:48:19Z</time>
      </trkpt>
      <trkpt lat="44.314920902252197" lon="11.176121234893799">
        <ele>203</ele>
        <time>2002-06-08T11:48:24Z</time>
      </trkpt>
      <trkpt lat="44.315028190612793" lon="11.176464641466737">
        <ele>203</ele>
        <time>2002-06-08T11:48:27Z</time>
      </trkpt>
      <trkpt lat="44.31511402130127" lon="11.176679134368896">
        <ele>202</ele>
        <time>2002-06-08T11:48:29Z</time>
      </trkpt>
      <trkpt lat="44.315221309661865" lon="11.176915168762207">
        <ele>202</ele>
        <time>2002-06-08T11:48:31Z</time>
      </trkpt>
      <trkpt lat="44.315671920776367" lon="11.178374290466309">
        <ele>198</ele>
        <time>2002-06-08T11:48:43Z</time>
      </trkpt>
      <trkpt lat="44.315800666809082" lon="11.178867816925049">
        <ele>196</ele>
        <time>2002-06-08T11:48:47Z</time>
      </trkpt>
      <trkpt lat="44.316165363416076" lon="11.179318428039551">
        <ele>194</ele>
        <time>2002-06-08T11:48:52Z</time>
      </trkpt>
      <trkpt lat="44.316315734758973" lon="11.179490089416504">
        <ele>193</ele>
        <time>2002-06-08T11:48:54Z</time>
      </trkpt>
      <trkpt lat="44.316980838775635" lon="11.180670261383057">
        <ele>190</ele>
        <time>2002-06-08T11:49:05Z</time>
      </trkpt>
      <trkpt lat="44.317130958661437" lon="11.180863380432129">
        <ele>189</ele>
        <time>2002-06-08T11:49:07Z</time>
      </trkpt>
      <trkpt lat="44.317388534545898" lon="11.181078040972352">
        <ele>187</ele>
        <time>2002-06-08T11:49:10Z</time>
      </trkpt>
      <trkpt lat="44.317946434020996" lon="11.180906295776367">
        <ele>183</ele>
        <time>2002-06-08T11:49:16Z</time>
      </trkpt>
      <trkpt lat="44.318311214447021" lon="11.180627262219787">
        <ele>179</ele>
        <time>2002-06-08T11:49:20Z</time>
      </trkpt>
      <trkpt lat="44.318869113922119" lon="11.180176734924316">
        <ele>177</ele>
        <time>2002-06-08T11:49:26Z</time>
      </trkpt>
      <trkpt lat="44.319276809692383" lon="11.17983341217041">
        <ele>175</ele>
        <time>2002-06-08T11:49:30Z</time>
      </trkpt>
      <trkpt lat="44.31959867477417" lon="11.1795973777771">
        <ele>173</ele>
        <time>2002-06-08T11:49:33Z</time>
      </trkpt>
      <trkpt lat="44.319963539019227" lon="11.179511463269591">
        <ele>171</ele>
        <time>2002-06-08T11:49:36Z</time>
      </trkpt>
      <trkpt lat="44.320199489593506" lon="11.179554462432861">
        <ele>169</ele>
        <time>2002-06-08T11:49:38Z</time>
      </trkpt>
      <trkpt lat="44.320414066314697" lon="11.179661834612489">
        <ele>168</ele>
        <time>2002-06-08T11:49:40Z</time>
      </trkpt>
      <trkpt lat="44.32060718536377" lon="11.17983341217041">
        <ele>166</ele>
        <time>2002-06-08T11:49:42Z</time>
      </trkpt>
      <trkpt lat="44.321079337969422" lon="11.180219734087586">
        <ele>164</ele>
        <time>2002-06-08T11:49:47Z</time>
      </trkpt>
      <trkpt lat="44.321894561871886" lon="11.18036993779242">
        <ele>161</ele>
        <time>2002-06-08T11:49:56Z</time>
      </trkpt>
      <trkpt lat="44.3233323097229" lon="11.179876327514648">
        <ele>161</ele>
        <time>2002-06-08T11:50:15Z</time>
      </trkpt>
      <trkpt lat="44.323546886444092" lon="11.179769039154053">
        <ele>161</ele>
        <time>2002-06-08T11:50:18Z</time>
      </trkpt>
      <trkpt lat="44.32384729385376" lon="11.179704666137695">
        <ele>163</ele>
        <time>2002-06-08T11:50:23Z</time>
      </trkpt>
      <trkpt lat="44.323954582214355" lon="11.179704666137695">
        <ele>165</ele>
        <time>2002-06-08T11:50:25Z</time>
      </trkpt>
      <trkpt lat="44.324254989624023" lon="11.180026531219482">
        <ele>168</ele>
        <time>2002-06-08T11:50:33Z</time>
      </trkpt>
      <trkpt lat="44.324319362640381" lon="11.180133819580078">
        <ele>168</ele>
        <time>2002-06-08T11:50:35Z</time>
      </trkpt>
      <trkpt lat="44.324362277984619" lon="11.181035041809082">
        <ele>172</ele>
        <time>2002-06-08T11:50:50Z</time>
      </trkpt>
      <trkpt lat="44.324405193328857" lon="11.181185161694884">
        <ele>173</ele>
        <time>2002-06-08T11:50:53Z</time>
      </trkpt>
      <trkpt lat="44.324727058410645" lon="11.181979179382324">
        <ele>176</ele>
        <time>2002-06-08T11:51:11Z</time>
      </trkpt>
      <trkpt lat="44.324812889099121" lon="11.182708740234375">
        <ele>177</ele>
        <time>2002-06-08T11:51:30Z</time>
      </trkpt>
      <trkpt lat="44.325027465820312" lon="11.183373928070068">
        <ele>179</ele>
        <time>2002-06-08T11:51:45Z</time>
      </trkpt>
      <trkpt lat="44.325520992279053" lon="11.184124862775207">
        <ele>176</ele>
        <time>2002-06-08T11:51:57Z</time>
      </trkpt>
      <trkpt lat="44.325928688049316" lon="11.184832965955138">
        <ele>172</ele>
        <time>2002-06-08T11:52:05Z</time>
      </trkpt>
      <trkpt lat="44.326035976409912" lon="11.185026168823242">
        <ele>169</ele>
        <time>2002-06-08T11:52:07Z</time>
      </trkpt>
      <trkpt lat="44.326100265607238" lon="11.185111999511719">
        <ele>169</ele>
        <time>2002-06-08T11:52:08Z</time>
      </trkpt>
      <trkpt lat="44.326164722442627" lon="11.185197830200195">
        <ele>169</ele>
        <time>2002-06-08T11:52:09Z</time>
      </trkpt>
      <trkpt lat="44.326615333557129" lon="11.185541236773133">
        <ele>165</ele>
        <time>2002-06-08T11:52:14Z</time>
      </trkpt>
      <trkpt lat="44.327044486999512" lon="11.185455322265625">
        <ele>165</ele>
        <time>2002-06-08T11:52:18Z</time>
      </trkpt>
      <trkpt lat="44.327473640441895" lon="11.185047626495361">
        <ele>164</ele>
        <time>2002-06-08T11:52:23Z</time>
      </trkpt>
      <trkpt lat="44.328567981719971" lon="11.184489727020264">
        <ele>162</ele>
        <time>2002-06-08T11:52:34Z</time>
      </trkpt>
      <trkpt lat="44.32929745875299" lon="11.184725761413574">
        <ele>160</ele>
        <time>2002-06-08T11:52:41Z</time>
      </trkpt>
      <trkpt lat="44.330241680145264" lon="11.18513354100287">
        <ele>158</ele>
        <time>2002-06-08T11:52:50Z</time>
      </trkpt>
      <trkpt lat="44.33107852935791" lon="11.18582010269165">
        <ele>158</ele>
        <time>2002-06-08T11:53:00Z</time>
      </trkpt>
      <trkpt lat="44.332044124603271" lon="11.187000274658203">
        <ele>159</ele>
        <time>2002-06-08T11:53:17Z</time>
      </trkpt>
      <trkpt lat="44.332430362701416" lon="11.187515258789063">
        <ele>157</ele>
        <time>2002-06-08T11:53:25Z</time>
      </trkpt>
      <trkpt lat="44.332537734881043" lon="11.187686920166016">
        <ele>157</ele>
        <time>2002-06-08T11:53:27Z</time>
      </trkpt>
      <trkpt lat="44.33279505930841" lon="11.188309192657471">
        <ele>154</ele>
        <time>2002-06-08T11:53:33Z</time>
      </trkpt>
      <trkpt lat="44.333288669586182" lon="11.189703941345215">
        <ele>150</ele>
        <time>2002-06-08T11:53:45Z</time>
      </trkpt>
      <trkpt lat="44.333374500274658" lon="11.189939975738525">
        <ele>151</ele>
        <time>2002-06-08T11:53:47Z</time>
      </trkpt>
      <trkpt lat="44.333868026733398" lon="11.19152775965631">
        <ele>147</ele>
        <time>2002-06-08T11:54:00Z</time>
      </trkpt>
      <trkpt lat="44.334468841552734" lon="11.193673610687256">
        <ele>147</ele>
        <time>2002-06-08T11:54:20Z</time>
      </trkpt>
      <trkpt lat="44.335069740191102" lon="11.196141159161925">
        <ele>147</ele>
        <time>2002-06-08T11:54:46Z</time>
      </trkpt>
      <trkpt lat="44.335327064618468" lon="11.197278499603271">
        <ele>151</ele>
        <time>2002-06-08T11:55:03Z</time>
      </trkpt>
      <trkpt lat="44.335434436798096" lon="11.197750568389893">
        <ele>153</ele>
        <time>2002-06-08T11:55:12Z</time>
      </trkpt>
      <trkpt lat="44.335455894470215" lon="11.19781494140625">
        <ele>153</ele>
        <time>2002-06-08T11:55:13Z</time>
      </trkpt>
      <trkpt lat="44.335434436798096" lon="11.19856595993042">
        <ele>156</ele>
        <time>2002-06-08T11:55:28Z</time>
      </trkpt>
      <trkpt lat="44.335305690765381" lon="11.199188232421875">
        <ele>158</ele>
        <time>2002-06-08T11:55:43Z</time>
      </trkpt>
      <trkpt lat="44.335198402404785" lon="11.200218200683594">
        <ele>160</ele>
        <time>2002-06-08T11:56:06Z</time>
      </trkpt>
      <trkpt lat="44.335541725158691" lon="11.200990676879883">
        <ele>163</ele>
        <time>2002-06-08T11:56:23Z</time>
      </trkpt>
      <trkpt lat="44.3356276396662" lon="11.201097965240479">
        <ele>163</ele>
        <time>2002-06-08T11:56:26Z</time>
      </trkpt>
      <trkpt lat="44.336678981781006" lon="11.20202056132257">
        <ele>163</ele>
        <time>2002-06-08T11:56:50Z</time>
      </trkpt>
      <trkpt lat="44.336764812469482" lon="11.202106475830078">
        <ele>164</ele>
        <time>2002-06-08T11:56:52Z</time>
      </trkpt>
      <trkpt lat="44.337022304534912" lon="11.203029239550233">
        <ele>162</ele>
        <time>2002-06-08T11:57:03Z</time>
      </trkpt>
      <trkpt lat="44.337365627288818" lon="11.203393936157227">
        <ele>159</ele>
        <time>2002-06-08T11:57:09Z</time>
      </trkpt>
      <trkpt lat="44.338309764862061" lon="11.203436935320497">
        <ele>155</ele>
        <time>2002-06-08T11:57:20Z</time>
      </trkpt>
      <trkpt lat="44.339189529418945" lon="11.203136360272765">
        <ele>152</ele>
        <time>2002-06-08T11:57:28Z</time>
      </trkpt>
      <trkpt lat="44.339661598205566" lon="11.203072071075439">
        <ele>149</ele>
        <time>2002-06-08T11:57:32Z</time>
      </trkpt>
      <trkpt lat="44.340241039171815" lon="11.203114986419678">
        <ele>147</ele>
        <time>2002-06-08T11:57:37Z</time>
      </trkpt>
      <trkpt lat="44.340755939483643" lon="11.203393936157227">
        <ele>143</ele>
        <time>2002-06-08T11:57:42Z</time>
      </trkpt>
      <trkpt lat="44.341034889221191" lon="11.203672885894775">
        <ele>140</ele>
        <time>2002-06-08T11:57:45Z</time>
      </trkpt>
      <trkpt lat="44.341292381286621" lon="11.203994834795594">
        <ele>138</ele>
        <time>2002-06-08T11:57:48Z</time>
      </trkpt>
      <trkpt lat="44.341764533892274" lon="11.204617023468018">
        <ele>134</ele>
        <time>2002-06-08T11:57:54Z</time>
      </trkpt>
      <trkpt lat="44.342178264632821" lon="11.205197302624583">
        <ele>131</ele>
        <time>1989-12-31T00:00:00Z</time>
      </trkpt>
      <trkpt lat="44.341327669098973" lon="11.206638319417834">
        <ele>131</ele>
        <time>1989-12-31T00:00:00Z</time>
      </trkpt>
    </trkseg>
  </trk>

  <trk>
    <name>Track 002</name>
    <trkseg>
      <trkpt lat="44.317903518676758" lon="11.222040737047791">
        <ele>551</ele>
        <time>1989-12-31T00:00:00Z</time>
      </trkpt>
      <trkpt lat="44.317774772644043" lon="11.222040737047791">
        <ele>551</ele>
        <time>2002-06-08T10:43:46Z</time>
      </trkpt>
      <trkpt lat="44.317731941118836" lon="11.221997737884521">
        <ele>551</ele>
        <time>2002-06-08T10:43:51Z</time>
      </trkpt>
      <trkpt lat="44.317624568939209" lon="11.221890365704894">
        <ele>552</ele>
        <time>2002-06-08T10:44:05Z</time>
      </trkpt>
      <trkpt lat="44.317560195922852" lon="11.221718788146973">
        <ele>555</ele>
        <time>2002-06-08T10:44:19Z</time>
      </trkpt>
      <trkpt lat="44.317495822906494" lon="11.221589958295226">
        <ele>559</ele>
        <time>2002-06-08T10:44:33Z</time>
      </trkpt>
      <trkpt lat="44.317367076873779" lon="11.221461296081543">
        <ele>562</ele>
        <time>2002-06-08T10:44:51Z</time>
      </trkpt>
      <trkpt lat="44.317281162366271" lon="11.22133263386786">
        <ele>565</ele>
        <time>2002-06-08T10:45:08Z</time>
      </trkpt>
      <trkpt lat="44.317259788513184" lon="11.221203804016113">
        <ele>568</ele>
        <time>2002-06-08T10:45:20Z</time>
      </trkpt>
      <trkpt lat="44.317238330841064" lon="11.22107514180243">
        <ele>571</ele>
        <time>2002-06-08T10:45:34Z</time>
      </trkpt>
      <trkpt lat="44.317216873168945" lon="11.220774734392762">
        <ele>575</ele>
        <time>2002-06-08T10:46:05Z</time>
      </trkpt>
      <trkpt lat="44.317238330841064" lon="11.220602989196777">
        <ele>578</ele>
        <time>2002-06-08T10:46:22Z</time>
      </trkpt>
      <trkpt lat="44.317152500152588" lon="11.220517158508301">
        <ele>581</ele>
        <time>2002-06-08T10:46:42Z</time>
      </trkpt>
      <trkpt lat="44.317023837938905" lon="11.220474159345031">
        <ele>583</ele>
        <time>2002-06-08T10:46:56Z</time>
      </trkpt>
      <trkpt lat="44.316873634234071" lon="11.220409870147705">
        <ele>586</ele>
        <time>2002-06-08T10:47:11Z</time>
      </trkpt>
      <trkpt lat="44.31685209274292" lon="11.220388412475586">
        <ele>586</ele>
        <time>2002-06-08T10:47:12Z</time>
      </trkpt>
      <trkpt lat="44.316380023956299" lon="11.219079494476318">
        <ele>614</ele>
        <time>2002-06-08T10:50:38Z</time>
      </trkpt>
      <trkpt lat="44.316058158874512" lon="11.218886375427246">
        <ele>614</ele>
        <time>2002-06-08T10:50:57Z</time>
      </trkpt>
      <trkpt lat="44.315865039825439" lon="11.218500137329102">
        <ele>613</ele>
        <time>2002-06-08T10:51:03Z</time>
      </trkpt>
      <trkpt lat="44.315757835283875" lon="11.218371391296387">
        <ele>611</ele>
        <time>2002-06-08T10:51:09Z</time>
      </trkpt>
      <trkpt lat="44.315714836120605" lon="11.218178272247314">
        <ele>613</ele>
        <time>2002-06-08T10:51:24Z</time>
      </trkpt>
      <trkpt lat="44.315629005432129" lon="11.21802806854248">
        <ele>617</ele>
        <time>2002-06-08T10:51:42Z</time>
      </trkpt>
      <trkpt lat="44.315564632415771" lon="11.217749118804932">
        <ele>621</ele>
        <time>2002-06-08T10:52:09Z</time>
      </trkpt>
      <trkpt lat="44.315586090087891" lon="11.217555999755859">
        <ele>624</ele>
        <time>2002-06-08T10:52:26Z</time>
      </trkpt>
      <trkpt lat="44.315607463940978" lon="11.217427337542176">
        <ele>627</ele>
        <time>2002-06-08T10:52:37Z</time>
      </trkpt>
      <trkpt lat="44.315693378448486" lon="11.217191219329834">
        <ele>630</ele>
        <time>2002-06-08T10:53:00Z</time>
      </trkpt>
      <trkpt lat="44.315779209136963" lon="11.217019641771913">
        <ele>633</ele>
        <time>2002-06-08T10:53:17Z</time>
      </trkpt>
      <trkpt lat="44.31584358215332" lon="11.216869438067079">
        <ele>637</ele>
        <time>2002-06-08T10:53:32Z</time>
      </trkpt>
      <trkpt lat="44.316036701202393" lon="11.216740608215332">
        <ele>640</ele>
        <time>2002-06-08T10:54:06Z</time>
      </trkpt>
      <trkpt lat="44.31610107421875" lon="11.216740608215332">
        <ele>642</ele>
        <time>2002-06-08T10:54:16Z</time>
      </trkpt>
      <trkpt lat="44.315930334851146" lon="11.216150438413024">
        <ele>0</ele>
        <time>2002-06-08T10:55:56Z</time>
      </trkpt>
      <trkpt lat="44.315903428941965" lon="11.216053878888488">
        <ele>0</ele>
        <time>2002-06-08T10:56:04Z</time>
      </trkpt>
      <trkpt lat="44.315885994583368" lon="11.21600023470819">
        <ele>0</ele>
        <time>2002-06-08T10:56:07Z</time>
      </trkpt>
      <trkpt lat="44.315784070640802" lon="11.215630089864135">
        <ele>0</ele>
        <time>2002-06-08T10:58:24Z</time>
      </trkpt>
      <trkpt lat="44.315792117267847" lon="11.215605866163969">
        <ele>0</ele>
        <time>2002-06-08T10:58:26Z</time>
      </trkpt>
      <trkpt lat="44.315800163894892" lon="11.215592538937926">
        <ele>0</ele>
        <time>2002-06-08T10:58:27Z</time>
      </trkpt>
      <trkpt lat="44.315826985985041" lon="11.215536212548614">
        <ele>0</ele>
        <time>2002-06-08T10:58:32Z</time>
      </trkpt>
      <trkpt lat="44.315802762284875" lon="11.215412830933928">
        <ele>0</ele>
        <time>2002-06-08T10:58:41Z</time>
      </trkpt>
      <trkpt lat="44.315800163894892" lon="11.215412830933928">
        <ele>0</ele>
        <time>2002-06-08T10:58:42Z</time>
      </trkpt>
      <trkpt lat="44.315631184726954" lon="11.215310906991363">
        <ele>0</ele>
        <time>2002-06-08T10:59:03Z</time>
      </trkpt>
      <trkpt lat="44.315749201923609" lon="11.215120470151305">
        <ele>0</ele>
        <time>2002-06-08T10:59:09Z</time>
      </trkpt>
      <trkpt lat="44.315773341804743" lon="11.215085601434112">
        <ele>0</ele>
        <time>2002-06-08T10:59:10Z</time>
      </trkpt>
      <trkpt lat="44.315824303776026" lon="11.215023910626769">
        <ele>0</ele>
        <time>2002-06-08T10:59:12Z</time>
      </trkpt>
      <trkpt lat="44.316143486648798" lon="11.214511608704925">
        <ele>0</ele>
        <time>2002-06-08T10:59:32Z</time>
      </trkpt>
      <trkpt lat="44.316159579902887" lon="11.214213883504272">
        <ele>0</ele>
        <time>2002-06-08T10:59:48Z</time>
      </trkpt>
      <trkpt lat="44.316162262111902" lon="11.214141463860869">
        <ele>0</ele>
        <time>2002-06-08T10:59:52Z</time>
      </trkpt>
      <trkpt lat="44.316151197999716" lon="11.214074324816465">
        <ele>0</ele>
        <time>2002-06-08T10:59:56Z</time>
      </trkpt>
      <trkpt lat="44.316145833581686" lon="11.214058231562376">
        <ele>0</ele>
        <time>2002-06-08T10:59:57Z</time>
      </trkpt>
      <trkpt lat="44.316127058118582" lon="11.213819514960051">
        <ele>0</ele>
        <time>2002-06-08T11:00:08Z</time>
      </trkpt>
      <trkpt lat="44.316137786954641" lon="11.213849019259214">
        <ele>0</ele>
        <time>2002-06-08T11:00:09Z</time>
      </trkpt>
      <trkpt lat="44.31616460904479" lon="11.213867794722319">
        <ele>0</ele>
        <time>2002-06-08T11:00:12Z</time>
      </trkpt>
      <trkpt lat="44.316204758360982" lon="11.213857065886259">
        <ele>0</ele>
        <time>2002-06-08T11:00:16Z</time>
      </trkpt>
      <trkpt lat="44.316223617643118" lon="11.213865112513304">
        <ele>0</ele>
        <time>2002-06-08T11:00:17Z</time>
      </trkpt>
      <trkpt lat="44.316255804151297" lon="11.213865112513304">
        <ele>0</ele>
        <time>2002-06-08T11:00:18Z</time>
      </trkpt>
      <trkpt lat="44.316279860213399" lon="11.213859664276242">
        <ele>0</ele>
        <time>2002-06-08T11:00:19Z</time>
      </trkpt>
      <trkpt lat="44.316379185765982" lon="11.2138463370502">
        <ele>0</ele>
        <time>2002-06-08T11:00:21Z</time>
      </trkpt>
      <trkpt lat="44.31643282994628" lon="11.213838290423155">
        <ele>0</ele>
        <time>2002-06-08T11:00:22Z</time>
      </trkpt>
      <trkpt lat="44.31654816493392" lon="11.213822197169065">
        <ele>0</ele>
        <time>2002-06-08T11:00:24Z</time>
      </trkpt>
      <trkpt lat="44.316558893769979" lon="11.213771235197783">
        <ele>0</ele>
        <time>2002-06-08T11:00:25Z</time>
      </trkpt>
      <trkpt lat="44.316577669233084" lon="11.213663863018155">
        <ele>0</ele>
        <time>2002-06-08T11:00:28Z</time>
      </trkpt>
      <trkpt lat="44.316563839092851" lon="11.213567135855556">
        <ele>0</ele>
        <time>2002-06-08T11:00:31Z</time>
      </trkpt>
      <trkpt lat="44.316553110256791" lon="11.213537463918328">
        <ele>0</ele>
        <time>2002-06-08T11:00:32Z</time>
      </trkpt>
      <trkpt lat="44.316534334793687" lon="11.213505361229181">
        <ele>0</ele>
        <time>2002-06-08T11:00:33Z</time>
      </trkpt>
      <trkpt lat="44.316518241539598" lon="11.213473174721003">
        <ele>0</ele>
        <time>2002-06-08T11:00:34Z</time>
      </trkpt>
      <trkpt lat="44.316456634551287" lon="11.213454399257898">
        <ele>0</ele>
        <time>2002-06-08T11:00:37Z</time>
      </trkpt>
      <trkpt lat="44.316413635388017" lon="11.213440988212824">
        <ele>0</ele>
        <time>2002-06-08T11:00:39Z</time>
      </trkpt>
      <trkpt lat="44.316392177715898" lon="11.213446436449885">
        <ele>0</ele>
        <time>2002-06-08T11:00:41Z</time>
      </trkpt>
      <trkpt lat="44.316378766670823" lon="11.213457081466913">
        <ele>0</ele>
        <time>2002-06-08T11:00:42Z</time>
      </trkpt>
      <trkpt lat="44.31636543944478" lon="11.213465128093958">
        <ele>0</ele>
        <time>2002-06-08T11:00:43Z</time>
      </trkpt>
      <trkpt lat="44.316349262371659" lon="11.213462362065911">
        <ele>0</ele>
        <time>2002-06-08T11:00:44Z</time>
      </trkpt>
      <trkpt lat="44.316341215744615" lon="11.213379297405481">
        <ele>0</ele>
        <time>2002-06-08T11:00:46Z</time>
      </trkpt>
      <trkpt lat="44.31633316911757" lon="11.213325737044215">
        <ele>0</ele>
        <time>2002-06-08T11:00:47Z</time>
      </trkpt>
      <trkpt lat="44.31632244028151" lon="11.213274691253901">
        <ele>0</ele>
        <time>2002-06-08T11:00:48Z</time>
      </trkpt>
      <trkpt lat="44.316282207146287" lon="11.212985012680292">
        <ele>0</ele>
        <time>2002-06-08T11:00:53Z</time>
      </trkpt>
      <trkpt lat="44.316269466653466" lon="11.212760461494327">
        <ele>0</ele>
        <time>2002-06-08T11:00:55Z</time>
      </trkpt>
      <trkpt lat="44.316234597936273" lon="11.212449409067631">
        <ele>0</ele>
        <time>2002-06-08T11:00:58Z</time>
      </trkpt>
      <trkpt lat="44.316218504682183" lon="11.212409175932407">
        <ele>0</ele>
        <time>2002-06-08T11:00:59Z</time>
      </trkpt>
      <trkpt lat="44.316122531890869" lon="11.212277412414551">
        <ele>0</ele>
        <time>1989-12-31T00:00:00Z</time>
      </trkpt>
    </trkseg>
  </trk>

  <trk>
    <name>Track 003</name>
    <trkseg>
      <trkpt lat="44.314620494842529" lon="11.209874236956239">
        <ele>503</ele>
        <time>1989-12-31T00:00:00Z</time>
      </trkpt>
      <trkpt lat="44.314491664990783" lon="11.209959983825684">
        <ele>503</ele>
        <time>2002-10-27T09:49:46Z</time>
      </trkpt>
      <trkpt lat="44.314427375793457" lon="11.210110187530518">
        <ele>505</ele>
        <time>2002-10-27T09:50:24Z</time>
      </trkpt>
      <trkpt lat="44.314320087432861" lon="11.210625171661377">
        <ele>501</ele>
        <time>2002-10-27T09:50:31Z</time>
      </trkpt>
      <trkpt lat="44.314255714416504" lon="11.210968494415283">
        <ele>498</ele>
        <time>2002-10-27T09:50:34Z</time>
      </trkpt>
      <trkpt lat="44.314191341400146" lon="11.21129035949707">
        <ele>495</ele>
        <time>2002-10-27T09:50:37Z</time>
      </trkpt>
      <trkpt lat="44.314169883728027" lon="11.211397564038634">
        <ele>494</ele>
        <time>2002-10-27T09:50:38Z</time>
      </trkpt>
      <trkpt lat="44.314019680023193" lon="11.211848258972168">
        <ele>490</ele>
        <time>2002-10-27T09:50:44Z</time>
      </trkpt>
      <trkpt lat="44.313976764678955" lon="11.211977005004883">
        <ele>488</ele>
        <time>2002-10-27T09:50:46Z</time>
      </trkpt>
      <trkpt lat="44.313912391662598" lon="11.212320327758789">
        <ele>484</ele>
        <time>2002-10-27T09:50:49Z</time>
      </trkpt>
      <trkpt lat="44.313504695892334" lon="11.213457584381104">
        <ele>484</ele>
        <time>2002-10-27T09:51:01Z</time>
      </trkpt>
      <trkpt lat="44.31286096572876" lon="11.214165687561035">
        <ele>486</ele>
        <time>2002-10-27T09:51:18Z</time>
      </trkpt>
      <trkpt lat="44.312517559155822" lon="11.214680671691895">
        <ele>486</ele>
        <time>2002-10-27T09:51:32Z</time>
      </trkpt>
      <trkpt lat="44.311873912811279" lon="11.214358806610107">
        <ele>489</ele>
        <time>2002-10-27T09:51:43Z</time>
      </trkpt>
      <trkpt lat="44.311809539794922" lon="11.214315891265869">
        <ele>490</ele>
        <time>2002-10-27T09:51:44Z</time>
      </trkpt>
      <trkpt lat="44.311659336090088" lon="11.214530467987061">
        <ele>489</ele>
        <time>2002-10-27T09:51:53Z</time>
      </trkpt>
      <trkpt lat="44.311573505401611" lon="11.215002536773682">
        <ele>485</ele>
        <time>2002-10-27T09:51:58Z</time>
      </trkpt>
      <trkpt lat="44.311401760205626" lon="11.216204166412354">
        <ele>481</ele>
        <time>2002-10-27T09:52:09Z</time>
      </trkpt>
      <trkpt lat="44.311380386352539" lon="11.216311538591981">
        <ele>482</ele>
        <time>2002-10-27T09:52:10Z</time>
      </trkpt>
      <trkpt lat="44.311187267303467" lon="11.217513084411621">
        <ele>483</ele>
        <time>2002-10-27T09:52:21Z</time>
      </trkpt>
      <trkpt lat="44.310801029205322" lon="11.218414306640625">
        <ele>485</ele>
        <time>2002-10-27T09:52:32Z</time>
      </trkpt>
      <trkpt lat="44.310522079467773" lon="11.21877908706665">
        <ele>485</ele>
        <time>2002-10-27T09:52:39Z</time>
      </trkpt>
      <trkpt lat="44.310436164960265" lon="11.21953010559082">
        <ele>484</ele>
        <time>2002-10-27T09:52:53Z</time>
      </trkpt>
      <trkpt lat="44.310393333435059" lon="11.219701766967773">
        <ele>476</ele>
        <time>2002-10-27T09:53:48Z</time>
      </trkpt>
      <trkpt lat="44.310393333435059" lon="11.219744682312012">
        <ele>474</ele>
        <time>2002-10-27T09:53:51Z</time>
      </trkpt>
      <trkpt lat="44.310414791107178" lon="11.21978759765625">
        <ele>471</ele>
        <time>2002-10-27T09:53:54Z</time>
      </trkpt>
      <trkpt lat="44.311122894287109" lon="11.220324039459229">
        <ele>466</ele>
        <time>2002-10-27T09:53:58Z</time>
      </trkpt>
      <trkpt lat="44.311230182647705" lon="11.22028112411499">
        <ele>463</ele>
        <time>2002-10-27T09:54:01Z</time>
      </trkpt>
      <trkpt lat="44.311251640319824" lon="11.22028112411499">
        <ele>463</ele>
        <time>2002-10-27T09:54:02Z</time>
      </trkpt>
      <trkpt lat="44.311380386352539" lon="11.220259666442871">
        <ele>461</ele>
        <time>2002-10-27T09:54:05Z</time>
      </trkpt>
      <trkpt lat="44.311165809631348" lon="11.220088005065918">
        <ele>459</ele>
        <time>2002-10-27T09:54:10Z</time>
      </trkpt>
      <trkpt lat="44.311208724975586" lon="11.219894886016846">
        <ele>458</ele>
        <time>2002-10-27T09:54:20Z</time>
      </trkpt>
      <trkpt lat="44.311251640319824" lon="11.219830513000488">
        <ele>457</ele>
        <time>2002-10-27T09:54:32Z</time>
      </trkpt>
      <trkpt lat="44.31155196391046" lon="11.219830513000488">
        <ele>453</ele>
        <time>2002-10-27T09:54:41Z</time>
      </trkpt>
      <trkpt lat="44.31161642074585" lon="11.219830513000488">
        <ele>450</ele>
        <time>2002-10-27T09:54:44Z</time>
      </trkpt>
      <trkpt lat="44.311723709106445" lon="11.219851970672607">
        <ele>446</ele>
        <time>2002-10-27T09:54:46Z</time>
      </trkpt>
      <trkpt lat="44.311788082122803" lon="11.219851970672607">
        <ele>442</ele>
        <time>2002-10-27T09:54:48Z</time>
      </trkpt>
      <trkpt lat="44.311852538958192" lon="11.219851970672607">
        <ele>438</ele>
        <time>2002-10-27T09:54:51Z</time>
      </trkpt>
      <trkpt lat="44.312453269958496" lon="11.220474159345031">
        <ele>446</ele>
        <time>2002-10-27T09:55:42Z</time>
      </trkpt>
      <trkpt lat="44.312496185302734" lon="11.220624363049865">
        <ele>446</ele>
        <time>2002-10-27T09:55:45Z</time>
      </trkpt>
      <trkpt lat="44.312539100646973" lon="11.220710277557373">
        <ele>451</ele>
        <time>2002-10-27T09:55:59Z</time>
      </trkpt>
      <trkpt lat="44.312582015991211" lon="11.220860481262207">
        <ele>454</ele>
        <time>2002-10-27T09:56:09Z</time>
      </trkpt>
      <trkpt lat="44.312582015991211" lon="11.220881938934326">
        <ele>454</ele>
        <time>2002-10-27T09:56:10Z</time>
      </trkpt>
      <trkpt lat="44.312582015991211" lon="11.220946311950684">
        <ele>456</ele>
        <time>2002-10-27T09:56:15Z</time>
      </trkpt>
      <trkpt lat="44.312496185302734" lon="11.221268177032471">
        <ele>456</ele>
        <time>2002-10-27T09:56:35Z</time>
      </trkpt>
      <trkpt lat="44.312303066253662" lon="11.221697330474854">
        <ele>457</ele>
        <time>2002-10-27T09:56:56Z</time>
      </trkpt>
      <trkpt lat="44.312217235565186" lon="11.221868991851807">
        <ele>456</ele>
        <time>2002-10-27T09:57:09Z</time>
      </trkpt>
      <trkpt lat="44.312281608581543" lon="11.221933364868164">
        <ele>456</ele>
        <time>2002-10-27T09:59:48Z</time>
      </trkpt>
      <trkpt lat="44.312388896942139" lon="11.22174016200006">
        <ele>460</ele>
        <time>2002-10-27T10:00:07Z</time>
      </trkpt>
      <trkpt lat="44.312474727630615" lon="11.221654415130615">
        <ele>463</ele>
        <time>2002-10-27T10:00:17Z</time>
      </trkpt>
      <trkpt lat="44.31260347366333" lon="11.221568584442139">
        <ele>466</ele>
        <time>2002-10-27T10:00:27Z</time>
      </trkpt>
      <trkpt lat="44.312732219696045" lon="11.221589958295226">
        <ele>469</ele>
        <time>2002-10-27T10:00:37Z</time>
      </trkpt>
      <trkpt lat="44.312882423400879" lon="11.221654415130615">
        <ele>472</ele>
        <time>2002-10-27T10:00:50Z</time>
      </trkpt>
      <trkpt lat="44.312968337908387" lon="11.221675872802734">
        <ele>475</ele>
        <time>2002-10-27T10:00:58Z</time>
      </trkpt>
      <trkpt lat="44.313118541613221" lon="11.221611499786377">
        <ele>478</ele>
        <time>2002-10-27T10:01:11Z</time>
      </trkpt>
      <trkpt lat="44.313311576843262" lon="11.221568584442139">
        <ele>481</ele>
        <time>2002-10-27T10:01:28Z</time>
      </trkpt>
      <trkpt lat="44.313375866040587" lon="11.221654415130615">
        <ele>482</ele>
        <time>2002-10-27T10:01:37Z</time>
      </trkpt>
      <trkpt lat="44.313483238220215" lon="11.22174016200006">
        <ele>480</ele>
        <time>2002-10-27T10:01:53Z</time>
      </trkpt>
      <trkpt lat="44.313654899597168" lon="11.221911907196045">
        <ele>477</ele>
        <time>2002-10-27T10:01:58Z</time>
      </trkpt>
      <trkpt lat="44.31384801864624" lon="11.222105026245117">
        <ele>471</ele>
        <time>2002-10-27T10:02:01Z</time>
      </trkpt>
      <trkpt lat="44.313955307006836" lon="11.222169399261475">
        <ele>469</ele>
        <time>2002-10-27T10:02:03Z</time>
      </trkpt>
      <trkpt lat="44.314126968383789" lon="11.222126483917236">
        <ele>467</ele>
        <time>2002-10-27T10:02:06Z</time>
      </trkpt>
      <trkpt lat="44.314169883728027" lon="11.222083568572998">
        <ele>467</ele>
        <time>2002-10-27T10:02:07Z</time>
      </trkpt>
      <trkpt lat="44.3143630027771" lon="11.221933364868164">
        <ele>464</ele>
        <time>2002-10-27T10:02:11Z</time>
      </trkpt>
      <trkpt lat="44.31459903717041" lon="11.221954822540283">
        <ele>458</ele>
        <time>2002-10-27T10:02:15Z</time>
      </trkpt>
      <trkpt lat="44.314727783203125" lon="11.221976280212402">
        <ele>454</ele>
        <time>2002-10-27T10:02:17Z</time>
      </trkpt>
      <trkpt lat="44.314792240038514" lon="11.221997737884521">
        <ele>453</ele>
        <time>2002-10-27T10:02:18Z</time>
      </trkpt>
      <trkpt lat="44.314920902252197" lon="11.221997737884521">
        <ele>450</ele>
        <time>2002-10-27T10:02:20Z</time>
      </trkpt>
      <trkpt lat="44.31509256362915" lon="11.222083568572998">
        <ele>446</ele>
        <time>2002-10-27T10:02:23Z</time>
      </trkpt>
      <trkpt lat="44.315156936645508" lon="11.222126483917236">
        <ele>444</ele>
        <time>2002-10-27T10:02:24Z</time>
      </trkpt>
      <trkpt lat="44.315199935808778" lon="11.222233772277832">
        <ele>443</ele>
        <time>2002-10-27T10:02:26Z</time>
      </trkpt>
      <trkpt lat="44.315156936645508" lon="11.222577095031738">
        <ele>442</ele>
        <time>2002-10-27T10:02:32Z</time>
      </trkpt>
      <trkpt lat="44.315135478973389" lon="11.222984790802002">
        <ele>445</ele>
        <time>2002-10-27T10:02:40Z</time>
      </trkpt>
      <trkpt lat="44.315135478973389" lon="11.22302770614624">
        <ele>445</ele>
        <time>2002-10-27T10:02:41Z</time>
      </trkpt>
      <trkpt lat="44.315478801727295" lon="11.223928928375244">
        <ele>448</ele>
        <time>2002-10-27T10:03:05Z</time>
      </trkpt>
      <trkpt lat="44.315972328186035" lon="11.224164962768555">
        <ele>450</ele>
        <time>2002-10-27T10:03:27Z</time>
      </trkpt>
      <trkpt lat="44.316015159711242" lon="11.224336624145508">
        <ele>450</ele>
        <time>2002-10-27T10:03:33Z</time>
      </trkpt>
      <trkpt lat="44.316079616546631" lon="11.225109100341797">
        <ele>452</ele>
        <time>2002-10-27T10:03:44Z</time>
      </trkpt>
      <trkpt lat="44.316143989562988" lon="11.22523776255548">
        <ele>452</ele>
        <time>2002-10-27T10:03:48Z</time>
      </trkpt>
      <trkpt lat="44.316422939300537" lon="11.225259304046631">
        <ele>453</ele>
        <time>2002-10-27T10:03:59Z</time>
      </trkpt>
      <trkpt lat="44.316487312316895" lon="11.225709915161133">
        <ele>449</ele>
        <time>2002-10-27T10:04:28Z</time>
      </trkpt>
      <trkpt lat="44.316444396972656" lon="11.225881576538086">
        <ele>450</ele>
        <time>2002-10-27T10:04:34Z</time>
      </trkpt>
      <trkpt lat="44.316444396972656" lon="11.225924491882324">
        <ele>450</ele>
        <time>2002-10-27T10:04:35Z</time>
      </trkpt>
      <trkpt lat="44.316508769989014" lon="11.226482391357422">
        <ele>450</ele>
        <time>2002-10-27T10:04:48Z</time>
      </trkpt>
      <trkpt lat="44.316637516021729" lon="11.226739883422852">
        <ele>448</ele>
        <time>2002-10-27T10:04:52Z</time>
      </trkpt>
      <trkpt lat="44.316766262054443" lon="11.226975917816162">
        <ele>446</ele>
        <time>2002-10-27T10:04:55Z</time>
      </trkpt>
      <trkpt lat="44.317002296447754" lon="11.227512359619141">
        <ele>442</ele>
        <time>2002-10-27T10:05:01Z</time>
      </trkpt>
      <trkpt lat="44.31710958480835" lon="11.227748394012451">
        <ele>438</ele>
        <time>2002-10-27T10:05:04Z</time>
      </trkpt>
      <trkpt lat="44.31710958480835" lon="11.227877140045166">
        <ele>437</ele>
        <time>2002-10-27T10:05:07Z</time>
      </trkpt>
      <trkpt lat="44.316937923431396" lon="11.227984428405762">
        <ele>434</ele>
        <time>2002-10-27T10:05:11Z</time>
      </trkpt>
      <trkpt lat="44.316766262054443" lon="11.228091716766357">
        <ele>429</ele>
        <time>2002-10-27T10:05:14Z</time>
      </trkpt>
      <trkpt lat="44.316744804382324" lon="11.228113174438477">
        <ele>429</ele>
        <time>2002-10-27T10:05:15Z</time>
      </trkpt>
      <trkpt lat="44.316830635070801" lon="11.228134632110596">
        <ele>428</ele>
        <time>2002-10-27T10:05:24Z</time>
      </trkpt>
      <trkpt lat="44.317023837938905" lon="11.228005886077881">
        <ele>428</ele>
        <time>2002-10-27T10:05:47Z</time>
      </trkpt>
      <trkpt lat="44.317216873168945" lon="11.228027259930968">
        <ele>428</ele>
        <time>2002-10-27T10:06:04Z</time>
      </trkpt>
      <trkpt lat="44.317517280578613" lon="11.228113174438477">
        <ele>426</ele>
        <time>2002-10-27T10:06:15Z</time>
      </trkpt>
      <trkpt lat="44.317667484283447" lon="11.228349208831787">
        <ele>423</ele>
        <time>2002-10-27T10:06:19Z</time>
      </trkpt>
      <trkpt lat="44.317710399627686" lon="11.228456497192383">
        <ele>421</ele>
        <time>2002-10-27T10:06:20Z</time>
      </trkpt>
      <trkpt lat="44.317903518676758" lon="11.228842735290527">
        <ele>414</ele>
        <time>2002-10-27T10:06:24Z</time>
      </trkpt>
      <trkpt lat="44.318032264709473" lon="11.22901439666748">
        <ele>411</ele>
        <time>2002-10-27T10:06:26Z</time>
      </trkpt>
      <trkpt lat="44.318203926086426" lon="11.229143058881164">
        <ele>407</ele>
        <time>2002-10-27T10:06:29Z</time>
      </trkpt>
      <trkpt lat="44.318718910217285" lon="11.22901439666748">
        <ele>406</ele>
        <time>2002-10-27T10:06:36Z</time>
      </trkpt>
      <trkpt lat="44.318976402282715" lon="11.22901439666748">
        <ele>405</ele>
        <time>2002-10-27T10:06:41Z</time>
      </trkpt>
      <trkpt lat="44.319083690643311" lon="11.22901439666748">
        <ele>405</ele>
        <time>2002-10-27T10:06:43Z</time>
      </trkpt>
      <trkpt lat="44.319491386413574" lon="11.229550838470459">
        <ele>406</ele>
        <time>2002-10-27T10:06:58Z</time>
      </trkpt>
      <trkpt lat="44.319641590118408" lon="11.229615211486816">
        <ele>407</ele>
        <time>2002-10-27T10:07:03Z</time>
      </trkpt>
      <trkpt lat="44.319941997528076" lon="11.22978687286377">
        <ele>411</ele>
        <time>2002-10-27T10:07:15Z</time>
      </trkpt>
      <trkpt lat="44.319963539019227" lon="11.229872703552246">
        <ele>413</ele>
        <time>2002-10-27T10:07:23Z</time>
      </trkpt>
      <trkpt lat="44.319920539855957" lon="11.230065822601318">
        <ele>416</ele>
        <time>2002-10-27T10:07:32Z</time>
      </trkpt>
      <trkpt lat="44.3198561668396" lon="11.230258941650391">
        <ele>419</ele>
        <time>2002-10-27T10:07:44Z</time>
      </trkpt>
      <trkpt lat="44.319791793823242" lon="11.23051643371582">
        <ele>422</ele>
        <time>2002-10-27T10:08:00Z</time>
      </trkpt>
      <trkpt lat="44.319813335314393" lon="11.230816841125488">
        <ele>424</ele>
        <time>2002-10-27T10:08:18Z</time>
      </trkpt>
      <trkpt lat="44.319941997528076" lon="11.231288909912109">
        <ele>426</ele>
        <time>2002-10-27T10:08:45Z</time>
      </trkpt>
      <trkpt lat="44.32009220123291" lon="11.231696605682373">
        <ele>425</ele>
        <time>2002-10-27T10:09:00Z</time>
      </trkpt>
      <trkpt lat="44.320714473724365" lon="11.232490539550781">
        <ele>422</ele>
        <time>2002-10-27T10:09:14Z</time>
      </trkpt>
      <trkpt lat="44.32084321975708" lon="11.232683658599854">
        <ele>421</ele>
        <time>2002-10-27T10:09:17Z</time>
      </trkpt>
      <trkpt lat="44.321165084838867" lon="11.232898235321045">
        <ele>417</ele>
        <time>2002-10-27T10:09:22Z</time>
      </trkpt>
      <trkpt lat="44.321315288543701" lon="11.233048439025879">
        <ele>415</ele>
        <time>2002-10-27T10:09:24Z</time>
      </trkpt>
      <trkpt lat="44.321615695953369" lon="11.233584880828857">
        <ele>413</ele>
        <time>2002-10-27T10:09:30Z</time>
      </trkpt>
      <trkpt lat="44.321701526641846" lon="11.233713626861572">
        <ele>413</ele>
        <time>2002-10-27T10:09:32Z</time>
      </trkpt>
      <trkpt lat="44.321701526641846" lon="11.234250068664551">
        <ele>410</ele>
        <time>2002-10-27T10:09:42Z</time>
      </trkpt>
      <trkpt lat="44.321701526641846" lon="11.234335899353027">
        <ele>408</ele>
        <time>2002-10-27T10:09:43Z</time>
      </trkpt>
      <trkpt lat="44.321722984313965" lon="11.234657764434814">
        <ele>403</ele>
        <time>2002-10-27T10:09:47Z</time>
      </trkpt>
      <trkpt lat="44.321701526641846" lon="11.234765136614442">
        <ele>402</ele>
        <time>2002-10-27T10:09:49Z</time>
      </trkpt>
      <trkpt lat="44.321658611297607" lon="11.234786510467529">
        <ele>401</ele>
        <time>2002-10-27T10:09:50Z</time>
      </trkpt>
      <trkpt lat="44.321551322937012" lon="11.234743595123291">
        <ele>400</ele>
        <time>2002-10-27T10:09:52Z</time>
      </trkpt>
      <trkpt lat="44.321293830871582" lon="11.234486103057861">
        <ele>397</ele>
        <time>2002-10-27T10:09:56Z</time>
      </trkpt>
      <trkpt lat="44.321057796478271" lon="11.234292984008789">
        <ele>392</ele>
        <time>2002-10-27T10:10:00Z</time>
      </trkpt>
      <trkpt lat="44.320907592773438" lon="11.234314441680908">
        <ele>390</ele>
        <time>2002-10-27T10:10:02Z</time>
      </trkpt>
      <trkpt lat="44.320628559216857" lon="11.234486103057861">
        <ele>386</ele>
        <time>2002-10-27T10:10:06Z</time>
      </trkpt>
      <trkpt lat="44.320564270019531" lon="11.23450756072998">
        <ele>383</ele>
        <time>2002-10-27T10:10:07Z</time>
      </trkpt>
      <trkpt lat="44.320414066314697" lon="11.234679222106934">
        <ele>377</ele>
        <time>2002-10-27T10:10:10Z</time>
      </trkpt>
      <trkpt lat="44.320414066314697" lon="11.234765136614442">
        <ele>376</ele>
        <time>2002-10-27T10:10:11Z</time>
      </trkpt>
      <trkpt lat="44.320371234789491" lon="11.235108375549316">
        <ele>370</ele>
        <time>2002-10-27T10:10:15Z</time>
      </trkpt>
      <trkpt lat="44.320371234789491" lon="11.23528003692627">
        <ele>370</ele>
        <time>2002-10-27T10:10:17Z</time>
      </trkpt>
      <trkpt lat="44.320328235626221" lon="11.235537528991699">
        <ele>368</ele>
        <time>2002-10-27T10:10:20Z</time>
      </trkpt>
      <trkpt lat="44.320285320281982" lon="11.235687732696533">
        <ele>366</ele>
        <time>2002-10-27T10:10:23Z</time>
      </trkpt>
      <trkpt lat="44.319984912872314" lon="11.235923767089844">
        <ele>364</ele>
        <time>2002-10-27T10:10:28Z</time>
      </trkpt>
      <trkpt lat="44.319469928741455" lon="11.236352920532227">
        <ele>364</ele>
        <time>2002-10-27T10:10:44Z</time>
      </trkpt>
      <trkpt lat="44.319276809692383" lon="11.236653327941895">
        <ele>368</ele>
        <time>2002-10-27T10:10:56Z</time>
      </trkpt>
      <trkpt lat="44.319062232971191" lon="11.236889362335205">
        <ele>371</ele>
        <time>2002-10-27T10:11:08Z</time>
      </trkpt>
      <trkpt lat="44.318976402282715" lon="11.236996734514832">
        <ele>372</ele>
        <time>2002-10-27T10:11:13Z</time>
      </trkpt>
      <trkpt lat="44.318933486938477" lon="11.237146938219666">
        <ele>374</ele>
        <time>2002-10-27T10:11:20Z</time>
      </trkpt>
      <trkpt lat="44.318783283233643" lon="11.237533092498779">
        <ele>377</ele>
        <time>2002-10-27T10:11:38Z</time>
      </trkpt>
      <trkpt lat="44.318761825561523" lon="11.237576007843018">
        <ele>376</ele>
        <time>2002-10-27T10:11:42Z</time>
      </trkpt>
      <trkpt lat="44.318504333496094" lon="11.237468719482422">
        <ele>380</ele>
        <time>2002-10-27T10:11:53Z</time>
      </trkpt>
      <trkpt lat="44.318268299102783" lon="11.237597465515137">
        <ele>383</ele>
        <time>2002-10-27T10:12:07Z</time>
      </trkpt>
      <trkpt lat="44.318418502807617" lon="11.238133907318115">
        <ele>386</ele>
        <time>2002-10-27T10:12:28Z</time>
      </trkpt>
      <trkpt lat="44.31859016418457" lon="11.238713264465332">
        <ele>384</ele>
        <time>2002-10-27T10:12:49Z</time>
      </trkpt>
      <trkpt lat="44.318482875823975" lon="11.2400221824646">
        <ele>386</ele>
        <time>2002-10-27T10:13:13Z</time>
      </trkpt>
      <trkpt lat="44.318439960479736" lon="11.240343963727355">
        <ele>388</ele>
        <time>2002-10-27T10:13:21Z</time>
      </trkpt>
      <trkpt lat="44.318396961316466" lon="11.240472793579102">
        <ele>388</ele>
        <time>2002-10-27T10:13:25Z</time>
      </trkpt>
      <trkpt lat="44.31835412979126" lon="11.240730285644531">
        <ele>389</ele>
        <time>2002-10-27T10:13:42Z</time>
      </trkpt>
      <trkpt lat="44.31835412979126" lon="11.241030693054199">
        <ele>391</ele>
        <time>2002-10-27T10:14:52Z</time>
      </trkpt>
      <trkpt lat="44.318482875823975" lon="11.241116523742676">
        <ele>393</ele>
        <time>2002-10-27T10:15:11Z</time>
      </trkpt>
      <trkpt lat="44.318568706512451" lon="11.241245269775391">
        <ele>395</ele>
        <time>2002-10-27T10:15:22Z</time>
      </trkpt>
      <trkpt lat="44.318675994873047" lon="11.24145976267755">
        <ele>398</ele>
        <time>2002-10-27T10:15:34Z</time>
      </trkpt>
      <trkpt lat="44.318740367889404" lon="11.241524219512939">
        <ele>399</ele>
        <time>2002-10-27T10:15:39Z</time>
      </trkpt>
      <trkpt lat="44.318847740069032" lon="11.241438388824463">
        <ele>401</ele>
        <time>2002-10-27T10:15:47Z</time>
      </trkpt>
      <trkpt lat="44.318933486938477" lon="11.241288185119629">
        <ele>404</ele>
        <time>2002-10-27T10:15:59Z</time>
      </trkpt>
      <trkpt lat="44.318933486938477" lon="11.24126672744751">
        <ele>405</ele>
        <time>2002-10-27T10:16:01Z</time>
      </trkpt>
      <trkpt lat="44.318869113922119" lon="11.241095066070557">
        <ele>408</ele>
        <time>2002-10-27T10:16:11Z</time>
      </trkpt>
      <trkpt lat="44.318912029266357" lon="11.240859031677246">
        <ele>411</ele>
        <time>2002-10-27T10:16:27Z</time>
      </trkpt>
      <trkpt lat="44.318976402282715" lon="11.240880489349365">
        <ele>413</ele>
        <time>2002-10-27T10:16:37Z</time>
      </trkpt>
      <trkpt lat="44.319148063659668" lon="11.241159439086914">
        <ele>416</ele>
        <time>2002-10-27T10:17:02Z</time>
      </trkpt>
      <trkpt lat="44.319212436676025" lon="11.241245269775391">
        <ele>417</ele>
        <time>2002-10-27T10:17:10Z</time>
      </trkpt>
      <trkpt lat="44.319319725036621" lon="11.24145976267755">
        <ele>421</ele>
        <time>2002-10-27T10:17:26Z</time>
      </trkpt>
      <trkpt lat="44.319534301757813" lon="11.241695880889893">
        <ele>424</ele>
        <time>2002-10-27T10:17:43Z</time>
      </trkpt>
      <trkpt lat="44.31983470916748" lon="11.242146492004395">
        <ele>428</ele>
        <time>2002-10-27T10:18:04Z</time>
      </trkpt>
      <trkpt lat="44.319899082183838" lon="11.242232322692871">
        <ele>428</ele>
        <time>2002-10-27T10:18:09Z</time>
      </trkpt>
      <trkpt lat="44.319899082183838" lon="11.242275238037109">
        <ele>428</ele>
        <time>2002-10-27T10:18:12Z</time>
      </trkpt>
      <trkpt lat="44.320027828216553" lon="11.242682933807373">
        <ele>431</ele>
        <time>2002-10-27T10:18:34Z</time>
      </trkpt>
      <trkpt lat="44.320113658905029" lon="11.243026340380311">
        <ele>434</ele>
        <time>2002-10-27T10:18:51Z</time>
      </trkpt>
      <trkpt lat="44.320328235626221" lon="11.243283664807677">
        <ele>436</ele>
        <time>2002-10-27T10:19:06Z</time>
      </trkpt>
      <trkpt lat="44.320521438494325" lon="11.243605613708496">
        <ele>436</ele>
        <time>2002-10-27T10:19:23Z</time>
      </trkpt>
      <trkpt lat="44.32060718536377" lon="11.243927478790283">
        <ele>439</ele>
        <time>2002-10-27T10:19:36Z</time>
      </trkpt>
      <trkpt lat="44.320886135101318" lon="11.244142139330506">
        <ele>442</ele>
        <time>2002-10-27T10:19:53Z</time>
      </trkpt>
      <trkpt lat="44.321014881134033" lon="11.244313716888428">
        <ele>445</ele>
        <time>2002-10-27T10:20:08Z</time>
      </trkpt>
      <trkpt lat="44.321079337969422" lon="11.244442462921143">
        <ele>447</ele>
        <time>2002-10-27T10:20:17Z</time>
      </trkpt>
      <trkpt lat="44.321122169494629" lon="11.244614124298096">
        <ele>450</ele>
        <time>2002-10-27T10:20:29Z</time>
      </trkpt>
      <trkpt lat="44.321143627166748" lon="11.24476432800293">
        <ele>453</ele>
        <time>2002-10-27T10:20:39Z</time>
      </trkpt>
      <trkpt lat="44.321250915527344" lon="11.24500036239624">
        <ele>456</ele>
        <time>2002-10-27T10:20:55Z</time>
      </trkpt>
      <trkpt lat="44.321250915527344" lon="11.24500036239624">
        <ele>456</ele>
        <time>2002-10-27T10:20:56Z</time>
      </trkpt>
      <trkpt lat="44.321293830871582" lon="11.24495736323297">
        <ele>456</ele>
        <time>2002-10-27T10:21:00Z</time>
      </trkpt>
      <trkpt lat="44.321422576904297" lon="11.244463920593262">
        <ele>457</ele>
        <time>2002-10-27T10:21:19Z</time>
      </trkpt>
      <trkpt lat="44.321401119232178" lon="11.243970394134521">
        <ele>459</ele>
        <time>2002-10-27T10:21:41Z</time>
      </trkpt>
      <trkpt lat="44.321465492248535" lon="11.243605613708496">
        <ele>462</ele>
        <time>2002-10-27T10:21:59Z</time>
      </trkpt>
      <trkpt lat="44.321529865264893" lon="11.243369579315186">
        <ele>465</ele>
        <time>2002-10-27T10:22:14Z</time>
      </trkpt>
      <trkpt lat="44.321572780609131" lon="11.243176460266113">
        <ele>469</ele>
        <time>2002-10-27T10:22:25Z</time>
      </trkpt>
      <trkpt lat="44.321615695953369" lon="11.243112087249756">
        <ele>470</ele>
        <time>2002-10-27T10:22:30Z</time>
      </trkpt>
      <trkpt lat="44.321658611297607" lon="11.242940425872803">
        <ele>474</ele>
        <time>2002-10-27T10:22:41Z</time>
      </trkpt>
      <trkpt lat="44.321658611297607" lon="11.242790222167969">
        <ele>477</ele>
        <time>2002-10-27T10:22:51Z</time>
      </trkpt>
      <trkpt lat="44.321658611297607" lon="11.242554187774658">
        <ele>478</ele>
        <time>2002-10-27T10:23:07Z</time>
      </trkpt>
      <trkpt lat="44.32163723744452" lon="11.242210865020752">
        <ele>480</ele>
        <time>2002-10-27T10:23:23Z</time>
      </trkpt>
      <trkpt lat="44.32159423828125" lon="11.241760337725282">
        <ele>482</ele>
        <time>2002-10-27T10:23:42Z</time>
      </trkpt>
      <trkpt lat="44.321508407592773" lon="11.241309558972716">
        <ele>486</ele>
        <time>2002-10-27T10:24:00Z</time>
      </trkpt>
      <trkpt lat="44.321486866101623" lon="11.241202438250184">
        <ele>487</ele>
        <time>2002-10-27T10:24:04Z</time>
      </trkpt>
      <trkpt lat="44.321401119232178" lon="11.240794658660889">
        <ele>488</ele>
        <time>2002-10-27T10:24:24Z</time>
      </trkpt>
      <trkpt lat="44.321336662396789" lon="11.240601539611816">
        <ele>491</ele>
        <time>2002-10-27T10:24:35Z</time>
      </trkpt>
      <trkpt lat="44.321315288543701" lon="11.240408420562744">
        <ele>494</ele>
        <time>2002-10-27T10:24:43Z</time>
      </trkpt>
      <trkpt lat="44.321422576904297" lon="11.240365505218506">
        <ele>497</ele>
        <time>2002-10-27T10:24:56Z</time>
      </trkpt>
      <trkpt lat="44.321444034576416" lon="11.240386962890625">
        <ele>498</ele>
        <time>2002-10-27T10:25:00Z</time>
      </trkpt>
      <trkpt lat="44.321486866101623" lon="11.240494335070252">
        <ele>500</ele>
        <time>2002-10-27T10:25:08Z</time>
      </trkpt>
      <trkpt lat="44.321572780609131" lon="11.240601539611816">
        <ele>503</ele>
        <time>2002-10-27T10:25:20Z</time>
      </trkpt>
      <trkpt lat="44.321680068969727" lon="11.240665912628174">
        <ele>506</ele>
        <time>2002-10-27T10:25:30Z</time>
      </trkpt>
      <trkpt lat="44.321722984313965" lon="11.240708827972412">
        <ele>508</ele>
        <time>2002-10-27T10:25:36Z</time>
      </trkpt>
      <trkpt lat="44.321765899658203" lon="11.24077320098877">
        <ele>510</ele>
        <time>2002-10-27T10:25:43Z</time>
      </trkpt>
      <trkpt lat="44.321787441149354" lon="11.24100923538208">
        <ele>513</ele>
        <time>2002-10-27T10:26:02Z</time>
      </trkpt>
      <trkpt lat="44.321808815002441" lon="11.24105223454535">
        <ele>514</ele>
        <time>2002-10-27T10:26:05Z</time>
      </trkpt>
      <trkpt lat="44.321894561871886" lon="11.241245269775391">
        <ele>517</ele>
        <time>2002-10-27T10:26:20Z</time>
      </trkpt>
      <trkpt lat="44.32204476557672" lon="11.241524219512939">
        <ele>520</ele>
        <time>2002-10-27T10:26:42Z</time>
      </trkpt>
      <trkpt lat="44.322173595428467" lon="11.241888999938965">
        <ele>523</ele>
        <time>2002-10-27T10:27:03Z</time>
      </trkpt>
      <trkpt lat="44.322237968444824" lon="11.241888999938965">
        <ele>525</ele>
        <time>2002-10-27T10:27:16Z</time>
      </trkpt>
      <trkpt lat="44.322323799133301" lon="11.241910541430116">
        <ele>527</ele>
        <time>2002-10-27T10:27:23Z</time>
      </trkpt>
      <trkpt lat="44.322409629821777" lon="11.241910541430116">
        <ele>529</ele>
        <time>2002-10-27T10:27:32Z</time>
      </trkpt>
      <trkpt lat="44.322474002838135" lon="11.241824626922607">
        <ele>531</ele>
        <time>2002-10-27T10:27:39Z</time>
      </trkpt>
      <trkpt lat="44.322495460510254" lon="11.241738796234131">
        <ele>532</ele>
        <time>2002-10-27T10:27:46Z</time>
      </trkpt>
      <trkpt lat="44.322431087493896" lon="11.241481304168701">
        <ele>535</ele>
        <time>2002-10-27T10:28:03Z</time>
      </trkpt>
      <trkpt lat="44.322409629821777" lon="11.241416931152344">
        <ele>536</ele>
        <time>2002-10-27T10:28:07Z</time>
      </trkpt>
      <trkpt lat="44.322323799133301" lon="11.241223812103271">
        <ele>539</ele>
        <time>2002-10-27T10:28:24Z</time>
      </trkpt>
      <trkpt lat="44.322280883789063" lon="11.24105223454535">
        <ele>542</ele>
        <time>2002-10-27T10:28:37Z</time>
      </trkpt>
      <trkpt lat="44.322323799133301" lon="11.240859031677246">
        <ele>546</ele>
        <time>2002-10-27T10:28:47Z</time>
      </trkpt>
      <trkpt lat="44.322366714477539" lon="11.240751659497619">
        <ele>547</ele>
        <time>2002-10-27T10:29:03Z</time>
      </trkpt>
      <trkpt lat="44.322409629821777" lon="11.240687370300293">
        <ele>550</ele>
        <time>2002-10-27T10:29:19Z</time>
      </trkpt>
      <trkpt lat="44.322388172149658" lon="11.240687370300293">
        <ele>550</ele>
        <time>2002-10-27T10:29:23Z</time>
      </trkpt>
      <trkpt lat="44.322409629821777" lon="11.240601539611816">
        <ele>551</ele>
        <time>2002-10-27T10:29:28Z</time>
      </trkpt>
      <trkpt lat="44.322452461346984" lon="11.240537166595459">
        <ele>552</ele>
        <time>2002-10-27T10:29:31Z</time>
      </trkpt>
      <trkpt lat="44.322452461346984" lon="11.240537166595459">
        <ele>553</ele>
        <time>2002-10-27T10:29:32Z</time>
      </trkpt>
      <trkpt lat="44.322495460510254" lon="11.240322589874268">
        <ele>556</ele>
        <time>2002-10-27T10:29:49Z</time>
      </trkpt>
      <trkpt lat="44.322516918182373" lon="11.240279674530029">
        <ele>557</ele>
        <time>2002-10-27T10:29:53Z</time>
      </trkpt>
      <trkpt lat="44.322559833526611" lon="11.240150928497314">
        <ele>558</ele>
        <time>2002-10-27T10:30:04Z</time>
      </trkpt>
      <trkpt lat="44.322624206542969" lon="11.23976469039917">
        <ele>561</ele>
        <time>2002-10-27T10:30:24Z</time>
      </trkpt>
      <trkpt lat="44.322753036394715" lon="11.239378536120057">
        <ele>564</ele>
        <time>2002-10-27T10:30:42Z</time>
      </trkpt>
      <trkpt lat="44.32283878326416" lon="11.239120960235596">
        <ele>568</ele>
        <time>2002-10-27T10:30:53Z</time>
      </trkpt>
      <trkpt lat="44.322988986968994" lon="11.238691806793213">
        <ele>568</ele>
        <time>2002-10-27T10:31:10Z</time>
      </trkpt>
      <trkpt lat="44.323375225067139" lon="11.238241195678711">
        <ele>567</ele>
        <time>2002-10-27T10:31:27Z</time>
      </trkpt>
      <trkpt lat="44.32358980178833" lon="11.238241195678711">
        <ele>566</ele>
        <time>2002-10-27T10:31:44Z</time>
      </trkpt>
      <trkpt lat="44.32358980178833" lon="11.238262737169862">
        <ele>567</ele>
        <time>2002-10-27T10:36:16Z</time>
      </trkpt>
      <trkpt lat="44.323825836181641" lon="11.238198280334473">
        <ele>571</ele>
        <time>2002-10-27T10:36:30Z</time>
      </trkpt>
      <trkpt lat="44.323997497558594" lon="11.238090991973877">
        <ele>574</ele>
        <time>2002-10-27T10:36:42Z</time>
      </trkpt>
      <trkpt lat="44.324383735656738" lon="11.237833499908447">
        <ele>574</ele>
        <time>2002-10-27T10:37:00Z</time>
      </trkpt>
      <trkpt lat="44.324984634295106" lon="11.237597465515137">
        <ele>575</ele>
        <time>2002-10-27T10:37:18Z</time>
      </trkpt>
      <trkpt lat="44.325048923492432" lon="11.237661838531494">
        <ele>575</ele>
        <time>2002-10-27T10:37:20Z</time>
      </trkpt>
      <trkpt lat="44.32532787322998" lon="11.237855041399598">
        <ele>577</ele>
        <time>2002-10-27T10:37:32Z</time>
      </trkpt>
      <trkpt lat="44.325423762202263" lon="11.237889658659697">
        <ele>577</ele>
        <time>1989-12-31T00:00:00Z</time>
      </trkpt>
    </trkseg>
  </trk>

  <trk>
    <name>Track 004</name>
    <trkseg>
      <trkpt lat="44.355335840955377" lon="11.243168329820037">
        <ele>346</ele>
        <time>1989-12-31T00:00:00Z</time>
      </trkpt>
      <trkpt lat="44.355604564771056" lon="11.243133461102843">
        <ele>346</ele>
        <time>2002-10-27T10:54:02Z</time>
      </trkpt>
      <trkpt lat="44.355754936113954" lon="11.24326229095459">
        <ele>344</ele>
        <time>2002-10-27T10:54:04Z</time>
      </trkpt>
      <trkpt lat="44.355905139818788" lon="11.243391036987305">
        <ele>343</ele>
        <time>2002-10-27T10:54:06Z</time>
      </trkpt>
      <trkpt lat="44.356119632720947" lon="11.243476867675781">
        <ele>337</ele>
        <time>2002-10-27T10:54:10Z</time>
      </trkpt>
      <trkpt lat="44.356205463409424" lon="11.243176460266113">
        <ele>334</ele>
        <time>2002-10-27T10:54:14Z</time>
      </trkpt>
      <trkpt lat="44.356184005737305" lon="11.243069171905518">
        <ele>332</ele>
        <time>2002-10-27T10:54:15Z</time>
      </trkpt>
      <trkpt lat="44.356184005737305" lon="11.242296695709229">
        <ele>328</ele>
        <time>2002-10-27T10:54:20Z</time>
      </trkpt>
      <trkpt lat="44.356377124786377" lon="11.241781711578369">
        <ele>323</ele>
        <time>2002-10-27T10:54:24Z</time>
      </trkpt>
      <trkpt lat="44.356913566589355" lon="11.241395473480225">
        <ele>321</ele>
        <time>2002-10-27T10:54:30Z</time>
      </trkpt>
      <trkpt lat="44.357600212097168" lon="11.241159439086914">
        <ele>321</ele>
        <time>2002-10-27T10:54:38Z</time>
      </trkpt>
      <trkpt lat="44.358286941424012" lon="11.240966320037842">
        <ele>321</ele>
        <time>2002-10-27T10:54:50Z</time>
      </trkpt>
      <trkpt lat="44.358587265014648" lon="11.24100923538208">
        <ele>321</ele>
        <time>2002-10-27T10:55:01Z</time>
      </trkpt>
      <trkpt lat="44.358673095703125" lon="11.241030693054199">
        <ele>321</ele>
        <time>2002-10-27T10:55:03Z</time>
      </trkpt>
      <trkpt lat="44.359123706817627" lon="11.240987777709961">
        <ele>317</ele>
        <time>2002-10-27T10:55:10Z</time>
      </trkpt>
      <trkpt lat="44.359445571899414" lon="11.240923404693604">
        <ele>314</ele>
        <time>2002-10-27T10:55:14Z</time>
      </trkpt>
      <trkpt lat="44.359531402587891" lon="11.240923404693604">
        <ele>314</ele>
        <time>2002-10-27T10:55:15Z</time>
      </trkpt>
      <trkpt lat="44.359896183013916" lon="11.240816116333008">
        <ele>311</ele>
        <time>2002-10-27T10:55:19Z</time>
      </trkpt>
      <trkpt lat="44.360024929046631" lon="11.240687370300293">
        <ele>311</ele>
        <time>2002-10-27T10:55:21Z</time>
      </trkpt>
      <trkpt lat="44.360217964276671" lon="11.240537166595459">
        <ele>310</ele>
        <time>2002-10-27T10:58:45Z</time>
      </trkpt>
      <trkpt lat="44.360196590423584" lon="11.240236759185791">
        <ele>310</ele>
        <time>1989-12-31T00:00:00Z</time>
      </trkpt>
    </trkseg>
  </trk>

</gpx>
